<?xml version="1.0" encoding="UTF-8"?>
<gpx xmlns="http://www.topografix.com/GPX/1/1" xmlns:dkl="http://www.gpsware.de/DKL/1/1" xmlns:rtx="http://www.bike-gps.de/RTX/1/1" version="1.1" creator="KOMPASS Digital Map" xmlns:xsi="http://www.w3.org/2001/XMLSchema-instance" xsi:schemaLocation="http://www.topografix.com/GPX/1/1 http://www.topografix.com/GPX/1/1/gpx.xsd">
 <metadata>
 <name>KOMPASS Digital Map Track</name>
 <desc> </desc>
 <time>2011-10-31T15:10:57Z</time>
 <bounds minlat="47.421932" minlon="13.144214" maxlat="47.664547" maxlon="13.280405"/>
 </metadata>
 <trk>
 <name>2011_Trattberg</name>
 <cmt>mit Schwaiger Ernst</cmt>
 <extensions>
 <dkl:dkl>
 <dkl:format_version>1.1</dkl:format_version>
 <dkl:format>
 <dkl:color>FF0000</dkl:color>
 <dkl:style>00000000</dkl:style>
 <dkl:strength>3</dkl:strength>
 <dkl:transparent>0</dkl:transparent>
 </dkl:format>
 <dkl:profile>
 <dkl:mode>0</dkl:mode>
 <dkl:smooth>0</dkl:smooth>
 </dkl:profile>
 </dkl:dkl>
 </extensions>
 <trkseg>
 <trkpt lat="47.600643" lon="13.164678">
 <ele>463.08</ele>
 <time>2011-10-31T09:06:53Z</time>
 </trkpt>
 <trkpt lat="47.600643" lon="13.164678">
 <ele>463.27</ele>
 <time>2011-10-31T09:07:14Z</time>
 </trkpt>
 <trkpt lat="47.600986" lon="13.164530">
 <ele>463.05</ele>
 <time>2011-10-31T09:07:17Z</time>
 </trkpt>
 <trkpt lat="47.601055" lon="13.164493">
 <ele>463.11</ele>
 <time>2011-10-31T09:07:20Z</time>
 </trkpt>
 <trkpt lat="47.601013" lon="13.164518">
 <ele>463.05</ele>
 <time>2011-10-31T09:07:25Z</time>
 </trkpt>
 <trkpt lat="47.601162" lon="13.164432">
 <ele>462.93</ele>
 <time>2011-10-31T09:07:28Z</time>
 </trkpt>
 <trkpt lat="47.601166" lon="13.164432">
 <ele>462.80</ele>
 <time>2011-10-31T09:07:30Z</time>
 </trkpt>
 <trkpt lat="47.601013" lon="13.164518">
 <ele>462.61</ele>
 <time>2011-10-31T09:07:35Z</time>
 </trkpt>
 <trkpt lat="47.601242" lon="13.164432">
 <ele>462.49</ele>
 <time>2011-10-31T09:07:40Z</time>
 </trkpt>
 <trkpt lat="47.601265" lon="13.164432">
 <ele>462.44</ele>
 <time>2011-10-31T09:07:41Z</time>
 </trkpt>
 <trkpt lat="47.601494" lon="13.164389">
 <ele>461.81</ele>
 <time>2011-10-31T09:07:48Z</time>
 </trkpt>
 <trkpt lat="47.601711" lon="13.164373">
 <ele>461.66</ele>
 <time>2011-10-31T09:07:54Z</time>
 </trkpt>
 <trkpt lat="47.602001" lon="13.164270">
 <ele>461.63</ele>
 <time>2011-10-31T09:08:01Z</time>
 </trkpt>
 <trkpt lat="47.601788" lon="13.164368">
 <ele>461.30</ele>
 <time>2011-10-31T09:08:05Z</time>
 </trkpt>
 <trkpt lat="47.601788" lon="13.164368">
 <ele>460.84</ele>
 <time>2011-10-31T09:08:08Z</time>
 </trkpt>
 <trkpt lat="47.602100" lon="13.164243">
 <ele>460.08</ele>
 <time>2011-10-31T09:08:13Z</time>
 </trkpt>
 <trkpt lat="47.602085" lon="13.164224">
 <ele>459.95</ele>
 <time>2011-10-31T09:08:14Z</time>
 </trkpt>
 <trkpt lat="47.602215" lon="13.164154">
 <ele>459.46</ele>
 <time>2011-10-31T09:08:18Z</time>
 </trkpt>
 <trkpt lat="47.602509" lon="13.164002">
 <ele>458.99</ele>
 <time>2011-10-31T09:08:25Z</time>
 </trkpt>
 <trkpt lat="47.602806" lon="13.163850">
 <ele>458.61</ele>
 <time>2011-10-31T09:08:32Z</time>
 </trkpt>
 <trkpt lat="47.603073" lon="13.163724">
 <ele>458.70</ele>
 <time>2011-10-31T09:08:41Z</time>
 </trkpt>
 <trkpt lat="47.603073" lon="13.163724">
 <ele>458.56</ele>
 <time>2011-10-31T09:08:47Z</time>
 </trkpt>
 <trkpt lat="47.603844" lon="13.163061">
 <ele>458.97</ele>
 <time>2011-10-31T09:08:54Z</time>
 </trkpt>
 <trkpt lat="47.604183" lon="13.162948">
 <ele>459.34</ele>
 <time>2011-10-31T09:09:01Z</time>
 </trkpt>
 <trkpt lat="47.604588" lon="13.162861">
 <ele>459.61</ele>
 <time>2011-10-31T09:09:09Z</time>
 </trkpt>
 <trkpt lat="47.604755" lon="13.162825">
 <ele>459.33</ele>
 <time>2011-10-31T09:09:12Z</time>
 </trkpt>
 <trkpt lat="47.604980" lon="13.162684">
 <ele>458.39</ele>
 <time>2011-10-31T09:09:16Z</time>
 </trkpt>
 <trkpt lat="47.605141" lon="13.162515">
 <ele>457.89</ele>
 <time>2011-10-31T09:09:19Z</time>
 </trkpt>
 <trkpt lat="47.605518" lon="13.162217">
 <ele>457.30</ele>
 <time>2011-10-31T09:09:26Z</time>
 </trkpt>
 <trkpt lat="47.605957" lon="13.161910">
 <ele>457.68</ele>
 <time>2011-10-31T09:09:34Z</time>
 </trkpt>
 <trkpt lat="47.606201" lon="13.161771">
 <ele>458.36</ele>
 <time>2011-10-31T09:09:39Z</time>
 </trkpt>
 <trkpt lat="47.606499" lon="13.161621">
 <ele>458.81</ele>
 <time>2011-10-31T09:09:45Z</time>
 </trkpt>
 <trkpt lat="47.606964" lon="13.161353">
 <ele>458.78</ele>
 <time>2011-10-31T09:09:54Z</time>
 </trkpt>
 <trkpt lat="47.607342" lon="13.161076">
 <ele>458.14</ele>
 <time>2011-10-31T09:10:01Z</time>
 </trkpt>
 <trkpt lat="47.607681" lon="13.160766">
 <ele>457.78</ele>
 <time>2011-10-31T09:10:08Z</time>
 </trkpt>
 <trkpt lat="47.608231" lon="13.160169">
 <ele>456.78</ele>
 <time>2011-10-31T09:10:19Z</time>
 </trkpt>
 <trkpt lat="47.608757" lon="13.159544">
 <ele>455.72</ele>
 <time>2011-10-31T09:10:30Z</time>
 </trkpt>
 <trkpt lat="47.608891" lon="13.159387">
 <ele>455.76</ele>
 <time>2011-10-31T09:10:33Z</time>
 </trkpt>
 <trkpt lat="47.609142" lon="13.159315">
 <ele>455.72</ele>
 <time>2011-10-31T09:10:38Z</time>
 </trkpt>
 <trkpt lat="47.609489" lon="13.159289">
 <ele>454.85</ele>
 <time>2011-10-31T09:10:45Z</time>
 </trkpt>
 <trkpt lat="47.609863" lon="13.159158">
 <ele>454.63</ele>
 <time>2011-10-31T09:10:52Z</time>
 </trkpt>
 <trkpt lat="47.610374" lon="13.158960">
 <ele>454.29</ele>
 <time>2011-10-31T09:11:01Z</time>
 </trkpt>
 <trkpt lat="47.610489" lon="13.158903">
 <ele>454.26</ele>
 <time>2011-10-31T09:11:03Z</time>
 </trkpt>
 <trkpt lat="47.610783" lon="13.158592">
 <ele>453.88</ele>
 <time>2011-10-31T09:11:09Z</time>
 </trkpt>
 <trkpt lat="47.611130" lon="13.158074">
 <ele>453.73</ele>
 <time>2011-10-31T09:11:17Z</time>
 </trkpt>
 <trkpt lat="47.611408" lon="13.157571">
 <ele>453.37</ele>
 <time>2011-10-31T09:11:24Z</time>
 </trkpt>
 <trkpt lat="47.611530" lon="13.157238">
 <ele>453.30</ele>
 <time>2011-10-31T09:11:28Z</time>
 </trkpt>
 <trkpt lat="47.611721" lon="13.156877">
 <ele>452.87</ele>
 <time>2011-10-31T09:11:33Z</time>
 </trkpt>
 <trkpt lat="47.611885" lon="13.156863">
 <ele>452.62</ele>
 <time>2011-10-31T09:11:36Z</time>
 </trkpt>
 <trkpt lat="47.611942" lon="13.156877">
 <ele>452.55</ele>
 <time>2011-10-31T09:11:37Z</time>
 </trkpt>
 <trkpt lat="47.612236" lon="13.156960">
 <ele>452.32</ele>
 <time>2011-10-31T09:11:42Z</time>
 </trkpt>
 <trkpt lat="47.612347" lon="13.156975">
 <ele>452.20</ele>
 <time>2011-10-31T09:11:44Z</time>
 </trkpt>
 <trkpt lat="47.612682" lon="13.156867">
 <ele>452.23</ele>
 <time>2011-10-31T09:11:50Z</time>
 </trkpt>
 <trkpt lat="47.613079" lon="13.156646">
 <ele>451.89</ele>
 <time>2011-10-31T09:11:57Z</time>
 </trkpt>
 <trkpt lat="47.613384" lon="13.156404">
 <ele>451.92</ele>
 <time>2011-10-31T09:12:03Z</time>
 </trkpt>
 <trkpt lat="47.613605" lon="13.156027">
 <ele>451.86</ele>
 <time>2011-10-31T09:12:09Z</time>
 </trkpt>
 <trkpt lat="47.613762" lon="13.155501">
 <ele>451.82</ele>
 <time>2011-10-31T09:12:16Z</time>
 </trkpt>
 <trkpt lat="47.613945" lon="13.155068">
 <ele>451.82</ele>
 <time>2011-10-31T09:12:22Z</time>
 </trkpt>
 <trkpt lat="47.614220" lon="13.154677">
 <ele>452.39</ele>
 <time>2011-10-31T09:12:29Z</time>
 </trkpt>
 <trkpt lat="47.614254" lon="13.154626">
 <ele>452.52</ele>
 <time>2011-10-31T09:12:30Z</time>
 </trkpt>
 <trkpt lat="47.614483" lon="13.154111">
 <ele>453.23</ele>
 <time>2011-10-31T09:12:38Z</time>
 </trkpt>
 <trkpt lat="47.614517" lon="13.154049">
 <ele>453.15</ele>
 <time>2011-10-31T09:12:39Z</time>
 </trkpt>
 <trkpt lat="47.614796" lon="13.153758">
 <ele>452.47</ele>
 <time>2011-10-31T09:12:45Z</time>
 </trkpt>
 <trkpt lat="47.615219" lon="13.153454">
 <ele>451.90</ele>
 <time>2011-10-31T09:12:53Z</time>
 </trkpt>
 <trkpt lat="47.615574" lon="13.153279">
 <ele>451.89</ele>
 <time>2011-10-31T09:13:00Z</time>
 </trkpt>
 <trkpt lat="47.615963" lon="13.153059">
 <ele>451.77</ele>
 <time>2011-10-31T09:13:07Z</time>
 </trkpt>
 <trkpt lat="47.616154" lon="13.152849">
 <ele>451.63</ele>
 <time>2011-10-31T09:13:11Z</time>
 </trkpt>
 <trkpt lat="47.616192" lon="13.152786">
 <ele>451.52</ele>
 <time>2011-10-31T09:13:12Z</time>
 </trkpt>
 <trkpt lat="47.616276" lon="13.152675">
 <ele>451.32</ele>
 <time>2011-10-31T09:13:14Z</time>
 </trkpt>
 <trkpt lat="47.616695" lon="13.152319">
 <ele>450.45</ele>
 <time>2011-10-31T09:13:22Z</time>
 </trkpt>
 <trkpt lat="47.616859" lon="13.152184">
 <ele>450.45</ele>
 <time>2011-10-31T09:13:25Z</time>
 </trkpt>
 <trkpt lat="47.617374" lon="13.151879">
 <ele>450.01</ele>
 <time>2011-10-31T09:13:34Z</time>
 </trkpt>
 <trkpt lat="47.617687" lon="13.151642">
 <ele>450.18</ele>
 <time>2011-10-31T09:13:40Z</time>
 </trkpt>
 <trkpt lat="47.618546" lon="13.151622">
 <ele>449.31</ele>
 <time>2011-10-31T09:13:47Z</time>
 </trkpt>
 <trkpt lat="47.618622" lon="13.151331">
 <ele>449.92</ele>
 <time>2011-10-31T09:13:53Z</time>
 </trkpt>
 <trkpt lat="47.618767" lon="13.151143">
 <ele>450.70</ele>
 <time>2011-10-31T09:13:58Z</time>
 </trkpt>
 <trkpt lat="47.618790" lon="13.151116">
 <ele>450.95</ele>
 <time>2011-10-31T09:14:00Z</time>
 </trkpt>
 <trkpt lat="47.618835" lon="13.151353">
 <ele>452.64</ele>
 <time>2011-10-31T09:14:04Z</time>
 </trkpt>
 <trkpt lat="47.618885" lon="13.151017">
 <ele>453.20</ele>
 <time>2011-10-31T09:14:08Z</time>
 </trkpt>
 <trkpt lat="47.618919" lon="13.150980">
 <ele>453.26</ele>
 <time>2011-10-31T09:14:09Z</time>
 </trkpt>
 <trkpt lat="47.619183" lon="13.150705">
 <ele>452.41</ele>
 <time>2011-10-31T09:14:16Z</time>
 </trkpt>
 <trkpt lat="47.619213" lon="13.150674">
 <ele>452.36</ele>
 <time>2011-10-31T09:14:17Z</time>
 </trkpt>
 <trkpt lat="47.619442" lon="13.150434">
 <ele>452.35</ele>
 <time>2011-10-31T09:14:24Z</time>
 </trkpt>
 <trkpt lat="47.619774" lon="13.150086">
 <ele>453.34</ele>
 <time>2011-10-31T09:14:33Z</time>
 </trkpt>
 <trkpt lat="47.619987" lon="13.149862">
 <ele>454.29</ele>
 <time>2011-10-31T09:14:39Z</time>
 </trkpt>
 <trkpt lat="47.620132" lon="13.149712">
 <ele>455.22</ele>
 <time>2011-10-31T09:14:47Z</time>
 </trkpt>
 <trkpt lat="47.620613" lon="13.149309">
 <ele>455.32</ele>
 <time>2011-10-31T09:14:55Z</time>
 </trkpt>
 <trkpt lat="47.621044" lon="13.149038">
 <ele>454.58</ele>
 <time>2011-10-31T09:15:03Z</time>
 </trkpt>
 <trkpt lat="47.621647" lon="13.148668">
 <ele>453.83</ele>
 <time>2011-10-31T09:15:14Z</time>
 </trkpt>
 <trkpt lat="47.622131" lon="13.148344">
 <ele>454.01</ele>
 <time>2011-10-31T09:15:23Z</time>
 </trkpt>
 <trkpt lat="47.622704" lon="13.147951">
 <ele>453.86</ele>
 <time>2011-10-31T09:15:33Z</time>
 </trkpt>
 <trkpt lat="47.622967" lon="13.147607">
 <ele>453.50</ele>
 <time>2011-10-31T09:15:39Z</time>
 </trkpt>
 <trkpt lat="47.623238" lon="13.147279">
 <ele>453.54</ele>
 <time>2011-10-31T09:15:45Z</time>
 </trkpt>
 <trkpt lat="47.623489" lon="13.146861">
 <ele>453.05</ele>
 <time>2011-10-31T09:15:52Z</time>
 </trkpt>
 <trkpt lat="47.623646" lon="13.146578">
 <ele>452.60</ele>
 <time>2011-10-31T09:15:56Z</time>
 </trkpt>
 <trkpt lat="47.623985" lon="13.145940">
 <ele>451.85</ele>
 <time>2011-10-31T09:16:05Z</time>
 </trkpt>
 <trkpt lat="47.624287" lon="13.145360">
 <ele>451.89</ele>
 <time>2011-10-31T09:16:12Z</time>
 </trkpt>
 <trkpt lat="47.624580" lon="13.144793">
 <ele>451.13</ele>
 <time>2011-10-31T09:16:20Z</time>
 </trkpt>
 <trkpt lat="47.624752" lon="13.144461">
 <ele>451.20</ele>
 <time>2011-10-31T09:16:25Z</time>
 </trkpt>
 <trkpt lat="47.624767" lon="13.144434">
 <ele>451.86</ele>
 <time>2011-10-31T09:16:30Z</time>
 </trkpt>
 <trkpt lat="47.624905" lon="13.144545">
 <ele>452.12</ele>
 <time>2011-10-31T09:16:33Z</time>
 </trkpt>
 <trkpt lat="47.625031" lon="13.144646">
 <ele>452.16</ele>
 <time>2011-10-31T09:16:36Z</time>
 </trkpt>
 <trkpt lat="47.625286" lon="13.144777">
 <ele>452.11</ele>
 <time>2011-10-31T09:16:41Z</time>
 </trkpt>
 <trkpt lat="47.625534" lon="13.144631">
 <ele>451.80</ele>
 <time>2011-10-31T09:16:46Z</time>
 </trkpt>
 <trkpt lat="47.625622" lon="13.144494">
 <ele>451.59</ele>
 <time>2011-10-31T09:16:48Z</time>
 </trkpt>
 <trkpt lat="47.625698" lon="13.144324">
 <ele>451.42</ele>
 <time>2011-10-31T09:16:51Z</time>
 </trkpt>
 <trkpt lat="47.625740" lon="13.144214">
 <ele>451.53</ele>
 <time>2011-10-31T09:16:54Z</time>
 </trkpt>
 <trkpt lat="47.625820" lon="13.144240">
 <ele>451.07</ele>
 <time>2011-10-31T09:16:58Z</time>
 </trkpt>
 <trkpt lat="47.626022" lon="13.144430">
 <ele>450.71</ele>
 <time>2011-10-31T09:17:03Z</time>
 </trkpt>
 <trkpt lat="47.626114" lon="13.144515">
 <ele>450.95</ele>
 <time>2011-10-31T09:17:08Z</time>
 </trkpt>
 <trkpt lat="47.626259" lon="13.144664">
 <ele>451.07</ele>
 <time>2011-10-31T09:17:13Z</time>
 </trkpt>
 <trkpt lat="47.626404" lon="13.144821">
 <ele>450.99</ele>
 <time>2011-10-31T09:17:19Z</time>
 </trkpt>
 <trkpt lat="47.626545" lon="13.144973">
 <ele>451.22</ele>
 <time>2011-10-31T09:17:25Z</time>
 </trkpt>
 <trkpt lat="47.626682" lon="13.145120">
 <ele>450.99</ele>
 <time>2011-10-31T09:17:30Z</time>
 </trkpt>
 <trkpt lat="47.626759" lon="13.145199">
 <ele>451.15</ele>
 <time>2011-10-31T09:17:35Z</time>
 </trkpt>
 <trkpt lat="47.626759" lon="13.145199">
 <ele>451.40</ele>
 <time>2011-10-31T09:17:38Z</time>
 </trkpt>
 <trkpt lat="47.626934" lon="13.145035">
 <ele>451.26</ele>
 <time>2011-10-31T09:17:46Z</time>
 </trkpt>
 <trkpt lat="47.627010" lon="13.144959">
 <ele>451.24</ele>
 <time>2011-10-31T09:17:50Z</time>
 </trkpt>
 <trkpt lat="47.627071" lon="13.144895">
 <ele>451.23</ele>
 <time>2011-10-31T09:17:54Z</time>
 </trkpt>
 <trkpt lat="47.627323" lon="13.144638">
 <ele>450.45</ele>
 <time>2011-10-31T09:18:00Z</time>
 </trkpt>
 <trkpt lat="47.627468" lon="13.144660">
 <ele>449.79</ele>
 <time>2011-10-31T09:18:04Z</time>
 </trkpt>
 <trkpt lat="47.627583" lon="13.144789">
 <ele>449.07</ele>
 <time>2011-10-31T09:18:07Z</time>
 </trkpt>
 <trkpt lat="47.627766" lon="13.145005">
 <ele>448.30</ele>
 <time>2011-10-31T09:18:12Z</time>
 </trkpt>
 <trkpt lat="47.627865" lon="13.145119">
 <ele>448.43</ele>
 <time>2011-10-31T09:18:17Z</time>
 </trkpt>
 <trkpt lat="47.628056" lon="13.145343">
 <ele>448.09</ele>
 <time>2011-10-31T09:18:23Z</time>
 </trkpt>
 <trkpt lat="47.628235" lon="13.145660">
 <ele>448.61</ele>
 <time>2011-10-31T09:18:29Z</time>
 </trkpt>
 <trkpt lat="47.628441" lon="13.145955">
 <ele>449.90</ele>
 <time>2011-10-31T09:18:35Z</time>
 </trkpt>
 <trkpt lat="47.628838" lon="13.146487">
 <ele>449.78</ele>
 <time>2011-10-31T09:18:45Z</time>
 </trkpt>
 <trkpt lat="47.629200" lon="13.146865">
 <ele>450.08</ele>
 <time>2011-10-31T09:18:53Z</time>
 </trkpt>
 <trkpt lat="47.629593" lon="13.147215">
 <ele>450.51</ele>
 <time>2011-10-31T09:19:01Z</time>
 </trkpt>
 <trkpt lat="47.630093" lon="13.147600">
 <ele>449.93</ele>
 <time>2011-10-31T09:19:10Z</time>
 </trkpt>
 <trkpt lat="47.630566" lon="13.147963">
 <ele>449.89</ele>
 <time>2011-10-31T09:19:19Z</time>
 </trkpt>
 <trkpt lat="47.630821" lon="13.148160">
 <ele>449.81</ele>
 <time>2011-10-31T09:19:24Z</time>
 </trkpt>
 <trkpt lat="47.631168" lon="13.148427">
 <ele>449.71</ele>
 <time>2011-10-31T09:19:31Z</time>
 </trkpt>
 <trkpt lat="47.631599" lon="13.148945">
 <ele>450.50</ele>
 <time>2011-10-31T09:19:41Z</time>
 </trkpt>
 <trkpt lat="47.631969" lon="13.149583">
 <ele>450.43</ele>
 <time>2011-10-31T09:19:51Z</time>
 </trkpt>
 <trkpt lat="47.632256" lon="13.150136">
 <ele>450.52</ele>
 <time>2011-10-31T09:19:59Z</time>
 </trkpt>
 <trkpt lat="47.632351" lon="13.150333">
 <ele>450.37</ele>
 <time>2011-10-31T09:20:02Z</time>
 </trkpt>
 <trkpt lat="47.632496" lon="13.150608">
 <ele>449.97</ele>
 <time>2011-10-31T09:20:07Z</time>
 </trkpt>
 <trkpt lat="47.632549" lon="13.150708">
 <ele>449.87</ele>
 <time>2011-10-31T09:20:09Z</time>
 </trkpt>
 <trkpt lat="47.632793" lon="13.151165">
 <ele>449.86</ele>
 <time>2011-10-31T09:20:17Z</time>
 </trkpt>
 <trkpt lat="47.633209" lon="13.151857">
 <ele>449.22</ele>
 <time>2011-10-31T09:20:28Z</time>
 </trkpt>
 <trkpt lat="47.633591" lon="13.152493">
 <ele>449.64</ele>
 <time>2011-10-31T09:20:38Z</time>
 </trkpt>
 <trkpt lat="47.633892" lon="13.152995">
 <ele>449.84</ele>
 <time>2011-10-31T09:20:46Z</time>
 </trkpt>
 <trkpt lat="47.634155" lon="13.153493">
 <ele>449.73</ele>
 <time>2011-10-31T09:20:54Z</time>
 </trkpt>
 <trkpt lat="47.634369" lon="13.153900">
 <ele>449.98</ele>
 <time>2011-10-31T09:21:00Z</time>
 </trkpt>
 <trkpt lat="47.634617" lon="13.154375">
 <ele>449.52</ele>
 <time>2011-10-31T09:21:07Z</time>
 </trkpt>
 <trkpt lat="47.634895" lon="13.154916">
 <ele>449.27</ele>
 <time>2011-10-31T09:21:15Z</time>
 </trkpt>
 <trkpt lat="47.634979" lon="13.155077">
 <ele>449.40</ele>
 <time>2011-10-31T09:21:19Z</time>
 </trkpt>
 <trkpt lat="47.635181" lon="13.155150">
 <ele>449.44</ele>
 <time>2011-10-31T09:21:21Z</time>
 </trkpt>
 <trkpt lat="47.635658" lon="13.155218">
 <ele>449.31</ele>
 <time>2011-10-31T09:21:29Z</time>
 </trkpt>
 <trkpt lat="47.636208" lon="13.155281">
 <ele>449.33</ele>
 <time>2011-10-31T09:21:38Z</time>
 </trkpt>
 <trkpt lat="47.636757" lon="13.155326">
 <ele>449.25</ele>
 <time>2011-10-31T09:21:47Z</time>
 </trkpt>
 <trkpt lat="47.637413" lon="13.155329">
 <ele>449.66</ele>
 <time>2011-10-31T09:21:58Z</time>
 </trkpt>
 <trkpt lat="47.637810" lon="13.155242">
 <ele>449.82</ele>
 <time>2011-10-31T09:22:05Z</time>
 </trkpt>
 <trkpt lat="47.638168" lon="13.154978">
 <ele>450.41</ele>
 <time>2011-10-31T09:22:12Z</time>
 </trkpt>
 <trkpt lat="47.638550" lon="13.154610">
 <ele>450.86</ele>
 <time>2011-10-31T09:22:20Z</time>
 </trkpt>
 <trkpt lat="47.639008" lon="13.154194">
 <ele>451.32</ele>
 <time>2011-10-31T09:22:30Z</time>
 </trkpt>
 <trkpt lat="47.639492" lon="13.153768">
 <ele>452.79</ele>
 <time>2011-10-31T09:22:41Z</time>
 </trkpt>
 <trkpt lat="47.639973" lon="13.153369">
 <ele>454.01</ele>
 <time>2011-10-31T09:22:52Z</time>
 </trkpt>
 <trkpt lat="47.640324" lon="13.153065">
 <ele>454.45</ele>
 <time>2011-10-31T09:23:00Z</time>
 </trkpt>
 <trkpt lat="47.640762" lon="13.152674">
 <ele>455.09</ele>
 <time>2011-10-31T09:23:10Z</time>
 </trkpt>
 <trkpt lat="47.641247" lon="13.152258">
 <ele>456.17</ele>
 <time>2011-10-31T09:23:21Z</time>
 </trkpt>
 <trkpt lat="47.641720" lon="13.151851">
 <ele>456.75</ele>
 <time>2011-10-31T09:23:32Z</time>
 </trkpt>
 <trkpt lat="47.642155" lon="13.151478">
 <ele>457.58</ele>
 <time>2011-10-31T09:23:42Z</time>
 </trkpt>
 <trkpt lat="47.642635" lon="13.151063">
 <ele>458.07</ele>
 <time>2011-10-31T09:23:53Z</time>
 </trkpt>
 <trkpt lat="47.643078" lon="13.150683">
 <ele>458.91</ele>
 <time>2011-10-31T09:24:03Z</time>
 </trkpt>
 <trkpt lat="47.643555" lon="13.150272">
 <ele>459.88</ele>
 <time>2011-10-31T09:24:14Z</time>
 </trkpt>
 <trkpt lat="47.643986" lon="13.149890">
 <ele>460.48</ele>
 <time>2011-10-31T09:24:24Z</time>
 </trkpt>
 <trkpt lat="47.644417" lon="13.149504">
 <ele>461.06</ele>
 <time>2011-10-31T09:24:34Z</time>
 </trkpt>
 <trkpt lat="47.644905" lon="13.149070">
 <ele>461.40</ele>
 <time>2011-10-31T09:24:45Z</time>
 </trkpt>
 <trkpt lat="47.645439" lon="13.148595">
 <ele>462.70</ele>
 <time>2011-10-31T09:24:57Z</time>
 </trkpt>
 <trkpt lat="47.645878" lon="13.148209">
 <ele>463.52</ele>
 <time>2011-10-31T09:25:07Z</time>
 </trkpt>
 <trkpt lat="47.646439" lon="13.147711">
 <ele>464.46</ele>
 <time>2011-10-31T09:25:20Z</time>
 </trkpt>
 <trkpt lat="47.646858" lon="13.147340">
 <ele>465.30</ele>
 <time>2011-10-31T09:25:30Z</time>
 </trkpt>
 <trkpt lat="47.647278" lon="13.146993">
 <ele>466.35</ele>
 <time>2011-10-31T09:25:40Z</time>
 </trkpt>
 <trkpt lat="47.647610" lon="13.146735">
 <ele>467.51</ele>
 <time>2011-10-31T09:25:48Z</time>
 </trkpt>
 <trkpt lat="47.647991" lon="13.146436">
 <ele>468.94</ele>
 <time>2011-10-31T09:25:58Z</time>
 </trkpt>
 <trkpt lat="47.648239" lon="13.146271">
 <ele>469.44</ele>
 <time>2011-10-31T09:26:04Z</time>
 </trkpt>
 <trkpt lat="47.648434" lon="13.146206">
 <ele>469.70</ele>
 <time>2011-10-31T09:26:08Z</time>
 </trkpt>
 <trkpt lat="47.648468" lon="13.146236">
 <ele>469.68</ele>
 <time>2011-10-31T09:26:09Z</time>
 </trkpt>
 <trkpt lat="47.648811" lon="13.146523">
 <ele>469.61</ele>
 <time>2011-10-31T09:26:17Z</time>
 </trkpt>
 <trkpt lat="47.649147" lon="13.146806">
 <ele>470.21</ele>
 <time>2011-10-31T09:26:26Z</time>
 </trkpt>
 <trkpt lat="47.649502" lon="13.147108">
 <ele>470.79</ele>
 <time>2011-10-31T09:26:35Z</time>
 </trkpt>
 <trkpt lat="47.649799" lon="13.147408">
 <ele>471.31</ele>
 <time>2011-10-31T09:26:43Z</time>
 </trkpt>
 <trkpt lat="47.650234" lon="13.147657">
 <ele>472.31</ele>
 <time>2011-10-31T09:26:53Z</time>
 </trkpt>
 <trkpt lat="47.650608" lon="13.147951">
 <ele>472.30</ele>
 <time>2011-10-31T09:27:02Z</time>
 </trkpt>
 <trkpt lat="47.650951" lon="13.148071">
 <ele>473.29</ele>
 <time>2011-10-31T09:27:10Z</time>
 </trkpt>
 <trkpt lat="47.651192" lon="13.148094">
 <ele>473.64</ele>
 <time>2011-10-31T09:27:15Z</time>
 </trkpt>
 <trkpt lat="47.651672" lon="13.148055">
 <ele>474.09</ele>
 <time>2011-10-31T09:27:25Z</time>
 </trkpt>
 <trkpt lat="47.651867" lon="13.148062">
 <ele>473.81</ele>
 <time>2011-10-31T09:27:29Z</time>
 </trkpt>
 <trkpt lat="47.652252" lon="13.148176">
 <ele>474.47</ele>
 <time>2011-10-31T09:27:37Z</time>
 </trkpt>
 <trkpt lat="47.652641" lon="13.148279">
 <ele>475.39</ele>
 <time>2011-10-31T09:27:45Z</time>
 </trkpt>
 <trkpt lat="47.653095" lon="13.148333">
 <ele>475.80</ele>
 <time>2011-10-31T09:27:54Z</time>
 </trkpt>
 <trkpt lat="47.653500" lon="13.148538">
 <ele>476.82</ele>
 <time>2011-10-31T09:28:03Z</time>
 </trkpt>
 <trkpt lat="47.653931" lon="13.148760">
 <ele>477.77</ele>
 <time>2011-10-31T09:28:13Z</time>
 </trkpt>
 <trkpt lat="47.654015" lon="13.148790">
 <ele>477.95</ele>
 <time>2011-10-31T09:28:15Z</time>
 </trkpt>
 <trkpt lat="47.654320" lon="13.148790">
 <ele>477.52</ele>
 <time>2011-10-31T09:28:21Z</time>
 </trkpt>
 <trkpt lat="47.654480" lon="13.148971">
 <ele>476.23</ele>
 <time>2011-10-31T09:28:24Z</time>
 </trkpt>
 <trkpt lat="47.654522" lon="13.149063">
 <ele>475.74</ele>
 <time>2011-10-31T09:28:25Z</time>
 </trkpt>
 <trkpt lat="47.654655" lon="13.149370">
 <ele>473.62</ele>
 <time>2011-10-31T09:28:28Z</time>
 </trkpt>
 <trkpt lat="47.654961" lon="13.149876">
 <ele>469.88</ele>
 <time>2011-10-31T09:28:33Z</time>
 </trkpt>
 <trkpt lat="47.655270" lon="13.150654">
 <ele>466.90</ele>
 <time>2011-10-31T09:28:39Z</time>
 </trkpt>
 <trkpt lat="47.655479" lon="13.151199">
 <ele>466.67</ele>
 <time>2011-10-31T09:28:44Z</time>
 </trkpt>
 <trkpt lat="47.655643" lon="13.151385">
 <ele>467.00</ele>
 <time>2011-10-31T09:28:47Z</time>
 </trkpt>
 <trkpt lat="47.655739" lon="13.151481">
 <ele>467.36</ele>
 <time>2011-10-31T09:28:49Z</time>
 </trkpt>
 <trkpt lat="47.655975" lon="13.151681">
 <ele>468.53</ele>
 <time>2011-10-31T09:28:54Z</time>
 </trkpt>
 <trkpt lat="47.656239" lon="13.151812">
 <ele>468.90</ele>
 <time>2011-10-31T09:28:59Z</time>
 </trkpt>
 <trkpt lat="47.656403" lon="13.151894">
 <ele>468.67</ele>
 <time>2011-10-31T09:29:02Z</time>
 </trkpt>
 <trkpt lat="47.656567" lon="13.151975">
 <ele>468.39</ele>
 <time>2011-10-31T09:29:05Z</time>
 </trkpt>
 <trkpt lat="47.656712" lon="13.152046">
 <ele>468.56</ele>
 <time>2011-10-31T09:29:08Z</time>
 </trkpt>
 <trkpt lat="47.656998" lon="13.152178">
 <ele>469.42</ele>
 <time>2011-10-31T09:29:14Z</time>
 </trkpt>
 <trkpt lat="47.657249" lon="13.152325">
 <ele>469.76</ele>
 <time>2011-10-31T09:29:20Z</time>
 </trkpt>
 <trkpt lat="47.657509" lon="13.152583">
 <ele>469.76</ele>
 <time>2011-10-31T09:29:26Z</time>
 </trkpt>
 <trkpt lat="47.657555" lon="13.152629">
 <ele>469.70</ele>
 <time>2011-10-31T09:29:27Z</time>
 </trkpt>
 <trkpt lat="47.657639" lon="13.152715">
 <ele>469.74</ele>
 <time>2011-10-31T09:29:29Z</time>
 </trkpt>
 <trkpt lat="47.657936" lon="13.153012">
 <ele>469.81</ele>
 <time>2011-10-31T09:29:35Z</time>
 </trkpt>
 <trkpt lat="47.658272" lon="13.153348">
 <ele>469.92</ele>
 <time>2011-10-31T09:29:42Z</time>
 </trkpt>
 <trkpt lat="47.658504" lon="13.153580">
 <ele>470.57</ele>
 <time>2011-10-31T09:29:47Z</time>
 </trkpt>
 <trkpt lat="47.658737" lon="13.153814">
 <ele>471.41</ele>
 <time>2011-10-31T09:29:52Z</time>
 </trkpt>
 <trkpt lat="47.658905" lon="13.153980">
 <ele>471.85</ele>
 <time>2011-10-31T09:29:56Z</time>
 </trkpt>
 <trkpt lat="47.659149" lon="13.154225">
 <ele>473.32</ele>
 <time>2011-10-31T09:30:03Z</time>
 </trkpt>
 <trkpt lat="47.659340" lon="13.154414">
 <ele>475.21</ele>
 <time>2011-10-31T09:30:09Z</time>
 </trkpt>
 <trkpt lat="47.659527" lon="13.154574">
 <ele>477.26</ele>
 <time>2011-10-31T09:30:16Z</time>
 </trkpt>
 <trkpt lat="47.659641" lon="13.154674">
 <ele>478.48</ele>
 <time>2011-10-31T09:30:21Z</time>
 </trkpt>
 <trkpt lat="47.659847" lon="13.154848">
 <ele>479.47</ele>
 <time>2011-10-31T09:30:28Z</time>
 </trkpt>
 <trkpt lat="47.660007" lon="13.154983">
 <ele>480.33</ele>
 <time>2011-10-31T09:30:34Z</time>
 </trkpt>
 <trkpt lat="47.660141" lon="13.155111">
 <ele>481.03</ele>
 <time>2011-10-31T09:30:40Z</time>
 </trkpt>
 <trkpt lat="47.660347" lon="13.155322">
 <ele>482.54</ele>
 <time>2011-10-31T09:30:49Z</time>
 </trkpt>
 <trkpt lat="47.660469" lon="13.155449">
 <ele>483.19</ele>
 <time>2011-10-31T09:30:54Z</time>
 </trkpt>
 <trkpt lat="47.660637" lon="13.155618">
 <ele>483.47</ele>
 <time>2011-10-31T09:31:00Z</time>
 </trkpt>
 <trkpt lat="47.660923" lon="13.155912">
 <ele>483.41</ele>
 <time>2011-10-31T09:31:08Z</time>
 </trkpt>
 <trkpt lat="47.661030" lon="13.156018">
 <ele>483.52</ele>
 <time>2011-10-31T09:31:11Z</time>
 </trkpt>
 <trkpt lat="47.661255" lon="13.156246">
 <ele>483.66</ele>
 <time>2011-10-31T09:31:17Z</time>
 </trkpt>
 <trkpt lat="47.661583" lon="13.156422">
 <ele>484.09</ele>
 <time>2011-10-31T09:31:25Z</time>
 </trkpt>
 <trkpt lat="47.661751" lon="13.156465">
 <ele>484.23</ele>
 <time>2011-10-31T09:31:29Z</time>
 </trkpt>
 <trkpt lat="47.661980" lon="13.156487">
 <ele>484.53</ele>
 <time>2011-10-31T09:31:34Z</time>
 </trkpt>
 <trkpt lat="47.662025" lon="13.156483">
 <ele>484.52</ele>
 <time>2011-10-31T09:31:35Z</time>
 </trkpt>
 <trkpt lat="47.662174" lon="13.156413">
 <ele>484.56</ele>
 <time>2011-10-31T09:31:37Z</time>
 </trkpt>
 <trkpt lat="47.662167" lon="13.156051">
 <ele>484.67</ele>
 <time>2011-10-31T09:31:41Z</time>
 </trkpt>
 <trkpt lat="47.662106" lon="13.155831">
 <ele>485.03</ele>
 <time>2011-10-31T09:31:45Z</time>
 </trkpt>
 <trkpt lat="47.662060" lon="13.155513">
 <ele>486.76</ele>
 <time>2011-10-31T09:31:52Z</time>
 </trkpt>
 <trkpt lat="47.662060" lon="13.155170">
 <ele>488.22</ele>
 <time>2011-10-31T09:32:00Z</time>
 </trkpt>
 <trkpt lat="47.662060" lon="13.154834">
 <ele>489.50</ele>
 <time>2011-10-31T09:32:08Z</time>
 </trkpt>
 <trkpt lat="47.662060" lon="13.154501">
 <ele>490.96</ele>
 <time>2011-10-31T09:32:16Z</time>
 </trkpt>
 <trkpt lat="47.662060" lon="13.154170">
 <ele>491.51</ele>
 <time>2011-10-31T09:32:24Z</time>
 </trkpt>
 <trkpt lat="47.662029" lon="13.153978">
 <ele>491.21</ele>
 <time>2011-10-31T09:32:29Z</time>
 </trkpt>
 <trkpt lat="47.661953" lon="13.153811">
 <ele>490.92</ele>
 <time>2011-10-31T09:32:33Z</time>
 </trkpt>
 <trkpt lat="47.661873" lon="13.153740">
 <ele>491.02</ele>
 <time>2011-10-31T09:32:36Z</time>
 </trkpt>
 <trkpt lat="47.661785" lon="13.153814">
 <ele>491.39</ele>
 <time>2011-10-31T09:32:41Z</time>
 </trkpt>
 <trkpt lat="47.661800" lon="13.154311">
 <ele>492.58</ele>
 <time>2011-10-31T09:32:52Z</time>
 </trkpt>
 <trkpt lat="47.661827" lon="13.154718">
 <ele>492.91</ele>
 <time>2011-10-31T09:33:01Z</time>
 </trkpt>
 <trkpt lat="47.661880" lon="13.155242">
 <ele>493.80</ele>
 <time>2011-10-31T09:33:12Z</time>
 </trkpt>
 <trkpt lat="47.661919" lon="13.155798">
 <ele>494.91</ele>
 <time>2011-10-31T09:33:23Z</time>
 </trkpt>
 <trkpt lat="47.661922" lon="13.156295">
 <ele>495.85</ele>
 <time>2011-10-31T09:33:33Z</time>
 </trkpt>
 <trkpt lat="47.661911" lon="13.156581">
 <ele>496.90</ele>
 <time>2011-10-31T09:33:39Z</time>
 </trkpt>
 <trkpt lat="47.661774" lon="13.156803">
 <ele>497.08</ele>
 <time>2011-10-31T09:33:45Z</time>
 </trkpt>
 <trkpt lat="47.661739" lon="13.156858">
 <ele>497.40</ele>
 <time>2011-10-31T09:33:51Z</time>
 </trkpt>
 <trkpt lat="47.661350" lon="13.156888">
 <ele>498.29</ele>
 <time>2011-10-31T09:33:58Z</time>
 </trkpt>
 <trkpt lat="47.661095" lon="13.156729">
 <ele>498.98</ele>
 <time>2011-10-31T09:34:06Z</time>
 </trkpt>
 <trkpt lat="47.660683" lon="13.156391">
 <ele>499.98</ele>
 <time>2011-10-31T09:34:20Z</time>
 </trkpt>
 <trkpt lat="47.660423" lon="13.156223">
 <ele>500.70</ele>
 <time>2011-10-31T09:34:29Z</time>
 </trkpt>
 <trkpt lat="47.660267" lon="13.156185">
 <ele>501.73</ele>
 <time>2011-10-31T09:34:35Z</time>
 </trkpt>
 <trkpt lat="47.660137" lon="13.156335">
 <ele>502.29</ele>
 <time>2011-10-31T09:34:40Z</time>
 </trkpt>
 <trkpt lat="47.660103" lon="13.156522">
 <ele>502.69</ele>
 <time>2011-10-31T09:34:45Z</time>
 </trkpt>
 <trkpt lat="47.660137" lon="13.156732">
 <ele>503.02</ele>
 <time>2011-10-31T09:34:51Z</time>
 </trkpt>
 <trkpt lat="47.660236" lon="13.156901">
 <ele>503.43</ele>
 <time>2011-10-31T09:34:56Z</time>
 </trkpt>
 <trkpt lat="47.660458" lon="13.157066">
 <ele>504.59</ele>
 <time>2011-10-31T09:35:05Z</time>
 </trkpt>
 <trkpt lat="47.660645" lon="13.157148">
 <ele>506.13</ele>
 <time>2011-10-31T09:35:13Z</time>
 </trkpt>
 <trkpt lat="47.660828" lon="13.157214">
 <ele>508.00</ele>
 <time>2011-10-31T09:35:22Z</time>
 </trkpt>
 <trkpt lat="47.660973" lon="13.157269">
 <ele>509.89</ele>
 <time>2011-10-31T09:35:30Z</time>
 </trkpt>
 <trkpt lat="47.661102" lon="13.157342">
 <ele>511.65</ele>
 <time>2011-10-31T09:35:38Z</time>
 </trkpt>
 <trkpt lat="47.661209" lon="13.157402">
 <ele>513.09</ele>
 <time>2011-10-31T09:35:45Z</time>
 </trkpt>
 <trkpt lat="47.661388" lon="13.157502">
 <ele>515.15</ele>
 <time>2011-10-31T09:35:56Z</time>
 </trkpt>
 <trkpt lat="47.661530" lon="13.157581">
 <ele>516.69</ele>
 <time>2011-10-31T09:36:05Z</time>
 </trkpt>
 <trkpt lat="47.661678" lon="13.157664">
 <ele>518.79</ele>
 <time>2011-10-31T09:36:15Z</time>
 </trkpt>
 <trkpt lat="47.661842" lon="13.157756">
 <ele>520.62</ele>
 <time>2011-10-31T09:36:26Z</time>
 </trkpt>
 <trkpt lat="47.662033" lon="13.157884">
 <ele>523.12</ele>
 <time>2011-10-31T09:36:39Z</time>
 </trkpt>
 <trkpt lat="47.662186" lon="13.157988">
 <ele>524.93</ele>
 <time>2011-10-31T09:36:49Z</time>
 </trkpt>
 <trkpt lat="47.662338" lon="13.158089">
 <ele>526.71</ele>
 <time>2011-10-31T09:36:59Z</time>
 </trkpt>
 <trkpt lat="47.662498" lon="13.158197">
 <ele>528.59</ele>
 <time>2011-10-31T09:37:10Z</time>
 </trkpt>
 <trkpt lat="47.662628" lon="13.158286">
 <ele>530.58</ele>
 <time>2011-10-31T09:37:19Z</time>
 </trkpt>
 <trkpt lat="47.662796" lon="13.158398">
 <ele>532.70</ele>
 <time>2011-10-31T09:37:31Z</time>
 </trkpt>
 <trkpt lat="47.662960" lon="13.158509">
 <ele>534.85</ele>
 <time>2011-10-31T09:37:43Z</time>
 </trkpt>
 <trkpt lat="47.663094" lon="13.158634">
 <ele>536.90</ele>
 <time>2011-10-31T09:37:52Z</time>
 </trkpt>
 <trkpt lat="47.663219" lon="13.158753">
 <ele>538.47</ele>
 <time>2011-10-31T09:38:01Z</time>
 </trkpt>
 <trkpt lat="47.663361" lon="13.158884">
 <ele>540.25</ele>
 <time>2011-10-31T09:38:11Z</time>
 </trkpt>
 <trkpt lat="47.663490" lon="13.159005">
 <ele>541.88</ele>
 <time>2011-10-31T09:38:20Z</time>
 </trkpt>
 <trkpt lat="47.663601" lon="13.159111">
 <ele>543.47</ele>
 <time>2011-10-31T09:38:29Z</time>
 </trkpt>
 <trkpt lat="47.663738" lon="13.159273">
 <ele>545.62</ele>
 <time>2011-10-31T09:38:40Z</time>
 </trkpt>
 <trkpt lat="47.663887" lon="13.159491">
 <ele>547.81</ele>
 <time>2011-10-31T09:38:51Z</time>
 </trkpt>
 <trkpt lat="47.664017" lon="13.159677">
 <ele>549.47</ele>
 <time>2011-10-31T09:39:01Z</time>
 </trkpt>
 <trkpt lat="47.664158" lon="13.159905">
 <ele>551.85</ele>
 <time>2011-10-31T09:39:14Z</time>
 </trkpt>
 <trkpt lat="47.664230" lon="13.160102">
 <ele>553.50</ele>
 <time>2011-10-31T09:39:23Z</time>
 </trkpt>
 <trkpt lat="47.664303" lon="13.160290">
 <ele>555.01</ele>
 <time>2011-10-31T09:39:32Z</time>
 </trkpt>
 <trkpt lat="47.664371" lon="13.160481">
 <ele>556.53</ele>
 <time>2011-10-31T09:39:41Z</time>
 </trkpt>
 <trkpt lat="47.664440" lon="13.160755">
 <ele>558.70</ele>
 <time>2011-10-31T09:39:53Z</time>
 </trkpt>
 <trkpt lat="47.664471" lon="13.160969">
 <ele>560.17</ele>
 <time>2011-10-31T09:40:02Z</time>
 </trkpt>
 <trkpt lat="47.664501" lon="13.161205">
 <ele>562.03</ele>
 <time>2011-10-31T09:40:12Z</time>
 </trkpt>
 <trkpt lat="47.664528" lon="13.161386">
 <ele>563.34</ele>
 <time>2011-10-31T09:40:20Z</time>
 </trkpt>
 <trkpt lat="47.664532" lon="13.161594">
 <ele>564.79</ele>
 <time>2011-10-31T09:40:29Z</time>
 </trkpt>
 <trkpt lat="47.664536" lon="13.161772">
 <ele>566.21</ele>
 <time>2011-10-31T09:40:36Z</time>
 </trkpt>
 <trkpt lat="47.664539" lon="13.161993">
 <ele>567.99</ele>
 <time>2011-10-31T09:40:46Z</time>
 </trkpt>
 <trkpt lat="47.664547" lon="13.162246">
 <ele>569.99</ele>
 <time>2011-10-31T09:40:57Z</time>
 </trkpt>
 <trkpt lat="47.664528" lon="13.162475">
 <ele>571.85</ele>
 <time>2011-10-31T09:41:07Z</time>
 </trkpt>
 <trkpt lat="47.664482" lon="13.162701">
 <ele>573.80</ele>
 <time>2011-10-31T09:41:17Z</time>
 </trkpt>
 <trkpt lat="47.664417" lon="13.163012">
 <ele>575.74</ele>
 <time>2011-10-31T09:41:30Z</time>
 </trkpt>
 <trkpt lat="47.664371" lon="13.163242">
 <ele>577.78</ele>
 <time>2011-10-31T09:41:40Z</time>
 </trkpt>
 <trkpt lat="47.664322" lon="13.163466">
 <ele>579.42</ele>
 <time>2011-10-31T09:41:50Z</time>
 </trkpt>
 <trkpt lat="47.664246" lon="13.163680">
 <ele>581.30</ele>
 <time>2011-10-31T09:42:00Z</time>
 </trkpt>
 <trkpt lat="47.664158" lon="13.163932">
 <ele>583.05</ele>
 <time>2011-10-31T09:42:12Z</time>
 </trkpt>
 <trkpt lat="47.664070" lon="13.164180">
 <ele>585.43</ele>
 <time>2011-10-31T09:42:24Z</time>
 </trkpt>
 <trkpt lat="47.663971" lon="13.164428">
 <ele>587.27</ele>
 <time>2011-10-31T09:42:36Z</time>
 </trkpt>
 <trkpt lat="47.663845" lon="13.164670">
 <ele>589.83</ele>
 <time>2011-10-31T09:42:49Z</time>
 </trkpt>
 <trkpt lat="47.663750" lon="13.164854">
 <ele>591.55</ele>
 <time>2011-10-31T09:42:59Z</time>
 </trkpt>
 <trkpt lat="47.663643" lon="13.165057">
 <ele>593.55</ele>
 <time>2011-10-31T09:43:10Z</time>
 </trkpt>
 <trkpt lat="47.663555" lon="13.165228">
 <ele>595.18</ele>
 <time>2011-10-31T09:43:19Z</time>
 </trkpt>
 <trkpt lat="47.663460" lon="13.165409">
 <ele>596.80</ele>
 <time>2011-10-31T09:43:29Z</time>
 </trkpt>
 <trkpt lat="47.663364" lon="13.165595">
 <ele>598.65</ele>
 <time>2011-10-31T09:43:39Z</time>
 </trkpt>
 <trkpt lat="47.663269" lon="13.165778">
 <ele>600.40</ele>
 <time>2011-10-31T09:43:49Z</time>
 </trkpt>
 <trkpt lat="47.663193" lon="13.165920">
 <ele>601.72</ele>
 <time>2011-10-31T09:43:57Z</time>
 </trkpt>
 <trkpt lat="47.663101" lon="13.166076">
 <ele>603.24</ele>
 <time>2011-10-31T09:44:06Z</time>
 </trkpt>
 <trkpt lat="47.663002" lon="13.166237">
 <ele>604.77</ele>
 <time>2011-10-31T09:44:15Z</time>
 </trkpt>
 <trkpt lat="47.662907" lon="13.166397">
 <ele>606.32</ele>
 <time>2011-10-31T09:44:24Z</time>
 </trkpt>
 <trkpt lat="47.662815" lon="13.166550">
 <ele>607.78</ele>
 <time>2011-10-31T09:44:33Z</time>
 </trkpt>
 <trkpt lat="47.662731" lon="13.166687">
 <ele>609.04</ele>
 <time>2011-10-31T09:44:41Z</time>
 </trkpt>
 <trkpt lat="47.662617" lon="13.166875">
 <ele>610.94</ele>
 <time>2011-10-31T09:44:52Z</time>
 </trkpt>
 <trkpt lat="47.662514" lon="13.167050">
 <ele>612.66</ele>
 <time>2011-10-31T09:45:02Z</time>
 </trkpt>
 <trkpt lat="47.662418" lon="13.167207">
 <ele>614.18</ele>
 <time>2011-10-31T09:45:11Z</time>
 </trkpt>
 <trkpt lat="47.662300" lon="13.167399">
 <ele>616.31</ele>
 <time>2011-10-31T09:45:22Z</time>
 </trkpt>
 <trkpt lat="47.662182" lon="13.167595">
 <ele>617.91</ele>
 <time>2011-10-31T09:45:33Z</time>
 </trkpt>
 <trkpt lat="47.662056" lon="13.167760">
 <ele>619.35</ele>
 <time>2011-10-31T09:45:43Z</time>
 </trkpt>
 <trkpt lat="47.661945" lon="13.167908">
 <ele>620.70</ele>
 <time>2011-10-31T09:45:52Z</time>
 </trkpt>
 <trkpt lat="47.661777" lon="13.168128">
 <ele>621.76</ele>
 <time>2011-10-31T09:46:05Z</time>
 </trkpt>
 <trkpt lat="47.661648" lon="13.168297">
 <ele>622.93</ele>
 <time>2011-10-31T09:46:15Z</time>
 </trkpt>
 <trkpt lat="47.661495" lon="13.168473">
 <ele>624.05</ele>
 <time>2011-10-31T09:46:26Z</time>
 </trkpt>
 <trkpt lat="47.661343" lon="13.168621">
 <ele>626.19</ele>
 <time>2011-10-31T09:46:37Z</time>
 </trkpt>
 <trkpt lat="47.661205" lon="13.168753">
 <ele>627.74</ele>
 <time>2011-10-31T09:46:47Z</time>
 </trkpt>
 <trkpt lat="47.661060" lon="13.168894">
 <ele>629.51</ele>
 <time>2011-10-31T09:46:58Z</time>
 </trkpt>
 <trkpt lat="47.660915" lon="13.169038">
 <ele>631.61</ele>
 <time>2011-10-31T09:47:09Z</time>
 </trkpt>
 <trkpt lat="47.660770" lon="13.169179">
 <ele>633.43</ele>
 <time>2011-10-31T09:47:20Z</time>
 </trkpt>
 <trkpt lat="47.660645" lon="13.169324">
 <ele>635.31</ele>
 <time>2011-10-31T09:47:30Z</time>
 </trkpt>
 <trkpt lat="47.660519" lon="13.169475">
 <ele>637.11</ele>
 <time>2011-10-31T09:47:40Z</time>
 </trkpt>
 <trkpt lat="47.660435" lon="13.169579">
 <ele>638.12</ele>
 <time>2011-10-31T09:47:47Z</time>
 </trkpt>
 <trkpt lat="47.660332" lon="13.169702">
 <ele>639.23</ele>
 <time>2011-10-31T09:47:55Z</time>
 </trkpt>
 <trkpt lat="47.660233" lon="13.169911">
 <ele>640.61</ele>
 <time>2011-10-31T09:48:05Z</time>
 </trkpt>
 <trkpt lat="47.660126" lon="13.170129">
 <ele>641.86</ele>
 <time>2011-10-31T09:48:15Z</time>
 </trkpt>
 <trkpt lat="47.660053" lon="13.170267">
 <ele>642.48</ele>
 <time>2011-10-31T09:48:22Z</time>
 </trkpt>
 <trkpt lat="47.660019" lon="13.170362">
 <ele>642.88</ele>
 <time>2011-10-31T09:48:28Z</time>
 </trkpt>
 <trkpt lat="47.660011" lon="13.170385">
 <ele>643.03</ele>
 <time>2011-10-31T09:48:32Z</time>
 </trkpt>
 <trkpt lat="47.660099" lon="13.170496">
 <ele>642.20</ele>
 <time>2011-10-31T09:52:02Z</time>
 </trkpt>
 <trkpt lat="47.660103" lon="13.170518">
 <ele>642.25</ele>
 <time>2011-10-31T09:52:03Z</time>
 </trkpt>
 <trkpt lat="47.660126" lon="13.170631">
 <ele>641.99</ele>
 <time>2011-10-31T09:52:07Z</time>
 </trkpt>
 <trkpt lat="47.660076" lon="13.170842">
 <ele>642.03</ele>
 <time>2011-10-31T09:52:14Z</time>
 </trkpt>
 <trkpt lat="47.660057" lon="13.170900">
 <ele>642.36</ele>
 <time>2011-10-31T09:52:17Z</time>
 </trkpt>
 <trkpt lat="47.660019" lon="13.171019">
 <ele>642.82</ele>
 <time>2011-10-31T09:52:20Z</time>
 </trkpt>
 <trkpt lat="47.659649" lon="13.183024">
 <ele>689.48</ele>
 <time>2011-10-31T09:58:17Z</time>
 </trkpt>
 <trkpt lat="47.659641" lon="13.183054">
 <ele>689.73</ele>
 <time>2011-10-31T09:58:19Z</time>
 </trkpt>
 <trkpt lat="47.659584" lon="13.183274">
 <ele>690.68</ele>
 <time>2011-10-31T09:58:27Z</time>
 </trkpt>
 <trkpt lat="47.659508" lon="13.183458">
 <ele>691.37</ele>
 <time>2011-10-31T09:58:34Z</time>
 </trkpt>
 <trkpt lat="47.659401" lon="13.183691">
 <ele>692.29</ele>
 <time>2011-10-31T09:58:43Z</time>
 </trkpt>
 <trkpt lat="47.659302" lon="13.183905">
 <ele>693.26</ele>
 <time>2011-10-31T09:58:51Z</time>
 </trkpt>
 <trkpt lat="47.659187" lon="13.184153">
 <ele>693.86</ele>
 <time>2011-10-31T09:59:00Z</time>
 </trkpt>
 <trkpt lat="47.659065" lon="13.184412">
 <ele>694.61</ele>
 <time>2011-10-31T09:59:09Z</time>
 </trkpt>
 <trkpt lat="47.658939" lon="13.184674">
 <ele>695.18</ele>
 <time>2011-10-31T09:59:18Z</time>
 </trkpt>
 <trkpt lat="47.658794" lon="13.184966">
 <ele>696.39</ele>
 <time>2011-10-31T09:59:29Z</time>
 </trkpt>
 <trkpt lat="47.658672" lon="13.185217">
 <ele>697.62</ele>
 <time>2011-10-31T09:59:39Z</time>
 </trkpt>
 <trkpt lat="47.658546" lon="13.185467">
 <ele>699.17</ele>
 <time>2011-10-31T09:59:49Z</time>
 </trkpt>
 <trkpt lat="47.658447" lon="13.185659">
 <ele>700.36</ele>
 <time>2011-10-31T09:59:57Z</time>
 </trkpt>
 <trkpt lat="47.658356" lon="13.185892">
 <ele>701.76</ele>
 <time>2011-10-31T10:00:06Z</time>
 </trkpt>
 <trkpt lat="47.658306" lon="13.186160">
 <ele>703.94</ele>
 <time>2011-10-31T10:00:16Z</time>
 </trkpt>
 <trkpt lat="47.658318" lon="13.186460">
 <ele>705.56</ele>
 <time>2011-10-31T10:00:27Z</time>
 </trkpt>
 <trkpt lat="47.658340" lon="13.186766">
 <ele>707.39</ele>
 <time>2011-10-31T10:00:38Z</time>
 </trkpt>
 <trkpt lat="47.658371" lon="13.187035">
 <ele>709.24</ele>
 <time>2011-10-31T10:00:48Z</time>
 </trkpt>
 <trkpt lat="47.658375" lon="13.187325">
 <ele>711.16</ele>
 <time>2011-10-31T10:00:59Z</time>
 </trkpt>
 <trkpt lat="47.658333" lon="13.187604">
 <ele>712.74</ele>
 <time>2011-10-31T10:01:09Z</time>
 </trkpt>
 <trkpt lat="47.658203" lon="13.187861">
 <ele>714.16</ele>
 <time>2011-10-31T10:01:20Z</time>
 </trkpt>
 <trkpt lat="47.658054" lon="13.188096">
 <ele>715.63</ele>
 <time>2011-10-31T10:01:31Z</time>
 </trkpt>
 <trkpt lat="47.657906" lon="13.188289">
 <ele>717.07</ele>
 <time>2011-10-31T10:01:41Z</time>
 </trkpt>
 <trkpt lat="47.657738" lon="13.188507">
 <ele>718.22</ele>
 <time>2011-10-31T10:01:52Z</time>
 </trkpt>
 <trkpt lat="47.657585" lon="13.188709">
 <ele>719.22</ele>
 <time>2011-10-31T10:02:02Z</time>
 </trkpt>
 <trkpt lat="47.657440" lon="13.188896">
 <ele>720.39</ele>
 <time>2011-10-31T10:02:11Z</time>
 </trkpt>
 <trkpt lat="47.657307" lon="13.189085">
 <ele>721.33</ele>
 <time>2011-10-31T10:02:20Z</time>
 </trkpt>
 <trkpt lat="47.657146" lon="13.189312">
 <ele>722.69</ele>
 <time>2011-10-31T10:02:31Z</time>
 </trkpt>
 <trkpt lat="47.657001" lon="13.189516">
 <ele>723.72</ele>
 <time>2011-10-31T10:02:41Z</time>
 </trkpt>
 <trkpt lat="47.656837" lon="13.189745">
 <ele>725.61</ele>
 <time>2011-10-31T10:02:52Z</time>
 </trkpt>
 <trkpt lat="47.656734" lon="13.189997">
 <ele>726.51</ele>
 <time>2011-10-31T10:03:02Z</time>
 </trkpt>
 <trkpt lat="47.656670" lon="13.190232">
 <ele>727.92</ele>
 <time>2011-10-31T10:03:11Z</time>
 </trkpt>
 <trkpt lat="47.656620" lon="13.190425">
 <ele>729.16</ele>
 <time>2011-10-31T10:03:18Z</time>
 </trkpt>
 <trkpt lat="47.656624" lon="13.190697">
 <ele>730.43</ele>
 <time>2011-10-31T10:03:27Z</time>
 </trkpt>
 <trkpt lat="47.656662" lon="13.190969">
 <ele>731.78</ele>
 <time>2011-10-31T10:03:36Z</time>
 </trkpt>
 <trkpt lat="47.656723" lon="13.191246">
 <ele>732.60</ele>
 <time>2011-10-31T10:03:45Z</time>
 </trkpt>
 <trkpt lat="47.656784" lon="13.191513">
 <ele>733.76</ele>
 <time>2011-10-31T10:03:54Z</time>
 </trkpt>
 <trkpt lat="47.656853" lon="13.191788">
 <ele>734.68</ele>
 <time>2011-10-31T10:04:03Z</time>
 </trkpt>
 <trkpt lat="47.656929" lon="13.192107">
 <ele>736.05</ele>
 <time>2011-10-31T10:04:13Z</time>
 </trkpt>
 <trkpt lat="47.656883" lon="13.192436">
 <ele>737.24</ele>
 <time>2011-10-31T10:04:23Z</time>
 </trkpt>
 <trkpt lat="47.656815" lon="13.192695">
 <ele>737.05</ele>
 <time>2011-10-31T10:04:29Z</time>
 </trkpt>
 <trkpt lat="47.656776" lon="13.192789">
 <ele>736.87</ele>
 <time>2011-10-31T10:04:31Z</time>
 </trkpt>
 <trkpt lat="47.656624" lon="13.193206">
 <ele>736.04</ele>
 <time>2011-10-31T10:04:38Z</time>
 </trkpt>
 <trkpt lat="47.656452" lon="13.193740">
 <ele>735.17</ele>
 <time>2011-10-31T10:04:45Z</time>
 </trkpt>
 <trkpt lat="47.656372" lon="13.193977">
 <ele>734.68</ele>
 <time>2011-10-31T10:04:48Z</time>
 </trkpt>
 <trkpt lat="47.656174" lon="13.194460">
 <ele>733.65</ele>
 <time>2011-10-31T10:04:54Z</time>
 </trkpt>
 <trkpt lat="47.655792" lon="13.195214">
 <ele>731.79</ele>
 <time>2011-10-31T10:05:03Z</time>
 </trkpt>
 <trkpt lat="47.655441" lon="13.195899">
 <ele>730.49</ele>
 <time>2011-10-31T10:05:11Z</time>
 </trkpt>
 <trkpt lat="47.655212" lon="13.196349">
 <ele>730.54</ele>
 <time>2011-10-31T10:05:17Z</time>
 </trkpt>
 <trkpt lat="47.655041" lon="13.196618">
 <ele>731.35</ele>
 <time>2011-10-31T10:05:22Z</time>
 </trkpt>
 <trkpt lat="47.654903" lon="13.196816">
 <ele>732.17</ele>
 <time>2011-10-31T10:05:27Z</time>
 </trkpt>
 <trkpt lat="47.654778" lon="13.196999">
 <ele>732.78</ele>
 <time>2011-10-31T10:05:32Z</time>
 </trkpt>
 <trkpt lat="47.654602" lon="13.197296">
 <ele>734.06</ele>
 <time>2011-10-31T10:05:40Z</time>
 </trkpt>
 <trkpt lat="47.654430" lon="13.197615">
 <ele>735.59</ele>
 <time>2011-10-31T10:05:49Z</time>
 </trkpt>
 <trkpt lat="47.654331" lon="13.197811">
 <ele>737.03</ele>
 <time>2011-10-31T10:05:55Z</time>
 </trkpt>
 <trkpt lat="47.654213" lon="13.198048">
 <ele>738.33</ele>
 <time>2011-10-31T10:06:03Z</time>
 </trkpt>
 <trkpt lat="47.654114" lon="13.198240">
 <ele>739.45</ele>
 <time>2011-10-31T10:06:10Z</time>
 </trkpt>
 <trkpt lat="47.654018" lon="13.198433">
 <ele>740.98</ele>
 <time>2011-10-31T10:06:17Z</time>
 </trkpt>
 <trkpt lat="47.653900" lon="13.198672">
 <ele>742.27</ele>
 <time>2011-10-31T10:06:26Z</time>
 </trkpt>
 <trkpt lat="47.653809" lon="13.198957">
 <ele>744.16</ele>
 <time>2011-10-31T10:06:36Z</time>
 </trkpt>
 <trkpt lat="47.653721" lon="13.199237">
 <ele>745.68</ele>
 <time>2011-10-31T10:06:46Z</time>
 </trkpt>
 <trkpt lat="47.653645" lon="13.199575">
 <ele>746.91</ele>
 <time>2011-10-31T10:06:57Z</time>
 </trkpt>
 <trkpt lat="47.653606" lon="13.199928">
 <ele>748.05</ele>
 <time>2011-10-31T10:07:07Z</time>
 </trkpt>
 <trkpt lat="47.653645" lon="13.200233">
 <ele>748.77</ele>
 <time>2011-10-31T10:07:16Z</time>
 </trkpt>
 <trkpt lat="47.653690" lon="13.200447">
 <ele>749.43</ele>
 <time>2011-10-31T10:07:23Z</time>
 </trkpt>
 <trkpt lat="47.653744" lon="13.200699">
 <ele>750.74</ele>
 <time>2011-10-31T10:07:31Z</time>
 </trkpt>
 <trkpt lat="47.653801" lon="13.200975">
 <ele>751.66</ele>
 <time>2011-10-31T10:07:40Z</time>
 </trkpt>
 <trkpt lat="47.653847" lon="13.201280">
 <ele>752.88</ele>
 <time>2011-10-31T10:07:50Z</time>
 </trkpt>
 <trkpt lat="47.653870" lon="13.201714">
 <ele>754.72</ele>
 <time>2011-10-31T10:08:04Z</time>
 </trkpt>
 <trkpt lat="47.653885" lon="13.202026">
 <ele>755.87</ele>
 <time>2011-10-31T10:08:14Z</time>
 </trkpt>
 <trkpt lat="47.653843" lon="13.202299">
 <ele>757.61</ele>
 <time>2011-10-31T10:08:23Z</time>
 </trkpt>
 <trkpt lat="47.653793" lon="13.202603">
 <ele>758.28</ele>
 <time>2011-10-31T10:08:32Z</time>
 </trkpt>
 <trkpt lat="47.653717" lon="13.202907">
 <ele>758.91</ele>
 <time>2011-10-31T10:08:40Z</time>
 </trkpt>
 <trkpt lat="47.653599" lon="13.203336">
 <ele>759.29</ele>
 <time>2011-10-31T10:08:49Z</time>
 </trkpt>
 <trkpt lat="47.653389" lon="13.203872">
 <ele>759.32</ele>
 <time>2011-10-31T10:08:59Z</time>
 </trkpt>
 <trkpt lat="47.653126" lon="13.204378">
 <ele>759.02</ele>
 <time>2011-10-31T10:09:08Z</time>
 </trkpt>
 <trkpt lat="47.652901" lon="13.204817">
 <ele>758.51</ele>
 <time>2011-10-31T10:09:15Z</time>
 </trkpt>
 <trkpt lat="47.652634" lon="13.205283">
 <ele>758.14</ele>
 <time>2011-10-31T10:09:22Z</time>
 </trkpt>
 <trkpt lat="47.652275" lon="13.205650">
 <ele>757.51</ele>
 <time>2011-10-31T10:09:29Z</time>
 </trkpt>
 <trkpt lat="47.651890" lon="13.205920">
 <ele>757.05</ele>
 <time>2011-10-31T10:09:36Z</time>
 </trkpt>
 <trkpt lat="47.651581" lon="13.206217">
 <ele>756.22</ele>
 <time>2011-10-31T10:09:42Z</time>
 </trkpt>
 <trkpt lat="47.651527" lon="13.206273">
 <ele>755.96</ele>
 <time>2011-10-31T10:09:43Z</time>
 </trkpt>
 <trkpt lat="47.651127" lon="13.206788">
 <ele>753.57</ele>
 <time>2011-10-31T10:09:50Z</time>
 </trkpt>
 <trkpt lat="47.650723" lon="13.207331">
 <ele>750.98</ele>
 <time>2011-10-31T10:09:56Z</time>
 </trkpt>
 <trkpt lat="47.650440" lon="13.207712">
 <ele>748.98</ele>
 <time>2011-10-31T10:10:00Z</time>
 </trkpt>
 <trkpt lat="47.650021" lon="13.208034">
 <ele>746.21</ele>
 <time>2011-10-31T10:10:05Z</time>
 </trkpt>
 <trkpt lat="47.649555" lon="13.208354">
 <ele>743.79</ele>
 <time>2011-10-31T10:10:10Z</time>
 </trkpt>
 <trkpt lat="47.648861" lon="13.208487">
 <ele>739.35</ele>
 <time>2011-10-31T10:10:16Z</time>
 </trkpt>
 <trkpt lat="47.648678" lon="13.208497">
 <ele>738.04</ele>
 <time>2011-10-31T10:10:18Z</time>
 </trkpt>
 <trkpt lat="47.648411" lon="13.208539">
 <ele>736.45</ele>
 <time>2011-10-31T10:10:22Z</time>
 </trkpt>
 <trkpt lat="47.648346" lon="13.209003">
 <ele>735.80</ele>
 <time>2011-10-31T10:10:25Z</time>
 </trkpt>
 <trkpt lat="47.648495" lon="13.209092">
 <ele>735.50</ele>
 <time>2011-10-31T10:10:28Z</time>
 </trkpt>
 <trkpt lat="47.648602" lon="13.209110">
 <ele>735.31</ele>
 <time>2011-10-31T10:10:30Z</time>
 </trkpt>
 <trkpt lat="47.648914" lon="13.209173">
 <ele>734.98</ele>
 <time>2011-10-31T10:10:36Z</time>
 </trkpt>
 <trkpt lat="47.649029" lon="13.209208">
 <ele>734.89</ele>
 <time>2011-10-31T10:10:38Z</time>
 </trkpt>
 <trkpt lat="47.649208" lon="13.209265">
 <ele>734.85</ele>
 <time>2011-10-31T10:10:41Z</time>
 </trkpt>
 <trkpt lat="47.649387" lon="13.209320">
 <ele>734.64</ele>
 <time>2011-10-31T10:10:44Z</time>
 </trkpt>
 <trkpt lat="47.649826" lon="13.209466">
 <ele>734.52</ele>
 <time>2011-10-31T10:10:52Z</time>
 </trkpt>
 <trkpt lat="47.650219" lon="13.209644">
 <ele>734.76</ele>
 <time>2011-10-31T10:11:00Z</time>
 </trkpt>
 <trkpt lat="47.650532" lon="13.209790">
 <ele>735.17</ele>
 <time>2011-10-31T10:11:07Z</time>
 </trkpt>
 <trkpt lat="47.650822" lon="13.209948">
 <ele>735.45</ele>
 <time>2011-10-31T10:11:14Z</time>
 </trkpt>
 <trkpt lat="47.650856" lon="13.209983">
 <ele>735.47</ele>
 <time>2011-10-31T10:11:15Z</time>
 </trkpt>
 <trkpt lat="47.651028" lon="13.210266">
 <ele>735.73</ele>
 <time>2011-10-31T10:11:21Z</time>
 </trkpt>
 <trkpt lat="47.651051" lon="13.210548">
 <ele>735.55</ele>
 <time>2011-10-31T10:11:25Z</time>
 </trkpt>
 <trkpt lat="47.650925" lon="13.211198">
 <ele>734.90</ele>
 <time>2011-10-31T10:11:34Z</time>
 </trkpt>
 <trkpt lat="47.650898" lon="13.211615">
 <ele>734.69</ele>
 <time>2011-10-31T10:11:40Z</time>
 </trkpt>
 <trkpt lat="47.650887" lon="13.211812">
 <ele>734.67</ele>
 <time>2011-10-31T10:11:43Z</time>
 </trkpt>
 <trkpt lat="47.650917" lon="13.212226">
 <ele>734.60</ele>
 <time>2011-10-31T10:11:49Z</time>
 </trkpt>
 <trkpt lat="47.651112" lon="13.212568">
 <ele>734.19</ele>
 <time>2011-10-31T10:11:55Z</time>
 </trkpt>
 <trkpt lat="47.651440" lon="13.212936">
 <ele>732.84</ele>
 <time>2011-10-31T10:12:02Z</time>
 </trkpt>
 <trkpt lat="47.651489" lon="13.212994">
 <ele>732.62</ele>
 <time>2011-10-31T10:12:03Z</time>
 </trkpt>
 <trkpt lat="47.651676" lon="13.213322">
 <ele>731.31</ele>
 <time>2011-10-31T10:12:07Z</time>
 </trkpt>
 <trkpt lat="47.651665" lon="13.213644">
 <ele>730.29</ele>
 <time>2011-10-31T10:12:10Z</time>
 </trkpt>
 <trkpt lat="47.651634" lon="13.213866">
 <ele>729.64</ele>
 <time>2011-10-31T10:12:12Z</time>
 </trkpt>
 <trkpt lat="47.651508" lon="13.214165">
 <ele>728.54</ele>
 <time>2011-10-31T10:12:15Z</time>
 </trkpt>
 <trkpt lat="47.651161" lon="13.214759">
 <ele>725.94</ele>
 <time>2011-10-31T10:12:21Z</time>
 </trkpt>
 <trkpt lat="47.650726" lon="13.215389">
 <ele>722.12</ele>
 <time>2011-10-31T10:12:27Z</time>
 </trkpt>
 <trkpt lat="47.650410" lon="13.215841">
 <ele>719.13</ele>
 <time>2011-10-31T10:12:32Z</time>
 </trkpt>
 <trkpt lat="47.650093" lon="13.216283">
 <ele>716.57</ele>
 <time>2011-10-31T10:12:38Z</time>
 </trkpt>
 <trkpt lat="47.649849" lon="13.216656">
 <ele>714.61</ele>
 <time>2011-10-31T10:12:44Z</time>
 </trkpt>
 <trkpt lat="47.649773" lon="13.216772">
 <ele>713.25</ele>
 <time>2011-10-31T10:12:48Z</time>
 </trkpt>
 <trkpt lat="47.649723" lon="13.216853">
 <ele>712.57</ele>
 <time>2011-10-31T10:12:53Z</time>
 </trkpt>
 <trkpt lat="47.649357" lon="13.217116">
 <ele>712.23</ele>
 <time>2011-10-31T10:13:00Z</time>
 </trkpt>
 <trkpt lat="47.649059" lon="13.217328">
 <ele>712.62</ele>
 <time>2011-10-31T10:13:09Z</time>
 </trkpt>
 <trkpt lat="47.648846" lon="13.217482">
 <ele>713.60</ele>
 <time>2011-10-31T10:13:16Z</time>
 </trkpt>
 <trkpt lat="47.648727" lon="13.217566">
 <ele>714.10</ele>
 <time>2011-10-31T10:13:20Z</time>
 </trkpt>
 <trkpt lat="47.648487" lon="13.217734">
 <ele>714.83</ele>
 <time>2011-10-31T10:13:28Z</time>
 </trkpt>
 <trkpt lat="47.648289" lon="13.217864">
 <ele>715.43</ele>
 <time>2011-10-31T10:13:35Z</time>
 </trkpt>
 <trkpt lat="47.648075" lon="13.217998">
 <ele>716.34</ele>
 <time>2011-10-31T10:13:42Z</time>
 </trkpt>
 <trkpt lat="47.647881" lon="13.218092">
 <ele>717.01</ele>
 <time>2011-10-31T10:13:49Z</time>
 </trkpt>
 <trkpt lat="47.647697" lon="13.218180">
 <ele>717.54</ele>
 <time>2011-10-31T10:13:55Z</time>
 </trkpt>
 <trkpt lat="47.647511" lon="13.218276">
 <ele>718.19</ele>
 <time>2011-10-31T10:14:01Z</time>
 </trkpt>
 <trkpt lat="47.647293" lon="13.218410">
 <ele>719.21</ele>
 <time>2011-10-31T10:14:08Z</time>
 </trkpt>
 <trkpt lat="47.647182" lon="13.218479">
 <ele>720.00</ele>
 <time>2011-10-31T10:14:13Z</time>
 </trkpt>
 <trkpt lat="47.647060" lon="13.218578">
 <ele>720.67</ele>
 <time>2011-10-31T10:14:18Z</time>
 </trkpt>
 <trkpt lat="47.646915" lon="13.218755">
 <ele>721.64</ele>
 <time>2011-10-31T10:14:24Z</time>
 </trkpt>
 <trkpt lat="47.646778" lon="13.219049">
 <ele>722.48</ele>
 <time>2011-10-31T10:14:29Z</time>
 </trkpt>
 <trkpt lat="47.646725" lon="13.219341">
 <ele>723.50</ele>
 <time>2011-10-31T10:14:37Z</time>
 </trkpt>
 <trkpt lat="47.646660" lon="13.219632">
 <ele>724.42</ele>
 <time>2011-10-31T10:14:44Z</time>
 </trkpt>
 <trkpt lat="47.646622" lon="13.220004">
 <ele>725.62</ele>
 <time>2011-10-31T10:14:53Z</time>
 </trkpt>
 <trkpt lat="47.646603" lon="13.220184">
 <ele>726.77</ele>
 <time>2011-10-31T10:14:59Z</time>
 </trkpt>
 <trkpt lat="47.646584" lon="13.220421">
 <ele>727.84</ele>
 <time>2011-10-31T10:15:05Z</time>
 </trkpt>
 <trkpt lat="47.646568" lon="13.220644">
 <ele>728.48</ele>
 <time>2011-10-31T10:15:12Z</time>
 </trkpt>
 <trkpt lat="47.646557" lon="13.220833">
 <ele>729.38</ele>
 <time>2011-10-31T10:15:18Z</time>
 </trkpt>
 <trkpt lat="47.646545" lon="13.220980">
 <ele>730.15</ele>
 <time>2011-10-31T10:15:23Z</time>
 </trkpt>
 <trkpt lat="47.646545" lon="13.221014">
 <ele>730.30</ele>
 <time>2011-10-31T10:15:24Z</time>
 </trkpt>
 <trkpt lat="47.646519" lon="13.221397">
 <ele>731.49</ele>
 <time>2011-10-31T10:15:33Z</time>
 </trkpt>
 <trkpt lat="47.646507" lon="13.221580">
 <ele>731.91</ele>
 <time>2011-10-31T10:15:37Z</time>
 </trkpt>
 <trkpt lat="47.646503" lon="13.221804">
 <ele>732.58</ele>
 <time>2011-10-31T10:15:43Z</time>
 </trkpt>
 <trkpt lat="47.646503" lon="13.222079">
 <ele>733.25</ele>
 <time>2011-10-31T10:15:50Z</time>
 </trkpt>
 <trkpt lat="47.646503" lon="13.222389">
 <ele>733.74</ele>
 <time>2011-10-31T10:15:57Z</time>
 </trkpt>
 <trkpt lat="47.646488" lon="13.222759">
 <ele>734.29</ele>
 <time>2011-10-31T10:16:05Z</time>
 </trkpt>
 <trkpt lat="47.646461" lon="13.223057">
 <ele>734.77</ele>
 <time>2011-10-31T10:16:12Z</time>
 </trkpt>
 <trkpt lat="47.646351" lon="13.223483">
 <ele>735.79</ele>
 <time>2011-10-31T10:16:22Z</time>
 </trkpt>
 <trkpt lat="47.646236" lon="13.223809">
 <ele>737.17</ele>
 <time>2011-10-31T10:16:31Z</time>
 </trkpt>
 <trkpt lat="47.646160" lon="13.224040">
 <ele>738.62</ele>
 <time>2011-10-31T10:16:39Z</time>
 </trkpt>
 <trkpt lat="47.646137" lon="13.224294">
 <ele>740.13</ele>
 <time>2011-10-31T10:16:48Z</time>
 </trkpt>
 <trkpt lat="47.646118" lon="13.224514">
 <ele>741.77</ele>
 <time>2011-10-31T10:16:58Z</time>
 </trkpt>
 <trkpt lat="47.646183" lon="13.224708">
 <ele>743.66</ele>
 <time>2011-10-31T10:17:07Z</time>
 </trkpt>
 <trkpt lat="47.646271" lon="13.224801">
 <ele>745.40</ele>
 <time>2011-10-31T10:17:15Z</time>
 </trkpt>
 <trkpt lat="47.646404" lon="13.224862">
 <ele>746.87</ele>
 <time>2011-10-31T10:17:24Z</time>
 </trkpt>
 <trkpt lat="47.646557" lon="13.224894">
 <ele>748.56</ele>
 <time>2011-10-31T10:17:34Z</time>
 </trkpt>
 <trkpt lat="47.646729" lon="13.224917">
 <ele>750.36</ele>
 <time>2011-10-31T10:17:45Z</time>
 </trkpt>
 <trkpt lat="47.646896" lon="13.224958">
 <ele>751.53</ele>
 <time>2011-10-31T10:17:55Z</time>
 </trkpt>
 <trkpt lat="47.647030" lon="13.225023">
 <ele>752.55</ele>
 <time>2011-10-31T10:18:04Z</time>
 </trkpt>
 <trkpt lat="47.647106" lon="13.225144">
 <ele>753.20</ele>
 <time>2011-10-31T10:18:11Z</time>
 </trkpt>
 <trkpt lat="47.647106" lon="13.225293">
 <ele>754.10</ele>
 <time>2011-10-31T10:18:18Z</time>
 </trkpt>
 <trkpt lat="47.646984" lon="13.225489">
 <ele>755.85</ele>
 <time>2011-10-31T10:18:28Z</time>
 </trkpt>
 <trkpt lat="47.646851" lon="13.225642">
 <ele>757.64</ele>
 <time>2011-10-31T10:18:39Z</time>
 </trkpt>
 <trkpt lat="47.646740" lon="13.225788">
 <ele>759.64</ele>
 <time>2011-10-31T10:18:49Z</time>
 </trkpt>
 <trkpt lat="47.646648" lon="13.225911">
 <ele>761.11</ele>
 <time>2011-10-31T10:18:58Z</time>
 </trkpt>
 <trkpt lat="47.646564" lon="13.226023">
 <ele>762.89</ele>
 <time>2011-10-31T10:19:06Z</time>
 </trkpt>
 <trkpt lat="47.646488" lon="13.226125">
 <ele>764.09</ele>
 <time>2011-10-31T10:19:13Z</time>
 </trkpt>
 <trkpt lat="47.646404" lon="13.226242">
 <ele>765.70</ele>
 <time>2011-10-31T10:19:21Z</time>
 </trkpt>
 <trkpt lat="47.646305" lon="13.226382">
 <ele>767.50</ele>
 <time>2011-10-31T10:19:30Z</time>
 </trkpt>
 <trkpt lat="47.646217" lon="13.226531">
 <ele>768.94</ele>
 <time>2011-10-31T10:19:39Z</time>
 </trkpt>
 <trkpt lat="47.646099" lon="13.226726">
 <ele>770.24</ele>
 <time>2011-10-31T10:19:49Z</time>
 </trkpt>
 <trkpt lat="47.646015" lon="13.226867">
 <ele>771.53</ele>
 <time>2011-10-31T10:19:58Z</time>
 </trkpt>
 <trkpt lat="47.645943" lon="13.226990">
 <ele>772.85</ele>
 <time>2011-10-31T10:20:06Z</time>
 </trkpt>
 <trkpt lat="47.645870" lon="13.227152">
 <ele>774.07</ele>
 <time>2011-10-31T10:20:15Z</time>
 </trkpt>
 <trkpt lat="47.645790" lon="13.227314">
 <ele>775.53</ele>
 <time>2011-10-31T10:20:25Z</time>
 </trkpt>
 <trkpt lat="47.645725" lon="13.227518">
 <ele>776.86</ele>
 <time>2011-10-31T10:20:34Z</time>
 </trkpt>
 <trkpt lat="47.645664" lon="13.227692">
 <ele>778.08</ele>
 <time>2011-10-31T10:20:42Z</time>
 </trkpt>
 <trkpt lat="47.645603" lon="13.227884">
 <ele>779.15</ele>
 <time>2011-10-31T10:20:51Z</time>
 </trkpt>
 <trkpt lat="47.645546" lon="13.228055">
 <ele>780.54</ele>
 <time>2011-10-31T10:20:59Z</time>
 </trkpt>
 <trkpt lat="47.645473" lon="13.228255">
 <ele>781.66</ele>
 <time>2011-10-31T10:21:08Z</time>
 </trkpt>
 <trkpt lat="47.645420" lon="13.228413">
 <ele>782.98</ele>
 <time>2011-10-31T10:21:16Z</time>
 </trkpt>
 <trkpt lat="47.645340" lon="13.228585">
 <ele>784.38</ele>
 <time>2011-10-31T10:21:25Z</time>
 </trkpt>
 <trkpt lat="47.645264" lon="13.228708">
 <ele>785.24</ele>
 <time>2011-10-31T10:21:32Z</time>
 </trkpt>
 <trkpt lat="47.645172" lon="13.228853">
 <ele>786.95</ele>
 <time>2011-10-31T10:21:41Z</time>
 </trkpt>
 <trkpt lat="47.645069" lon="13.229024">
 <ele>788.65</ele>
 <time>2011-10-31T10:21:51Z</time>
 </trkpt>
 <trkpt lat="47.644989" lon="13.229195">
 <ele>789.92</ele>
 <time>2011-10-31T10:22:00Z</time>
 </trkpt>
 <trkpt lat="47.644905" lon="13.229392">
 <ele>791.03</ele>
 <time>2011-10-31T10:22:10Z</time>
 </trkpt>
 <trkpt lat="47.644840" lon="13.229590">
 <ele>792.15</ele>
 <time>2011-10-31T10:22:19Z</time>
 </trkpt>
 <trkpt lat="47.644787" lon="13.229805">
 <ele>793.78</ele>
 <time>2011-10-31T10:22:29Z</time>
 </trkpt>
 <trkpt lat="47.644726" lon="13.230027">
 <ele>796.15</ele>
 <time>2011-10-31T10:22:40Z</time>
 </trkpt>
 <trkpt lat="47.644676" lon="13.230209">
 <ele>797.52</ele>
 <time>2011-10-31T10:22:49Z</time>
 </trkpt>
 <trkpt lat="47.644634" lon="13.230431">
 <ele>799.82</ele>
 <time>2011-10-31T10:23:00Z</time>
 </trkpt>
 <trkpt lat="47.644596" lon="13.230617">
 <ele>801.30</ele>
 <time>2011-10-31T10:23:09Z</time>
 </trkpt>
 <trkpt lat="47.644531" lon="13.230779">
 <ele>802.61</ele>
 <time>2011-10-31T10:23:18Z</time>
 </trkpt>
 <trkpt lat="47.644440" lon="13.230939">
 <ele>804.22</ele>
 <time>2011-10-31T10:23:28Z</time>
 </trkpt>
 <trkpt lat="47.644356" lon="13.231086">
 <ele>805.78</ele>
 <time>2011-10-31T10:23:37Z</time>
 </trkpt>
 <trkpt lat="47.644306" lon="13.231196">
 <ele>807.34</ele>
 <time>2011-10-31T10:23:44Z</time>
 </trkpt>
 <trkpt lat="47.644363" lon="13.231261">
 <ele>807.94</ele>
 <time>2011-10-31T10:23:50Z</time>
 </trkpt>
 <trkpt lat="47.644386" lon="13.231271">
 <ele>808.01</ele>
 <time>2011-10-31T10:23:52Z</time>
 </trkpt>
 <trkpt lat="47.644436" lon="13.231293">
 <ele>808.61</ele>
 <time>2011-10-31T10:23:56Z</time>
 </trkpt>
 <trkpt lat="47.644562" lon="13.231272">
 <ele>810.15</ele>
 <time>2011-10-31T10:24:06Z</time>
 </trkpt>
 <trkpt lat="47.644714" lon="13.231177">
 <ele>812.27</ele>
 <time>2011-10-31T10:24:18Z</time>
 </trkpt>
 <trkpt lat="47.644863" lon="13.231086">
 <ele>813.53</ele>
 <time>2011-10-31T10:24:29Z</time>
 </trkpt>
 <trkpt lat="47.645000" lon="13.230996">
 <ele>815.27</ele>
 <time>2011-10-31T10:24:39Z</time>
 </trkpt>
 <trkpt lat="47.645149" lon="13.230897">
 <ele>817.02</ele>
 <time>2011-10-31T10:24:50Z</time>
 </trkpt>
 <trkpt lat="47.645279" lon="13.230806">
 <ele>818.56</ele>
 <time>2011-10-31T10:25:00Z</time>
 </trkpt>
 <trkpt lat="47.645397" lon="13.230699">
 <ele>820.13</ele>
 <time>2011-10-31T10:25:10Z</time>
 </trkpt>
 <trkpt lat="47.645508" lon="13.230602">
 <ele>821.07</ele>
 <time>2011-10-31T10:25:19Z</time>
 </trkpt>
 <trkpt lat="47.645630" lon="13.230491">
 <ele>822.65</ele>
 <time>2011-10-31T10:25:29Z</time>
 </trkpt>
 <trkpt lat="47.645760" lon="13.230362">
 <ele>824.20</ele>
 <time>2011-10-31T10:25:39Z</time>
 </trkpt>
 <trkpt lat="47.645882" lon="13.230232">
 <ele>825.91</ele>
 <time>2011-10-31T10:25:49Z</time>
 </trkpt>
 <trkpt lat="47.645958" lon="13.230152">
 <ele>826.75</ele>
 <time>2011-10-31T10:25:55Z</time>
 </trkpt>
 <trkpt lat="47.646118" lon="13.229984">
 <ele>828.22</ele>
 <time>2011-10-31T10:26:06Z</time>
 </trkpt>
 <trkpt lat="47.646271" lon="13.229821">
 <ele>829.49</ele>
 <time>2011-10-31T10:26:17Z</time>
 </trkpt>
 <trkpt lat="47.646408" lon="13.229679">
 <ele>830.43</ele>
 <time>2011-10-31T10:26:27Z</time>
 </trkpt>
 <trkpt lat="47.646545" lon="13.229542">
 <ele>831.51</ele>
 <time>2011-10-31T10:26:37Z</time>
 </trkpt>
 <trkpt lat="47.646671" lon="13.229428">
 <ele>832.51</ele>
 <time>2011-10-31T10:26:46Z</time>
 </trkpt>
 <trkpt lat="47.646797" lon="13.229311">
 <ele>833.51</ele>
 <time>2011-10-31T10:26:55Z</time>
 </trkpt>
 <trkpt lat="47.646935" lon="13.229187">
 <ele>834.41</ele>
 <time>2011-10-31T10:27:04Z</time>
 </trkpt>
 <trkpt lat="47.647076" lon="13.229019">
 <ele>835.41</ele>
 <time>2011-10-31T10:27:13Z</time>
 </trkpt>
 <trkpt lat="47.647221" lon="13.228833">
 <ele>836.47</ele>
 <time>2011-10-31T10:27:23Z</time>
 </trkpt>
 <trkpt lat="47.647381" lon="13.228634">
 <ele>838.02</ele>
 <time>2011-10-31T10:27:34Z</time>
 </trkpt>
 <trkpt lat="47.647530" lon="13.228453">
 <ele>839.02</ele>
 <time>2011-10-31T10:27:44Z</time>
 </trkpt>
 <trkpt lat="47.647655" lon="13.228310">
 <ele>840.08</ele>
 <time>2011-10-31T10:27:52Z</time>
 </trkpt>
 <trkpt lat="47.647873" lon="13.228063">
 <ele>841.92</ele>
 <time>2011-10-31T10:28:06Z</time>
 </trkpt>
 <trkpt lat="47.648060" lon="13.227853">
 <ele>843.03</ele>
 <time>2011-10-31T10:28:17Z</time>
 </trkpt>
 <trkpt lat="47.648243" lon="13.227693">
 <ele>844.23</ele>
 <time>2011-10-31T10:28:27Z</time>
 </trkpt>
 <trkpt lat="47.648468" lon="13.227503">
 <ele>845.73</ele>
 <time>2011-10-31T10:28:39Z</time>
 </trkpt>
 <trkpt lat="47.648640" lon="13.227359">
 <ele>846.62</ele>
 <time>2011-10-31T10:28:48Z</time>
 </trkpt>
 <trkpt lat="47.648838" lon="13.227203">
 <ele>847.35</ele>
 <time>2011-10-31T10:28:58Z</time>
 </trkpt>
 <trkpt lat="47.649055" lon="13.227046">
 <ele>848.59</ele>
 <time>2011-10-31T10:29:09Z</time>
 </trkpt>
 <trkpt lat="47.649258" lon="13.226902">
 <ele>849.38</ele>
 <time>2011-10-31T10:29:19Z</time>
 </trkpt>
 <trkpt lat="47.649471" lon="13.226752">
 <ele>850.33</ele>
 <time>2011-10-31T10:29:30Z</time>
 </trkpt>
 <trkpt lat="47.649673" lon="13.226649">
 <ele>851.49</ele>
 <time>2011-10-31T10:29:40Z</time>
 </trkpt>
 <trkpt lat="47.649876" lon="13.226546">
 <ele>852.43</ele>
 <time>2011-10-31T10:29:50Z</time>
 </trkpt>
 <trkpt lat="47.650017" lon="13.226473">
 <ele>853.49</ele>
 <time>2011-10-31T10:29:58Z</time>
 </trkpt>
 <trkpt lat="47.650154" lon="13.226402">
 <ele>854.63</ele>
 <time>2011-10-31T10:30:06Z</time>
 </trkpt>
 <trkpt lat="47.650295" lon="13.226341">
 <ele>855.99</ele>
 <time>2011-10-31T10:30:15Z</time>
 </trkpt>
 <trkpt lat="47.650440" lon="13.226295">
 <ele>857.43</ele>
 <time>2011-10-31T10:30:24Z</time>
 </trkpt>
 <trkpt lat="47.650566" lon="13.226255">
 <ele>858.74</ele>
 <time>2011-10-31T10:30:32Z</time>
 </trkpt>
 <trkpt lat="47.650745" lon="13.226218">
 <ele>859.93</ele>
 <time>2011-10-31T10:30:43Z</time>
 </trkpt>
 <trkpt lat="47.650913" lon="13.226199">
 <ele>861.40</ele>
 <time>2011-10-31T10:30:53Z</time>
 </trkpt>
 <trkpt lat="47.651051" lon="13.226190">
 <ele>862.55</ele>
 <time>2011-10-31T10:31:01Z</time>
 </trkpt>
 <trkpt lat="47.651222" lon="13.226204">
 <ele>864.25</ele>
 <time>2011-10-31T10:31:11Z</time>
 </trkpt>
 <trkpt lat="47.651375" lon="13.226215">
 <ele>865.31</ele>
 <time>2011-10-31T10:31:20Z</time>
 </trkpt>
 <trkpt lat="47.651543" lon="13.226228">
 <ele>866.95</ele>
 <time>2011-10-31T10:31:30Z</time>
 </trkpt>
 <trkpt lat="47.651714" lon="13.226248">
 <ele>868.20</ele>
 <time>2011-10-31T10:31:40Z</time>
 </trkpt>
 <trkpt lat="47.651844" lon="13.226265">
 <ele>869.28</ele>
 <time>2011-10-31T10:31:48Z</time>
 </trkpt>
 <trkpt lat="47.652020" lon="13.226287">
 <ele>870.66</ele>
 <time>2011-10-31T10:31:59Z</time>
 </trkpt>
 <trkpt lat="47.652115" lon="13.226336">
 <ele>871.70</ele>
 <time>2011-10-31T10:32:05Z</time>
 </trkpt>
 <trkpt lat="47.652172" lon="13.226499">
 <ele>872.75</ele>
 <time>2011-10-31T10:32:12Z</time>
 </trkpt>
 <trkpt lat="47.652119" lon="13.226603">
 <ele>874.19</ele>
 <time>2011-10-31T10:32:19Z</time>
 </trkpt>
 <trkpt lat="47.652020" lon="13.226702">
 <ele>875.98</ele>
 <time>2011-10-31T10:32:28Z</time>
 </trkpt>
 <trkpt lat="47.651909" lon="13.226771">
 <ele>877.68</ele>
 <time>2011-10-31T10:32:37Z</time>
 </trkpt>
 <trkpt lat="47.651798" lon="13.226830">
 <ele>879.21</ele>
 <time>2011-10-31T10:32:46Z</time>
 </trkpt>
 <trkpt lat="47.651691" lon="13.226885">
 <ele>880.60</ele>
 <time>2011-10-31T10:32:54Z</time>
 </trkpt>
 <trkpt lat="47.651588" lon="13.226940">
 <ele>882.26</ele>
 <time>2011-10-31T10:33:03Z</time>
 </trkpt>
 <trkpt lat="47.651505" lon="13.226984">
 <ele>883.53</ele>
 <time>2011-10-31T10:33:11Z</time>
 </trkpt>
 <trkpt lat="47.651375" lon="13.227053">
 <ele>884.89</ele>
 <time>2011-10-31T10:33:21Z</time>
 </trkpt>
 <trkpt lat="47.651257" lon="13.227118">
 <ele>886.72</ele>
 <time>2011-10-31T10:33:30Z</time>
 </trkpt>
 <trkpt lat="47.651157" lon="13.227192">
 <ele>887.91</ele>
 <time>2011-10-31T10:33:38Z</time>
 </trkpt>
 <trkpt lat="47.651054" lon="13.227270">
 <ele>889.59</ele>
 <time>2011-10-31T10:33:47Z</time>
 </trkpt>
 <trkpt lat="47.650936" lon="13.227359">
 <ele>891.46</ele>
 <time>2011-10-31T10:33:57Z</time>
 </trkpt>
 <trkpt lat="47.650837" lon="13.227434">
 <ele>892.49</ele>
 <time>2011-10-31T10:34:05Z</time>
 </trkpt>
 <trkpt lat="47.650822" lon="13.227444">
 <ele>892.61</ele>
 <time>2011-10-31T10:34:06Z</time>
 </trkpt>
 <trkpt lat="47.650723" lon="13.227532">
 <ele>894.13</ele>
 <time>2011-10-31T10:34:15Z</time>
 </trkpt>
 <trkpt lat="47.650642" lon="13.227629">
 <ele>895.35</ele>
 <time>2011-10-31T10:34:24Z</time>
 </trkpt>
 <trkpt lat="47.650536" lon="13.227763">
 <ele>897.24</ele>
 <time>2011-10-31T10:34:35Z</time>
 </trkpt>
 <trkpt lat="47.650425" lon="13.227896">
 <ele>899.55</ele>
 <time>2011-10-31T10:34:46Z</time>
 </trkpt>
 <trkpt lat="47.650345" lon="13.228007">
 <ele>900.63</ele>
 <time>2011-10-31T10:34:54Z</time>
 </trkpt>
 <trkpt lat="47.650257" lon="13.228164">
 <ele>902.60</ele>
 <time>2011-10-31T10:35:05Z</time>
 </trkpt>
 <trkpt lat="47.650196" lon="13.228275">
 <ele>903.84</ele>
 <time>2011-10-31T10:35:12Z</time>
 </trkpt>
 <trkpt lat="47.650127" lon="13.228397">
 <ele>905.03</ele>
 <time>2011-10-31T10:35:20Z</time>
 </trkpt>
 <trkpt lat="47.650047" lon="13.228535">
 <ele>906.64</ele>
 <time>2011-10-31T10:35:29Z</time>
 </trkpt>
 <trkpt lat="47.649979" lon="13.228658">
 <ele>908.50</ele>
 <time>2011-10-31T10:35:38Z</time>
 </trkpt>
 <trkpt lat="47.649899" lon="13.228800">
 <ele>910.26</ele>
 <time>2011-10-31T10:35:48Z</time>
 </trkpt>
 <trkpt lat="47.649837" lon="13.228927">
 <ele>911.79</ele>
 <time>2011-10-31T10:35:56Z</time>
 </trkpt>
 <trkpt lat="47.649765" lon="13.229094">
 <ele>913.37</ele>
 <time>2011-10-31T10:36:06Z</time>
 </trkpt>
 <trkpt lat="47.649719" lon="13.229198">
 <ele>914.76</ele>
 <time>2011-10-31T10:36:13Z</time>
 </trkpt>
 <trkpt lat="47.649712" lon="13.229215">
 <ele>914.96</ele>
 <time>2011-10-31T10:36:14Z</time>
 </trkpt>
 <trkpt lat="47.649654" lon="13.229348">
 <ele>916.45</ele>
 <time>2011-10-31T10:36:22Z</time>
 </trkpt>
 <trkpt lat="47.649597" lon="13.229469">
 <ele>917.78</ele>
 <time>2011-10-31T10:36:30Z</time>
 </trkpt>
 <trkpt lat="47.649597" lon="13.229469">
 <ele>918.46</ele>
 <time>2011-10-31T10:36:59Z</time>
 </trkpt>
 <trkpt lat="47.649597" lon="13.229469">
 <ele>918.34</ele>
 <time>2011-10-31T10:37:01Z</time>
 </trkpt>
 <trkpt lat="47.649532" lon="13.229618">
 <ele>919.28</ele>
 <time>2011-10-31T10:37:09Z</time>
 </trkpt>
 <trkpt lat="47.649490" lon="13.229719">
 <ele>920.42</ele>
 <time>2011-10-31T10:37:18Z</time>
 </trkpt>
 <trkpt lat="47.649490" lon="13.229719">
 <ele>920.63</ele>
 <time>2011-10-31T10:37:20Z</time>
 </trkpt>
 <trkpt lat="47.649460" lon="13.229784">
 <ele>921.69</ele>
 <time>2011-10-31T10:37:40Z</time>
 </trkpt>
 <trkpt lat="47.649422" lon="13.229868">
 <ele>922.18</ele>
 <time>2011-10-31T10:37:47Z</time>
 </trkpt>
 <trkpt lat="47.649391" lon="13.229939">
 <ele>923.30</ele>
 <time>2011-10-31T10:37:55Z</time>
 </trkpt>
 <trkpt lat="47.649376" lon="13.229978">
 <ele>923.70</ele>
 <time>2011-10-31T10:38:04Z</time>
 </trkpt>
 <trkpt lat="47.649323" lon="13.230097">
 <ele>924.64</ele>
 <time>2011-10-31T10:38:14Z</time>
 </trkpt>
 <trkpt lat="47.649265" lon="13.230231">
 <ele>926.06</ele>
 <time>2011-10-31T10:38:25Z</time>
 </trkpt>
 <trkpt lat="47.649223" lon="13.230325">
 <ele>927.46</ele>
 <time>2011-10-31T10:38:33Z</time>
 </trkpt>
 <trkpt lat="47.649166" lon="13.230449">
 <ele>928.66</ele>
 <time>2011-10-31T10:38:43Z</time>
 </trkpt>
 <trkpt lat="47.649113" lon="13.230575">
 <ele>929.94</ele>
 <time>2011-10-31T10:38:53Z</time>
 </trkpt>
 <trkpt lat="47.649059" lon="13.230701">
 <ele>931.21</ele>
 <time>2011-10-31T10:39:03Z</time>
 </trkpt>
 <trkpt lat="47.649006" lon="13.230823">
 <ele>932.61</ele>
 <time>2011-10-31T10:39:13Z</time>
 </trkpt>
 <trkpt lat="47.648983" lon="13.230871">
 <ele>933.41</ele>
 <time>2011-10-31T10:39:21Z</time>
 </trkpt>
 <trkpt lat="47.648983" lon="13.230871">
 <ele>933.59</ele>
 <time>2011-10-31T10:39:23Z</time>
 </trkpt>
 <trkpt lat="47.648941" lon="13.230964">
 <ele>934.16</ele>
 <time>2011-10-31T10:40:00Z</time>
 </trkpt>
 <trkpt lat="47.648903" lon="13.231051">
 <ele>934.79</ele>
 <time>2011-10-31T10:40:07Z</time>
 </trkpt>
 <trkpt lat="47.648888" lon="13.231090">
 <ele>935.41</ele>
 <time>2011-10-31T10:40:10Z</time>
 </trkpt>
 <trkpt lat="47.648811" lon="13.231264">
 <ele>937.21</ele>
 <time>2011-10-31T10:40:22Z</time>
 </trkpt>
 <trkpt lat="47.648769" lon="13.231357">
 <ele>938.81</ele>
 <time>2011-10-31T10:40:29Z</time>
 </trkpt>
 <trkpt lat="47.648766" lon="13.231372">
 <ele>938.89</ele>
 <time>2011-10-31T10:40:30Z</time>
 </trkpt>
 <trkpt lat="47.648716" lon="13.231491">
 <ele>940.08</ele>
 <time>2011-10-31T10:40:38Z</time>
 </trkpt>
 <trkpt lat="47.648674" lon="13.231586">
 <ele>941.02</ele>
 <time>2011-10-31T10:40:45Z</time>
 </trkpt>
 <trkpt lat="47.648624" lon="13.231705">
 <ele>942.31</ele>
 <time>2011-10-31T10:40:52Z</time>
 </trkpt>
 <trkpt lat="47.648624" lon="13.231705">
 <ele>943.58</ele>
 <time>2011-10-31T10:41:00Z</time>
 </trkpt>
 <trkpt lat="47.648556" lon="13.231874">
 <ele>944.78</ele>
 <time>2011-10-31T10:41:07Z</time>
 </trkpt>
 <trkpt lat="47.648521" lon="13.231959">
 <ele>946.00</ele>
 <time>2011-10-31T10:41:14Z</time>
 </trkpt>
 <trkpt lat="47.648449" lon="13.232130">
 <ele>947.12</ele>
 <time>2011-10-31T10:41:21Z</time>
 </trkpt>
 <trkpt lat="47.648384" lon="13.232287">
 <ele>948.31</ele>
 <time>2011-10-31T10:41:30Z</time>
 </trkpt>
 <trkpt lat="47.648342" lon="13.232390">
 <ele>949.44</ele>
 <time>2011-10-31T10:41:37Z</time>
 </trkpt>
 <trkpt lat="47.648289" lon="13.232516">
 <ele>950.77</ele>
 <time>2011-10-31T10:41:45Z</time>
 </trkpt>
 <trkpt lat="47.648251" lon="13.232611">
 <ele>951.85</ele>
 <time>2011-10-31T10:41:51Z</time>
 </trkpt>
 <trkpt lat="47.648209" lon="13.232717">
 <ele>952.78</ele>
 <time>2011-10-31T10:41:57Z</time>
 </trkpt>
 <trkpt lat="47.648193" lon="13.232753">
 <ele>952.90</ele>
 <time>2011-10-31T10:41:59Z</time>
 </trkpt>
 <trkpt lat="47.648151" lon="13.232864">
 <ele>954.01</ele>
 <time>2011-10-31T10:42:07Z</time>
 </trkpt>
 <trkpt lat="47.648151" lon="13.232864">
 <ele>954.20</ele>
 <time>2011-10-31T10:42:08Z</time>
 </trkpt>
 <trkpt lat="47.648083" lon="13.233049">
 <ele>955.97</ele>
 <time>2011-10-31T10:42:17Z</time>
 </trkpt>
 <trkpt lat="47.648071" lon="13.233110">
 <ele>956.65</ele>
 <time>2011-10-31T10:42:21Z</time>
 </trkpt>
 <trkpt lat="47.648037" lon="13.233264">
 <ele>957.27</ele>
 <time>2011-10-31T10:42:29Z</time>
 </trkpt>
 <trkpt lat="47.647995" lon="13.233450">
 <ele>959.13</ele>
 <time>2011-10-31T10:42:39Z</time>
 </trkpt>
 <trkpt lat="47.647968" lon="13.233574">
 <ele>960.11</ele>
 <time>2011-10-31T10:42:46Z</time>
 </trkpt>
 <trkpt lat="47.647926" lon="13.233755">
 <ele>961.68</ele>
 <time>2011-10-31T10:42:56Z</time>
 </trkpt>
 <trkpt lat="47.647896" lon="13.233886">
 <ele>962.85</ele>
 <time>2011-10-31T10:43:04Z</time>
 </trkpt>
 <trkpt lat="47.647846" lon="13.234099">
 <ele>964.51</ele>
 <time>2011-10-31T10:43:15Z</time>
 </trkpt>
 <trkpt lat="47.647812" lon="13.234233">
 <ele>965.70</ele>
 <time>2011-10-31T10:43:22Z</time>
 </trkpt>
 <trkpt lat="47.647758" lon="13.234388">
 <ele>967.47</ele>
 <time>2011-10-31T10:43:31Z</time>
 </trkpt>
 <trkpt lat="47.647690" lon="13.234545">
 <ele>969.04</ele>
 <time>2011-10-31T10:43:41Z</time>
 </trkpt>
 <trkpt lat="47.647594" lon="13.234752">
 <ele>970.68</ele>
 <time>2011-10-31T10:43:54Z</time>
 </trkpt>
 <trkpt lat="47.647522" lon="13.234904">
 <ele>972.26</ele>
 <time>2011-10-31T10:44:04Z</time>
 </trkpt>
 <trkpt lat="47.647465" lon="13.235030">
 <ele>973.71</ele>
 <time>2011-10-31T10:44:12Z</time>
 </trkpt>
 <trkpt lat="47.647408" lon="13.235154">
 <ele>974.62</ele>
 <time>2011-10-31T10:44:20Z</time>
 </trkpt>
 <trkpt lat="47.647335" lon="13.235309">
 <ele>975.92</ele>
 <time>2011-10-31T10:44:30Z</time>
 </trkpt>
 <trkpt lat="47.647278" lon="13.235430">
 <ele>977.11</ele>
 <time>2011-10-31T10:44:38Z</time>
 </trkpt>
 <trkpt lat="47.647205" lon="13.235566">
 <ele>978.35</ele>
 <time>2011-10-31T10:44:47Z</time>
 </trkpt>
 <trkpt lat="47.647133" lon="13.235707">
 <ele>979.66</ele>
 <time>2011-10-31T10:44:56Z</time>
 </trkpt>
 <trkpt lat="47.647064" lon="13.235840">
 <ele>981.19</ele>
 <time>2011-10-31T10:45:05Z</time>
 </trkpt>
 <trkpt lat="47.646984" lon="13.235916">
 <ele>982.46</ele>
 <time>2011-10-31T10:45:13Z</time>
 </trkpt>
 <trkpt lat="47.646969" lon="13.235933">
 <ele>982.73</ele>
 <time>2011-10-31T10:45:15Z</time>
 </trkpt>
 <trkpt lat="47.646973" lon="13.236030">
 <ele>983.16</ele>
 <time>2011-10-31T10:45:20Z</time>
 </trkpt>
 <trkpt lat="47.646938" lon="13.235960">
 <ele>983.43</ele>
 <time>2011-10-31T10:45:22Z</time>
 </trkpt>
 <trkpt lat="47.646942" lon="13.235958">
 <ele>982.87</ele>
 <time>2011-10-31T10:48:54Z</time>
 </trkpt>
 <trkpt lat="47.646873" lon="13.236021">
 <ele>982.86</ele>
 <time>2011-10-31T10:48:59Z</time>
 </trkpt>
 <trkpt lat="47.646778" lon="13.236114">
 <ele>983.32</ele>
 <time>2011-10-31T10:49:08Z</time>
 </trkpt>
 <trkpt lat="47.646694" lon="13.236191">
 <ele>984.00</ele>
 <time>2011-10-31T10:49:15Z</time>
 </trkpt>
 <trkpt lat="47.646610" lon="13.236276">
 <ele>984.41</ele>
 <time>2011-10-31T10:49:22Z</time>
 </trkpt>
 <trkpt lat="47.646526" lon="13.236365">
 <ele>985.36</ele>
 <time>2011-10-31T10:49:29Z</time>
 </trkpt>
 <trkpt lat="47.646427" lon="13.236476">
 <ele>986.37</ele>
 <time>2011-10-31T10:49:38Z</time>
 </trkpt>
 <trkpt lat="47.646305" lon="13.236608">
 <ele>987.21</ele>
 <time>2011-10-31T10:49:48Z</time>
 </trkpt>
 <trkpt lat="47.646198" lon="13.236719">
 <ele>988.12</ele>
 <time>2011-10-31T10:49:57Z</time>
 </trkpt>
 <trkpt lat="47.646084" lon="13.236838">
 <ele>989.55</ele>
 <time>2011-10-31T10:50:07Z</time>
 </trkpt>
 <trkpt lat="47.645988" lon="13.236921">
 <ele>990.44</ele>
 <time>2011-10-31T10:50:15Z</time>
 </trkpt>
 <trkpt lat="47.645878" lon="13.237018">
 <ele>991.53</ele>
 <time>2011-10-31T10:50:24Z</time>
 </trkpt>
 <trkpt lat="47.645782" lon="13.237100">
 <ele>992.63</ele>
 <time>2011-10-31T10:50:32Z</time>
 </trkpt>
 <trkpt lat="47.645683" lon="13.237186">
 <ele>993.97</ele>
 <time>2011-10-31T10:50:41Z</time>
 </trkpt>
 <trkpt lat="47.645580" lon="13.237278">
 <ele>995.24</ele>
 <time>2011-10-31T10:50:50Z</time>
 </trkpt>
 <trkpt lat="47.645470" lon="13.237388">
 <ele>996.98</ele>
 <time>2011-10-31T10:51:00Z</time>
 </trkpt>
 <trkpt lat="47.645374" lon="13.237479">
 <ele>998.04</ele>
 <time>2011-10-31T10:51:09Z</time>
 </trkpt>
 <trkpt lat="47.645290" lon="13.237556">
 <ele>999.17</ele>
 <time>2011-10-31T10:51:17Z</time>
 </trkpt>
 <trkpt lat="47.645187" lon="13.237655">
 <ele>1000.61</ele>
 <time>2011-10-31T10:51:27Z</time>
 </trkpt>
 <trkpt lat="47.645084" lon="13.237752">
 <ele>1002.02</ele>
 <time>2011-10-31T10:51:37Z</time>
 </trkpt>
 <trkpt lat="47.644993" lon="13.237835">
 <ele>1003.42</ele>
 <time>2011-10-31T10:51:46Z</time>
 </trkpt>
 <trkpt lat="47.644878" lon="13.237933">
 <ele>1004.98</ele>
 <time>2011-10-31T10:51:56Z</time>
 </trkpt>
 <trkpt lat="47.644764" lon="13.238033">
 <ele>1006.63</ele>
 <time>2011-10-31T10:52:06Z</time>
 </trkpt>
 <trkpt lat="47.644684" lon="13.238105">
 <ele>1007.74</ele>
 <time>2011-10-31T10:52:14Z</time>
 </trkpt>
 <trkpt lat="47.644592" lon="13.238183">
 <ele>1009.03</ele>
 <time>2011-10-31T10:52:23Z</time>
 </trkpt>
 <trkpt lat="47.644505" lon="13.238240">
 <ele>1010.33</ele>
 <time>2011-10-31T10:52:31Z</time>
 </trkpt>
 <trkpt lat="47.644394" lon="13.238313">
 <ele>1012.06</ele>
 <time>2011-10-31T10:52:41Z</time>
 </trkpt>
 <trkpt lat="47.644291" lon="13.238381">
 <ele>1013.84</ele>
 <time>2011-10-31T10:52:50Z</time>
 </trkpt>
 <trkpt lat="47.644207" lon="13.238436">
 <ele>1014.89</ele>
 <time>2011-10-31T10:52:57Z</time>
 </trkpt>
 <trkpt lat="47.644131" lon="13.238487">
 <ele>1016.22</ele>
 <time>2011-10-31T10:53:04Z</time>
 </trkpt>
 <trkpt lat="47.644104" lon="13.238503">
 <ele>1016.64</ele>
 <time>2011-10-31T10:53:06Z</time>
 </trkpt>
 <trkpt lat="47.644070" lon="13.238525">
 <ele>1017.34</ele>
 <time>2011-10-31T10:53:09Z</time>
 </trkpt>
 <trkpt lat="47.644035" lon="13.238547">
 <ele>1017.97</ele>
 <time>2011-10-31T10:53:14Z</time>
 </trkpt>
 <trkpt lat="47.644035" lon="13.238547">
 <ele>1018.28</ele>
 <time>2011-10-31T10:53:16Z</time>
 </trkpt>
 <trkpt lat="47.644058" lon="13.238566">
 <ele>1018.60</ele>
 <time>2011-10-31T10:53:19Z</time>
 </trkpt>
 <trkpt lat="47.644157" lon="13.238652">
 <ele>1019.37</ele>
 <time>2011-10-31T10:53:28Z</time>
 </trkpt>
 <trkpt lat="47.644207" lon="13.238693">
 <ele>1019.80</ele>
 <time>2011-10-31T10:53:32Z</time>
 </trkpt>
 <trkpt lat="47.644287" lon="13.238762">
 <ele>1020.60</ele>
 <time>2011-10-31T10:53:40Z</time>
 </trkpt>
 <trkpt lat="47.644386" lon="13.238827">
 <ele>1022.02</ele>
 <time>2011-10-31T10:53:50Z</time>
 </trkpt>
 <trkpt lat="47.644478" lon="13.238868">
 <ele>1023.28</ele>
 <time>2011-10-31T10:53:57Z</time>
 </trkpt>
 <trkpt lat="47.644550" lon="13.238902">
 <ele>1024.09</ele>
 <time>2011-10-31T10:54:03Z</time>
 </trkpt>
 <trkpt lat="47.644653" lon="13.238948">
 <ele>1025.53</ele>
 <time>2011-10-31T10:54:11Z</time>
 </trkpt>
 <trkpt lat="47.644760" lon="13.238996">
 <ele>1026.60</ele>
 <time>2011-10-31T10:54:19Z</time>
 </trkpt>
 <trkpt lat="47.644848" lon="13.239101">
 <ele>1027.87</ele>
 <time>2011-10-31T10:54:27Z</time>
 </trkpt>
 <trkpt lat="47.644897" lon="13.239211">
 <ele>1029.15</ele>
 <time>2011-10-31T10:54:35Z</time>
 </trkpt>
 <trkpt lat="47.644943" lon="13.239320">
 <ele>1030.50</ele>
 <time>2011-10-31T10:54:42Z</time>
 </trkpt>
 <trkpt lat="47.644970" lon="13.239374">
 <ele>1031.01</ele>
 <time>2011-10-31T10:54:45Z</time>
 </trkpt>
 <trkpt lat="47.645023" lon="13.239520">
 <ele>1032.20</ele>
 <time>2011-10-31T10:54:53Z</time>
 </trkpt>
 <trkpt lat="47.645016" lon="13.239721">
 <ele>1033.73</ele>
 <time>2011-10-31T10:55:03Z</time>
 </trkpt>
 <trkpt lat="47.645012" lon="13.239905">
 <ele>1035.37</ele>
 <time>2011-10-31T10:55:13Z</time>
 </trkpt>
 <trkpt lat="47.645004" lon="13.240084">
 <ele>1036.86</ele>
 <time>2011-10-31T10:55:23Z</time>
 </trkpt>
 <trkpt lat="47.644924" lon="13.240269">
 <ele>1038.01</ele>
 <time>2011-10-31T10:55:32Z</time>
 </trkpt>
 <trkpt lat="47.644844" lon="13.240401">
 <ele>1039.45</ele>
 <time>2011-10-31T10:55:41Z</time>
 </trkpt>
 <trkpt lat="47.644756" lon="13.240561">
 <ele>1040.99</ele>
 <time>2011-10-31T10:55:51Z</time>
 </trkpt>
 <trkpt lat="47.644680" lon="13.240726">
 <ele>1042.49</ele>
 <time>2011-10-31T10:56:01Z</time>
 </trkpt>
 <trkpt lat="47.644611" lon="13.240867">
 <ele>1043.30</ele>
 <time>2011-10-31T10:56:09Z</time>
 </trkpt>
 <trkpt lat="47.644550" lon="13.241044">
 <ele>1044.36</ele>
 <time>2011-10-31T10:56:18Z</time>
 </trkpt>
 <trkpt lat="47.644474" lon="13.241264">
 <ele>1045.53</ele>
 <time>2011-10-31T10:56:29Z</time>
 </trkpt>
 <trkpt lat="47.644428" lon="13.241392">
 <ele>1046.32</ele>
 <time>2011-10-31T10:56:36Z</time>
 </trkpt>
 <trkpt lat="47.644413" lon="13.241429">
 <ele>1046.42</ele>
 <time>2011-10-31T10:56:38Z</time>
 </trkpt>
 <trkpt lat="47.644371" lon="13.241520">
 <ele>1046.94</ele>
 <time>2011-10-31T10:56:43Z</time>
 </trkpt>
 <trkpt lat="47.644287" lon="13.241705">
 <ele>1048.25</ele>
 <time>2011-10-31T10:56:52Z</time>
 </trkpt>
 <trkpt lat="47.644184" lon="13.241935">
 <ele>1049.60</ele>
 <time>2011-10-31T10:57:03Z</time>
 </trkpt>
 <trkpt lat="47.644112" lon="13.242100">
 <ele>1050.57</ele>
 <time>2011-10-31T10:57:11Z</time>
 </trkpt>
 <trkpt lat="47.644051" lon="13.242236">
 <ele>1051.62</ele>
 <time>2011-10-31T10:57:18Z</time>
 </trkpt>
 <trkpt lat="47.643963" lon="13.242433">
 <ele>1052.53</ele>
 <time>2011-10-31T10:57:28Z</time>
 </trkpt>
 <trkpt lat="47.643890" lon="13.242597">
 <ele>1053.69</ele>
 <time>2011-10-31T10:57:36Z</time>
 </trkpt>
 <trkpt lat="47.643784" lon="13.242812">
 <ele>1054.76</ele>
 <time>2011-10-31T10:57:46Z</time>
 </trkpt>
 <trkpt lat="47.643700" lon="13.242987">
 <ele>1055.71</ele>
 <time>2011-10-31T10:57:54Z</time>
 </trkpt>
 <trkpt lat="47.643608" lon="13.243179">
 <ele>1056.95</ele>
 <time>2011-10-31T10:58:03Z</time>
 </trkpt>
 <trkpt lat="47.643524" lon="13.243351">
 <ele>1057.98</ele>
 <time>2011-10-31T10:58:11Z</time>
 </trkpt>
 <trkpt lat="47.643417" lon="13.243572">
 <ele>1059.29</ele>
 <time>2011-10-31T10:58:21Z</time>
 </trkpt>
 <trkpt lat="47.643299" lon="13.243815">
 <ele>1060.68</ele>
 <time>2011-10-31T10:58:32Z</time>
 </trkpt>
 <trkpt lat="47.643154" lon="13.244091">
 <ele>1062.25</ele>
 <time>2011-10-31T10:58:45Z</time>
 </trkpt>
 <trkpt lat="47.643036" lon="13.244291">
 <ele>1063.66</ele>
 <time>2011-10-31T10:58:55Z</time>
 </trkpt>
 <trkpt lat="47.642906" lon="13.244501">
 <ele>1064.46</ele>
 <time>2011-10-31T10:59:05Z</time>
 </trkpt>
 <trkpt lat="47.642799" lon="13.244680">
 <ele>1064.87</ele>
 <time>2011-10-31T10:59:13Z</time>
 </trkpt>
 <trkpt lat="47.642666" lon="13.244901">
 <ele>1066.31</ele>
 <time>2011-10-31T10:59:23Z</time>
 </trkpt>
 <trkpt lat="47.642525" lon="13.245055">
 <ele>1067.29</ele>
 <time>2011-10-31T10:59:32Z</time>
 </trkpt>
 <trkpt lat="47.642418" lon="13.245157">
 <ele>1068.24</ele>
 <time>2011-10-31T10:59:39Z</time>
 </trkpt>
 <trkpt lat="47.642311" lon="13.245260">
 <ele>1069.07</ele>
 <time>2011-10-31T10:59:46Z</time>
 </trkpt>
 <trkpt lat="47.642239" lon="13.245331">
 <ele>1069.61</ele>
 <time>2011-10-31T10:59:51Z</time>
 </trkpt>
 <trkpt lat="47.642078" lon="13.245483">
 <ele>1070.80</ele>
 <time>2011-10-31T11:00:01Z</time>
 </trkpt>
 <trkpt lat="47.641922" lon="13.245559">
 <ele>1072.10</ele>
 <time>2011-10-31T11:00:10Z</time>
 </trkpt>
 <trkpt lat="47.641743" lon="13.245617">
 <ele>1073.57</ele>
 <time>2011-10-31T11:00:21Z</time>
 </trkpt>
 <trkpt lat="47.641602" lon="13.245662">
 <ele>1074.95</ele>
 <time>2011-10-31T11:00:30Z</time>
 </trkpt>
 <trkpt lat="47.641472" lon="13.245704">
 <ele>1076.27</ele>
 <time>2011-10-31T11:00:38Z</time>
 </trkpt>
 <trkpt lat="47.641312" lon="13.245763">
 <ele>1077.83</ele>
 <time>2011-10-31T11:00:48Z</time>
 </trkpt>
 <trkpt lat="47.641197" lon="13.245813">
 <ele>1079.18</ele>
 <time>2011-10-31T11:00:56Z</time>
 </trkpt>
 <trkpt lat="47.641094" lon="13.245858">
 <ele>1080.40</ele>
 <time>2011-10-31T11:01:04Z</time>
 </trkpt>
 <trkpt lat="47.640999" lon="13.245900">
 <ele>1081.45</ele>
 <time>2011-10-31T11:01:11Z</time>
 </trkpt>
 <trkpt lat="47.640896" lon="13.245946">
 <ele>1082.72</ele>
 <time>2011-10-31T11:01:20Z</time>
 </trkpt>
 <trkpt lat="47.640778" lon="13.245996">
 <ele>1084.15</ele>
 <time>2011-10-31T11:01:29Z</time>
 </trkpt>
 <trkpt lat="47.640717" lon="13.246023">
 <ele>1084.79</ele>
 <time>2011-10-31T11:01:34Z</time>
 </trkpt>
 <trkpt lat="47.640614" lon="13.246121">
 <ele>1086.69</ele>
 <time>2011-10-31T11:01:44Z</time>
 </trkpt>
 <trkpt lat="47.640549" lon="13.246190">
 <ele>1087.97</ele>
 <time>2011-10-31T11:01:51Z</time>
 </trkpt>
 <trkpt lat="47.640476" lon="13.246269">
 <ele>1089.13</ele>
 <time>2011-10-31T11:01:59Z</time>
 </trkpt>
 <trkpt lat="47.640408" lon="13.246343">
 <ele>1090.50</ele>
 <time>2011-10-31T11:02:06Z</time>
 </trkpt>
 <trkpt lat="47.640377" lon="13.246377">
 <ele>1090.99</ele>
 <time>2011-10-31T11:02:09Z</time>
 </trkpt>
 <trkpt lat="47.640301" lon="13.246460">
 <ele>1092.57</ele>
 <time>2011-10-31T11:02:17Z</time>
 </trkpt>
 <trkpt lat="47.640228" lon="13.246547">
 <ele>1093.91</ele>
 <time>2011-10-31T11:02:25Z</time>
 </trkpt>
 <trkpt lat="47.640202" lon="13.246594">
 <ele>1094.62</ele>
 <time>2011-10-31T11:02:29Z</time>
 </trkpt>
 <trkpt lat="47.640137" lon="13.246705">
 <ele>1096.20</ele>
 <time>2011-10-31T11:02:37Z</time>
 </trkpt>
 <trkpt lat="47.640099" lon="13.246775">
 <ele>1096.75</ele>
 <time>2011-10-31T11:02:41Z</time>
 </trkpt>
 <trkpt lat="47.640018" lon="13.246909">
 <ele>1098.60</ele>
 <time>2011-10-31T11:02:50Z</time>
 </trkpt>
 <trkpt lat="47.639942" lon="13.247041">
 <ele>1100.06</ele>
 <time>2011-10-31T11:03:00Z</time>
 </trkpt>
 <trkpt lat="47.639874" lon="13.247164">
 <ele>1101.70</ele>
 <time>2011-10-31T11:03:10Z</time>
 </trkpt>
 <trkpt lat="47.639786" lon="13.247296">
 <ele>1103.42</ele>
 <time>2011-10-31T11:03:20Z</time>
 </trkpt>
 <trkpt lat="47.639702" lon="13.247408">
 <ele>1104.88</ele>
 <time>2011-10-31T11:03:29Z</time>
 </trkpt>
 <trkpt lat="47.639629" lon="13.247501">
 <ele>1106.55</ele>
 <time>2011-10-31T11:03:37Z</time>
 </trkpt>
 <trkpt lat="47.639534" lon="13.247625">
 <ele>1108.07</ele>
 <time>2011-10-31T11:03:47Z</time>
 </trkpt>
 <trkpt lat="47.639450" lon="13.247734">
 <ele>1109.58</ele>
 <time>2011-10-31T11:03:56Z</time>
 </trkpt>
 <trkpt lat="47.639370" lon="13.247840">
 <ele>1110.93</ele>
 <time>2011-10-31T11:04:05Z</time>
 </trkpt>
 <trkpt lat="47.639286" lon="13.247949">
 <ele>1112.57</ele>
 <time>2011-10-31T11:04:14Z</time>
 </trkpt>
 <trkpt lat="47.639202" lon="13.248014">
 <ele>1113.68</ele>
 <time>2011-10-31T11:04:22Z</time>
 </trkpt>
 <trkpt lat="47.639103" lon="13.248082">
 <ele>1115.20</ele>
 <time>2011-10-31T11:04:31Z</time>
 </trkpt>
 <trkpt lat="47.639023" lon="13.248138">
 <ele>1116.32</ele>
 <time>2011-10-31T11:04:39Z</time>
 </trkpt>
 <trkpt lat="47.639004" lon="13.248152">
 <ele>1116.59</ele>
 <time>2011-10-31T11:04:41Z</time>
 </trkpt>
 <trkpt lat="47.638920" lon="13.248208">
 <ele>1117.89</ele>
 <time>2011-10-31T11:04:49Z</time>
 </trkpt>
 <trkpt lat="47.638836" lon="13.248264">
 <ele>1118.89</ele>
 <time>2011-10-31T11:04:57Z</time>
 </trkpt>
 <trkpt lat="47.638767" lon="13.248319">
 <ele>1120.18</ele>
 <time>2011-10-31T11:05:04Z</time>
 </trkpt>
 <trkpt lat="47.638664" lon="13.248418">
 <ele>1122.07</ele>
 <time>2011-10-31T11:05:15Z</time>
 </trkpt>
 <trkpt lat="47.638584" lon="13.248496">
 <ele>1123.40</ele>
 <time>2011-10-31T11:05:23Z</time>
 </trkpt>
 <trkpt lat="47.638569" lon="13.248514">
 <ele>1123.74</ele>
 <time>2011-10-31T11:05:25Z</time>
 </trkpt>
 <trkpt lat="47.638500" lon="13.248579">
 <ele>1124.75</ele>
 <time>2011-10-31T11:05:32Z</time>
 </trkpt>
 <trkpt lat="47.638489" lon="13.248588">
 <ele>1124.92</ele>
 <time>2011-10-31T11:05:33Z</time>
 </trkpt>
 <trkpt lat="47.638443" lon="13.248633">
 <ele>1125.76</ele>
 <time>2011-10-31T11:05:38Z</time>
 </trkpt>
 <trkpt lat="47.638390" lon="13.248686">
 <ele>1126.80</ele>
 <time>2011-10-31T11:05:44Z</time>
 </trkpt>
 <trkpt lat="47.638344" lon="13.248728">
 <ele>1127.32</ele>
 <time>2011-10-31T11:05:48Z</time>
 </trkpt>
 <trkpt lat="47.638287" lon="13.248785">
 <ele>1128.21</ele>
 <time>2011-10-31T11:05:54Z</time>
 </trkpt>
 <trkpt lat="47.638187" lon="13.248897">
 <ele>1129.82</ele>
 <time>2011-10-31T11:06:03Z</time>
 </trkpt>
 <trkpt lat="47.638145" lon="13.248955">
 <ele>1130.62</ele>
 <time>2011-10-31T11:06:08Z</time>
 </trkpt>
 <trkpt lat="47.638062" lon="13.249062">
 <ele>1131.84</ele>
 <time>2011-10-31T11:06:17Z</time>
 </trkpt>
 <trkpt lat="47.637985" lon="13.249167">
 <ele>1133.44</ele>
 <time>2011-10-31T11:06:26Z</time>
 </trkpt>
 <trkpt lat="47.637890" lon="13.249290">
 <ele>1134.94</ele>
 <time>2011-10-31T11:06:36Z</time>
 </trkpt>
 <trkpt lat="47.637825" lon="13.249376">
 <ele>1136.07</ele>
 <time>2011-10-31T11:06:43Z</time>
 </trkpt>
 <trkpt lat="47.637817" lon="13.249386">
 <ele>1136.21</ele>
 <time>2011-10-31T11:06:44Z</time>
 </trkpt>
 <trkpt lat="47.637737" lon="13.249490">
 <ele>1137.89</ele>
 <time>2011-10-31T11:06:53Z</time>
 </trkpt>
 <trkpt lat="47.637672" lon="13.249607">
 <ele>1138.97</ele>
 <time>2011-10-31T11:07:01Z</time>
 </trkpt>
 <trkpt lat="47.637615" lon="13.249732">
 <ele>1140.61</ele>
 <time>2011-10-31T11:07:09Z</time>
 </trkpt>
 <trkpt lat="47.637566" lon="13.249842">
 <ele>1141.66</ele>
 <time>2011-10-31T11:07:16Z</time>
 </trkpt>
 <trkpt lat="47.637520" lon="13.249946">
 <ele>1142.75</ele>
 <time>2011-10-31T11:07:23Z</time>
 </trkpt>
 <trkpt lat="47.637478" lon="13.250038">
 <ele>1143.66</ele>
 <time>2011-10-31T11:07:29Z</time>
 </trkpt>
 <trkpt lat="47.637424" lon="13.250154">
 <ele>1145.29</ele>
 <time>2011-10-31T11:07:37Z</time>
 </trkpt>
 <trkpt lat="47.637417" lon="13.250169">
 <ele>1145.39</ele>
 <time>2011-10-31T11:07:38Z</time>
 </trkpt>
 <trkpt lat="47.637383" lon="13.250250">
 <ele>1146.11</ele>
 <time>2011-10-31T11:07:43Z</time>
 </trkpt>
 <trkpt lat="47.637375" lon="13.250413">
 <ele>1147.37</ele>
 <time>2011-10-31T11:07:51Z</time>
 </trkpt>
 <trkpt lat="47.637363" lon="13.250593">
 <ele>1148.89</ele>
 <time>2011-10-31T11:08:00Z</time>
 </trkpt>
 <trkpt lat="47.637352" lon="13.250798">
 <ele>1150.78</ele>
 <time>2011-10-31T11:08:11Z</time>
 </trkpt>
 <trkpt lat="47.637367" lon="13.251027">
 <ele>1152.54</ele>
 <time>2011-10-31T11:08:22Z</time>
 </trkpt>
 <trkpt lat="47.637432" lon="13.251214">
 <ele>1154.33</ele>
 <time>2011-10-31T11:08:33Z</time>
 </trkpt>
 <trkpt lat="47.637474" lon="13.251337">
 <ele>1155.89</ele>
 <time>2011-10-31T11:08:41Z</time>
 </trkpt>
 <trkpt lat="47.637520" lon="13.251463">
 <ele>1157.64</ele>
 <time>2011-10-31T11:08:49Z</time>
 </trkpt>
 <trkpt lat="47.637558" lon="13.251617">
 <ele>1159.23</ele>
 <time>2011-10-31T11:08:57Z</time>
 </trkpt>
 <trkpt lat="47.637569" lon="13.251765">
 <ele>1160.66</ele>
 <time>2011-10-31T11:09:05Z</time>
 </trkpt>
 <trkpt lat="47.637573" lon="13.251890">
 <ele>1161.96</ele>
 <time>2011-10-31T11:09:12Z</time>
 </trkpt>
 <trkpt lat="47.637585" lon="13.252069">
 <ele>1163.79</ele>
 <time>2011-10-31T11:09:22Z</time>
 </trkpt>
 <trkpt lat="47.637592" lon="13.252208">
 <ele>1165.16</ele>
 <time>2011-10-31T11:09:30Z</time>
 </trkpt>
 <trkpt lat="47.637604" lon="13.252347">
 <ele>1166.73</ele>
 <time>2011-10-31T11:09:39Z</time>
 </trkpt>
 <trkpt lat="47.637611" lon="13.252492">
 <ele>1168.30</ele>
 <time>2011-10-31T11:09:48Z</time>
 </trkpt>
 <trkpt lat="47.637619" lon="13.252605">
 <ele>1169.31</ele>
 <time>2011-10-31T11:09:56Z</time>
 </trkpt>
 <trkpt lat="47.637627" lon="13.252659">
 <ele>1170.50</ele>
 <time>2011-10-31T11:10:02Z</time>
 </trkpt>
 <trkpt lat="47.637627" lon="13.252659">
 <ele>1171.82</ele>
 <time>2011-10-31T11:10:18Z</time>
 </trkpt>
 <trkpt lat="47.637627" lon="13.252659">
 <ele>1171.95</ele>
 <time>2011-10-31T11:10:19Z</time>
 </trkpt>
 <trkpt lat="47.637627" lon="13.252659">
 <ele>1172.54</ele>
 <time>2011-10-31T11:10:25Z</time>
 </trkpt>
 <trkpt lat="47.637741" lon="13.252961">
 <ele>1173.77</ele>
 <time>2011-10-31T11:10:34Z</time>
 </trkpt>
 <trkpt lat="47.637779" lon="13.253059">
 <ele>1175.09</ele>
 <time>2011-10-31T11:10:42Z</time>
 </trkpt>
 <trkpt lat="47.637783" lon="13.253074">
 <ele>1175.29</ele>
 <time>2011-10-31T11:10:44Z</time>
 </trkpt>
 <trkpt lat="47.637794" lon="13.253100">
 <ele>1176.01</ele>
 <time>2011-10-31T11:10:51Z</time>
 </trkpt>
 <trkpt lat="47.637856" lon="13.253263">
 <ele>1177.66</ele>
 <time>2011-10-31T11:10:59Z</time>
 </trkpt>
 <trkpt lat="47.637856" lon="13.253263">
 <ele>1178.63</ele>
 <time>2011-10-31T11:11:06Z</time>
 </trkpt>
 <trkpt lat="47.637856" lon="13.253263">
 <ele>1178.95</ele>
 <time>2011-10-31T11:11:08Z</time>
 </trkpt>
 <trkpt lat="47.637917" lon="13.253425">
 <ele>1179.71</ele>
 <time>2011-10-31T11:11:14Z</time>
 </trkpt>
 <trkpt lat="47.637959" lon="13.253541">
 <ele>1180.80</ele>
 <time>2011-10-31T11:11:21Z</time>
 </trkpt>
 <trkpt lat="47.638000" lon="13.253647">
 <ele>1181.83</ele>
 <time>2011-10-31T11:11:29Z</time>
 </trkpt>
 <trkpt lat="47.638046" lon="13.253766">
 <ele>1183.27</ele>
 <time>2011-10-31T11:11:39Z</time>
 </trkpt>
 <trkpt lat="47.638084" lon="13.253864">
 <ele>1184.69</ele>
 <time>2011-10-31T11:11:48Z</time>
 </trkpt>
 <trkpt lat="47.638084" lon="13.253864">
 <ele>1185.65</ele>
 <time>2011-10-31T11:11:55Z</time>
 </trkpt>
 <trkpt lat="47.638084" lon="13.253864">
 <ele>1186.50</ele>
 <time>2011-10-31T11:12:02Z</time>
 </trkpt>
 <trkpt lat="47.638084" lon="13.253864">
 <ele>1187.89</ele>
 <time>2011-10-31T11:12:10Z</time>
 </trkpt>
 <trkpt lat="47.638084" lon="13.253864">
 <ele>1188.57</ele>
 <time>2011-10-31T11:12:14Z</time>
 </trkpt>
 <trkpt lat="47.638142" lon="13.254127">
 <ele>1189.30</ele>
 <time>2011-10-31T11:12:23Z</time>
 </trkpt>
 <trkpt lat="47.638165" lon="13.254236">
 <ele>1190.60</ele>
 <time>2011-10-31T11:12:31Z</time>
 </trkpt>
 <trkpt lat="47.638271" lon="13.254356">
 <ele>1192.09</ele>
 <time>2011-10-31T11:12:39Z</time>
 </trkpt>
 <trkpt lat="47.638367" lon="13.254419">
 <ele>1193.79</ele>
 <time>2011-10-31T11:12:48Z</time>
 </trkpt>
 <trkpt lat="47.638451" lon="13.254474">
 <ele>1194.81</ele>
 <time>2011-10-31T11:12:55Z</time>
 </trkpt>
 <trkpt lat="47.638531" lon="13.254526">
 <ele>1196.09</ele>
 <time>2011-10-31T11:13:02Z</time>
 </trkpt>
 <trkpt lat="47.638626" lon="13.254581">
 <ele>1197.08</ele>
 <time>2011-10-31T11:13:10Z</time>
 </trkpt>
 <trkpt lat="47.638714" lon="13.254608">
 <ele>1198.36</ele>
 <time>2011-10-31T11:13:18Z</time>
 </trkpt>
 <trkpt lat="47.638836" lon="13.254644">
 <ele>1199.85</ele>
 <time>2011-10-31T11:13:26Z</time>
 </trkpt>
 <trkpt lat="47.638943" lon="13.254675">
 <ele>1201.12</ele>
 <time>2011-10-31T11:13:35Z</time>
 </trkpt>
 <trkpt lat="47.639065" lon="13.254711">
 <ele>1202.80</ele>
 <time>2011-10-31T11:13:46Z</time>
 </trkpt>
 <trkpt lat="47.639153" lon="13.254737">
 <ele>1203.98</ele>
 <time>2011-10-31T11:13:54Z</time>
 </trkpt>
 <trkpt lat="47.639236" lon="13.254777">
 <ele>1205.49</ele>
 <time>2011-10-31T11:14:02Z</time>
 </trkpt>
 <trkpt lat="47.639301" lon="13.254814">
 <ele>1206.42</ele>
 <time>2011-10-31T11:14:08Z</time>
 </trkpt>
 <trkpt lat="47.639408" lon="13.254877">
 <ele>1208.25</ele>
 <time>2011-10-31T11:14:19Z</time>
 </trkpt>
 <trkpt lat="47.639500" lon="13.254969">
 <ele>1209.74</ele>
 <time>2011-10-31T11:14:28Z</time>
 </trkpt>
 <trkpt lat="47.639591" lon="13.255081">
 <ele>1211.30</ele>
 <time>2011-10-31T11:14:38Z</time>
 </trkpt>
 <trkpt lat="47.639679" lon="13.255191">
 <ele>1213.14</ele>
 <time>2011-10-31T11:14:47Z</time>
 </trkpt>
 <trkpt lat="47.639778" lon="13.255317">
 <ele>1214.66</ele>
 <time>2011-10-31T11:14:58Z</time>
 </trkpt>
 <trkpt lat="47.639877" lon="13.255442">
 <ele>1216.44</ele>
 <time>2011-10-31T11:15:09Z</time>
 </trkpt>
 <trkpt lat="47.639954" lon="13.255554">
 <ele>1217.93</ele>
 <time>2011-10-31T11:15:18Z</time>
 </trkpt>
 <trkpt lat="47.639999" lon="13.255630">
 <ele>1218.65</ele>
 <time>2011-10-31T11:15:25Z</time>
 </trkpt>
 <trkpt lat="47.640087" lon="13.255762">
 <ele>1220.47</ele>
 <time>2011-10-31T11:15:35Z</time>
 </trkpt>
 <trkpt lat="47.640167" lon="13.255873">
 <ele>1221.68</ele>
 <time>2011-10-31T11:15:43Z</time>
 </trkpt>
 <trkpt lat="47.640270" lon="13.255941">
 <ele>1223.22</ele>
 <time>2011-10-31T11:15:53Z</time>
 </trkpt>
 <trkpt lat="47.640350" lon="13.255990">
 <ele>1224.46</ele>
 <time>2011-10-31T11:16:01Z</time>
 </trkpt>
 <trkpt lat="47.640434" lon="13.256045">
 <ele>1225.86</ele>
 <time>2011-10-31T11:16:09Z</time>
 </trkpt>
 <trkpt lat="47.640503" lon="13.256091">
 <ele>1226.97</ele>
 <time>2011-10-31T11:16:16Z</time>
 </trkpt>
 <trkpt lat="47.640564" lon="13.256193">
 <ele>1228.30</ele>
 <time>2011-10-31T11:16:23Z</time>
 </trkpt>
 <trkpt lat="47.640625" lon="13.256314">
 <ele>1229.58</ele>
 <time>2011-10-31T11:16:33Z</time>
 </trkpt>
 <trkpt lat="47.640625" lon="13.256314">
 <ele>1229.72</ele>
 <time>2011-10-31T11:16:35Z</time>
 </trkpt>
 <trkpt lat="47.640625" lon="13.256314">
 <ele>1230.03</ele>
 <time>2011-10-31T11:17:07Z</time>
 </trkpt>
 <trkpt lat="47.640633" lon="13.256384">
 <ele>1230.16</ele>
 <time>2011-10-31T11:17:14Z</time>
 </trkpt>
 <trkpt lat="47.640591" lon="13.256320">
 <ele>1230.23</ele>
 <time>2011-10-31T11:17:18Z</time>
 </trkpt>
 <trkpt lat="47.640522" lon="13.256334">
 <ele>1230.73</ele>
 <time>2011-10-31T11:17:24Z</time>
 </trkpt>
 <trkpt lat="47.640400" lon="13.256294">
 <ele>1231.97</ele>
 <time>2011-10-31T11:17:34Z</time>
 </trkpt>
 <trkpt lat="47.640297" lon="13.256257">
 <ele>1233.28</ele>
 <time>2011-10-31T11:17:43Z</time>
 </trkpt>
 <trkpt lat="47.640198" lon="13.256217">
 <ele>1234.87</ele>
 <time>2011-10-31T11:17:52Z</time>
 </trkpt>
 <trkpt lat="47.640083" lon="13.256153">
 <ele>1236.17</ele>
 <time>2011-10-31T11:18:02Z</time>
 </trkpt>
 <trkpt lat="47.639957" lon="13.256083">
 <ele>1238.47</ele>
 <time>2011-10-31T11:18:14Z</time>
 </trkpt>
 <trkpt lat="47.639866" lon="13.256031">
 <ele>1239.75</ele>
 <time>2011-10-31T11:18:23Z</time>
 </trkpt>
 <trkpt lat="47.639774" lon="13.255980">
 <ele>1241.45</ele>
 <time>2011-10-31T11:18:32Z</time>
 </trkpt>
 <trkpt lat="47.639683" lon="13.255929">
 <ele>1242.83</ele>
 <time>2011-10-31T11:18:42Z</time>
 </trkpt>
 <trkpt lat="47.639557" lon="13.255877">
 <ele>1244.85</ele>
 <time>2011-10-31T11:18:54Z</time>
 </trkpt>
 <trkpt lat="47.639477" lon="13.255843">
 <ele>1246.09</ele>
 <time>2011-10-31T11:19:02Z</time>
 </trkpt>
 <trkpt lat="47.639347" lon="13.255810">
 <ele>1248.06</ele>
 <time>2011-10-31T11:19:13Z</time>
 </trkpt>
 <trkpt lat="47.639248" lon="13.255795">
 <ele>1249.22</ele>
 <time>2011-10-31T11:19:21Z</time>
 </trkpt>
 <trkpt lat="47.639091" lon="13.255784">
 <ele>1251.04</ele>
 <time>2011-10-31T11:19:33Z</time>
 </trkpt>
 <trkpt lat="47.638988" lon="13.255805">
 <ele>1252.07</ele>
 <time>2011-10-31T11:19:41Z</time>
 </trkpt>
 <trkpt lat="47.638866" lon="13.255832">
 <ele>1253.74</ele>
 <time>2011-10-31T11:19:51Z</time>
 </trkpt>
 <trkpt lat="47.638733" lon="13.255859">
 <ele>1255.47</ele>
 <time>2011-10-31T11:20:02Z</time>
 </trkpt>
 <trkpt lat="47.638638" lon="13.255885">
 <ele>1256.95</ele>
 <time>2011-10-31T11:20:11Z</time>
 </trkpt>
 <trkpt lat="47.638535" lon="13.255913">
 <ele>1258.72</ele>
 <time>2011-10-31T11:20:20Z</time>
 </trkpt>
 <trkpt lat="47.638412" lon="13.255947">
 <ele>1260.26</ele>
 <time>2011-10-31T11:20:31Z</time>
 </trkpt>
 <trkpt lat="47.638287" lon="13.255982">
 <ele>1262.10</ele>
 <time>2011-10-31T11:20:42Z</time>
 </trkpt>
 <trkpt lat="47.638184" lon="13.256013">
 <ele>1263.51</ele>
 <time>2011-10-31T11:20:51Z</time>
 </trkpt>
 <trkpt lat="47.638081" lon="13.256043">
 <ele>1265.25</ele>
 <time>2011-10-31T11:21:00Z</time>
 </trkpt>
 <trkpt lat="47.637966" lon="13.256077">
 <ele>1266.80</ele>
 <time>2011-10-31T11:21:10Z</time>
 </trkpt>
 <trkpt lat="47.637859" lon="13.256057">
 <ele>1268.12</ele>
 <time>2011-10-31T11:21:18Z</time>
 </trkpt>
 <trkpt lat="47.637829" lon="13.256051">
 <ele>1268.49</ele>
 <time>2011-10-31T11:21:20Z</time>
 </trkpt>
 <trkpt lat="47.637779" lon="13.256041">
 <ele>1269.19</ele>
 <time>2011-10-31T11:21:24Z</time>
 </trkpt>
 <trkpt lat="47.637691" lon="13.256029">
 <ele>1270.99</ele>
 <time>2011-10-31T11:21:32Z</time>
 </trkpt>
 <trkpt lat="47.637611" lon="13.256020">
 <ele>1272.07</ele>
 <time>2011-10-31T11:21:39Z</time>
 </trkpt>
 <trkpt lat="47.637554" lon="13.256014">
 <ele>1273.14</ele>
 <time>2011-10-31T11:21:47Z</time>
 </trkpt>
 <trkpt lat="47.637550" lon="13.256025">
 <ele>1273.26</ele>
 <time>2011-10-31T11:21:48Z</time>
 </trkpt>
 <trkpt lat="47.637531" lon="13.256071">
 <ele>1273.75</ele>
 <time>2011-10-31T11:21:52Z</time>
 </trkpt>
 <trkpt lat="47.637512" lon="13.256123">
 <ele>1274.08</ele>
 <time>2011-10-31T11:21:56Z</time>
 </trkpt>
 <trkpt lat="47.637493" lon="13.256170">
 <ele>1274.38</ele>
 <time>2011-10-31T11:22:00Z</time>
 </trkpt>
 <trkpt lat="47.637482" lon="13.256200">
 <ele>1274.75</ele>
 <time>2011-10-31T11:22:03Z</time>
 </trkpt>
 <trkpt lat="47.637497" lon="13.256275">
 <ele>1274.98</ele>
 <time>2011-10-31T11:22:06Z</time>
 </trkpt>
 <trkpt lat="47.637592" lon="13.256431">
 <ele>1276.24</ele>
 <time>2011-10-31T11:22:16Z</time>
 </trkpt>
 <trkpt lat="47.637691" lon="13.256474">
 <ele>1277.31</ele>
 <time>2011-10-31T11:22:23Z</time>
 </trkpt>
 <trkpt lat="47.637772" lon="13.256499">
 <ele>1278.20</ele>
 <time>2011-10-31T11:22:30Z</time>
 </trkpt>
 <trkpt lat="47.637875" lon="13.256535">
 <ele>1279.41</ele>
 <time>2011-10-31T11:22:39Z</time>
 </trkpt>
 <trkpt lat="47.638008" lon="13.256579">
 <ele>1281.52</ele>
 <time>2011-10-31T11:22:50Z</time>
 </trkpt>
 <trkpt lat="47.638119" lon="13.256616">
 <ele>1283.10</ele>
 <time>2011-10-31T11:23:00Z</time>
 </trkpt>
 <trkpt lat="47.638233" lon="13.256644">
 <ele>1285.18</ele>
 <time>2011-10-31T11:23:10Z</time>
 </trkpt>
 <trkpt lat="47.638325" lon="13.256667">
 <ele>1286.78</ele>
 <time>2011-10-31T11:23:18Z</time>
 </trkpt>
 <trkpt lat="47.638481" lon="13.256706">
 <ele>1288.83</ele>
 <time>2011-10-31T11:23:30Z</time>
 </trkpt>
 <trkpt lat="47.638596" lon="13.256761">
 <ele>1290.63</ele>
 <time>2011-10-31T11:23:39Z</time>
 </trkpt>
 <trkpt lat="47.638691" lon="13.256836">
 <ele>1292.27</ele>
 <time>2011-10-31T11:23:48Z</time>
 </trkpt>
 <trkpt lat="47.638802" lon="13.256919">
 <ele>1294.46</ele>
 <time>2011-10-31T11:23:58Z</time>
 </trkpt>
 <trkpt lat="47.638912" lon="13.256962">
 <ele>1296.39</ele>
 <time>2011-10-31T11:24:08Z</time>
 </trkpt>
 <trkpt lat="47.639015" lon="13.256991">
 <ele>1297.65</ele>
 <time>2011-10-31T11:24:17Z</time>
 </trkpt>
 <trkpt lat="47.639126" lon="13.257022">
 <ele>1299.41</ele>
 <time>2011-10-31T11:24:26Z</time>
 </trkpt>
 <trkpt lat="47.639221" lon="13.257034">
 <ele>1300.84</ele>
 <time>2011-10-31T11:24:34Z</time>
 </trkpt>
 <trkpt lat="47.639374" lon="13.257167">
 <ele>1302.79</ele>
 <time>2011-10-31T11:24:46Z</time>
 </trkpt>
 <trkpt lat="47.639378" lon="13.257271">
 <ele>1303.81</ele>
 <time>2011-10-31T11:24:53Z</time>
 </trkpt>
 <trkpt lat="47.639378" lon="13.257271">
 <ele>1304.03</ele>
 <time>2011-10-31T11:24:55Z</time>
 </trkpt>
 <trkpt lat="47.639355" lon="13.257323">
 <ele>1304.85</ele>
 <time>2011-10-31T11:26:23Z</time>
 </trkpt>
 <trkpt lat="47.639236" lon="13.257358">
 <ele>1304.66</ele>
 <time>2011-10-31T11:26:31Z</time>
 </trkpt>
 <trkpt lat="47.639126" lon="13.257350">
 <ele>1305.72</ele>
 <time>2011-10-31T11:26:38Z</time>
 </trkpt>
 <trkpt lat="47.638981" lon="13.257327">
 <ele>1307.86</ele>
 <time>2011-10-31T11:26:48Z</time>
 </trkpt>
 <trkpt lat="47.638866" lon="13.257293">
 <ele>1309.41</ele>
 <time>2011-10-31T11:26:57Z</time>
 </trkpt>
 <trkpt lat="47.638786" lon="13.257289">
 <ele>1310.49</ele>
 <time>2011-10-31T11:27:04Z</time>
 </trkpt>
 <trkpt lat="47.638672" lon="13.257319">
 <ele>1312.39</ele>
 <time>2011-10-31T11:27:14Z</time>
 </trkpt>
 <trkpt lat="47.638535" lon="13.257355">
 <ele>1314.61</ele>
 <time>2011-10-31T11:27:25Z</time>
 </trkpt>
 <trkpt lat="47.638432" lon="13.257382">
 <ele>1316.46</ele>
 <time>2011-10-31T11:27:34Z</time>
 </trkpt>
 <trkpt lat="47.638317" lon="13.257427">
 <ele>1318.12</ele>
 <time>2011-10-31T11:27:44Z</time>
 </trkpt>
 <trkpt lat="47.638214" lon="13.257473">
 <ele>1319.54</ele>
 <time>2011-10-31T11:27:53Z</time>
 </trkpt>
 <trkpt lat="47.638081" lon="13.257530">
 <ele>1321.31</ele>
 <time>2011-10-31T11:28:05Z</time>
 </trkpt>
 <trkpt lat="47.637966" lon="13.257578">
 <ele>1323.09</ele>
 <time>2011-10-31T11:28:15Z</time>
 </trkpt>
 <trkpt lat="47.637833" lon="13.257553">
 <ele>1325.01</ele>
 <time>2011-10-31T11:28:27Z</time>
 </trkpt>
 <trkpt lat="47.637714" lon="13.257511">
 <ele>1326.74</ele>
 <time>2011-10-31T11:28:36Z</time>
 </trkpt>
 <trkpt lat="47.637630" lon="13.257451">
 <ele>1328.46</ele>
 <time>2011-10-31T11:28:44Z</time>
 </trkpt>
 <trkpt lat="47.637585" lon="13.257417">
 <ele>1329.36</ele>
 <time>2011-10-31T11:28:50Z</time>
 </trkpt>
 <trkpt lat="47.637516" lon="13.257366">
 <ele>1330.67</ele>
 <time>2011-10-31T11:28:58Z</time>
 </trkpt>
 <trkpt lat="47.637486" lon="13.257342">
 <ele>1331.63</ele>
 <time>2011-10-31T11:29:03Z</time>
 </trkpt>
 <trkpt lat="47.637394" lon="13.257258">
 <ele>1333.03</ele>
 <time>2011-10-31T11:29:12Z</time>
 </trkpt>
 <trkpt lat="47.637314" lon="13.257151">
 <ele>1334.78</ele>
 <time>2011-10-31T11:29:22Z</time>
 </trkpt>
 <trkpt lat="47.637253" lon="13.257069">
 <ele>1336.00</ele>
 <time>2011-10-31T11:29:30Z</time>
 </trkpt>
 <trkpt lat="47.637199" lon="13.257000">
 <ele>1337.28</ele>
 <time>2011-10-31T11:29:36Z</time>
 </trkpt>
 <trkpt lat="47.637123" lon="13.256902">
 <ele>1338.90</ele>
 <time>2011-10-31T11:29:46Z</time>
 </trkpt>
 <trkpt lat="47.637108" lon="13.256879">
 <ele>1339.28</ele>
 <time>2011-10-31T11:29:48Z</time>
 </trkpt>
 <trkpt lat="47.637009" lon="13.256724">
 <ele>1341.48</ele>
 <time>2011-10-31T11:29:59Z</time>
 </trkpt>
 <trkpt lat="47.636951" lon="13.256620">
 <ele>1342.45</ele>
 <time>2011-10-31T11:30:07Z</time>
 </trkpt>
 <trkpt lat="47.636860" lon="13.256508">
 <ele>1344.01</ele>
 <time>2011-10-31T11:30:16Z</time>
 </trkpt>
 <trkpt lat="47.636791" lon="13.256433">
 <ele>1345.24</ele>
 <time>2011-10-31T11:30:23Z</time>
 </trkpt>
 <trkpt lat="47.636669" lon="13.256360">
 <ele>1346.46</ele>
 <time>2011-10-31T11:30:32Z</time>
 </trkpt>
 <trkpt lat="47.636593" lon="13.256432">
 <ele>1346.89</ele>
 <time>2011-10-31T11:30:39Z</time>
 </trkpt>
 <trkpt lat="47.636581" lon="13.256495">
 <ele>1347.01</ele>
 <time>2011-10-31T11:30:42Z</time>
 </trkpt>
 <trkpt lat="47.636581" lon="13.256580">
 <ele>1347.12</ele>
 <time>2011-10-31T11:30:47Z</time>
 </trkpt>
 <trkpt lat="47.636623" lon="13.256666">
 <ele>1347.56</ele>
 <time>2011-10-31T11:30:55Z</time>
 </trkpt>
 <trkpt lat="47.636703" lon="13.256849">
 <ele>1348.85</ele>
 <time>2011-10-31T11:31:03Z</time>
 </trkpt>
 <trkpt lat="47.636738" lon="13.256945">
 <ele>1349.89</ele>
 <time>2011-10-31T11:31:09Z</time>
 </trkpt>
 <trkpt lat="47.636784" lon="13.257077">
 <ele>1351.42</ele>
 <time>2011-10-31T11:31:18Z</time>
 </trkpt>
 <trkpt lat="47.636829" lon="13.257209">
 <ele>1353.02</ele>
 <time>2011-10-31T11:31:26Z</time>
 </trkpt>
 <trkpt lat="47.636879" lon="13.257353">
 <ele>1354.58</ele>
 <time>2011-10-31T11:31:35Z</time>
 </trkpt>
 <trkpt lat="47.636890" lon="13.257382">
 <ele>1354.93</ele>
 <time>2011-10-31T11:31:37Z</time>
 </trkpt>
 <trkpt lat="47.636921" lon="13.257476">
 <ele>1355.71</ele>
 <time>2011-10-31T11:31:43Z</time>
 </trkpt>
 <trkpt lat="47.636944" lon="13.257544">
 <ele>1356.56</ele>
 <time>2011-10-31T11:31:47Z</time>
 </trkpt>
 <trkpt lat="47.636955" lon="13.257586">
 <ele>1357.05</ele>
 <time>2011-10-31T11:31:50Z</time>
 </trkpt>
 <trkpt lat="47.637012" lon="13.257746">
 <ele>1358.68</ele>
 <time>2011-10-31T11:31:59Z</time>
 </trkpt>
 <trkpt lat="47.637016" lon="13.257761">
 <ele>1358.98</ele>
 <time>2011-10-31T11:32:00Z</time>
 </trkpt>
 <trkpt lat="47.637051" lon="13.257879">
 <ele>1359.85</ele>
 <time>2011-10-31T11:32:07Z</time>
 </trkpt>
 <trkpt lat="47.637100" lon="13.258030">
 <ele>1361.63</ele>
 <time>2011-10-31T11:32:16Z</time>
 </trkpt>
 <trkpt lat="47.637115" lon="13.258082">
 <ele>1362.13</ele>
 <time>2011-10-31T11:32:19Z</time>
 </trkpt>
 <trkpt lat="47.637157" lon="13.258226">
 <ele>1363.79</ele>
 <time>2011-10-31T11:32:28Z</time>
 </trkpt>
 <trkpt lat="47.637196" lon="13.258336">
 <ele>1364.59</ele>
 <time>2011-10-31T11:32:34Z</time>
 </trkpt>
 <trkpt lat="47.637257" lon="13.258449">
 <ele>1365.72</ele>
 <time>2011-10-31T11:32:43Z</time>
 </trkpt>
 <trkpt lat="47.637318" lon="13.258565">
 <ele>1367.69</ele>
 <time>2011-10-31T11:32:52Z</time>
 </trkpt>
 <trkpt lat="47.637360" lon="13.258641">
 <ele>1368.59</ele>
 <time>2011-10-31T11:32:58Z</time>
 </trkpt>
 <trkpt lat="47.637424" lon="13.258755">
 <ele>1369.80</ele>
 <time>2011-10-31T11:33:06Z</time>
 </trkpt>
 <trkpt lat="47.637512" lon="13.258848">
 <ele>1371.15</ele>
 <time>2011-10-31T11:33:14Z</time>
 </trkpt>
 <trkpt lat="47.637512" lon="13.258848">
 <ele>1371.66</ele>
 <time>2011-10-31T11:33:17Z</time>
 </trkpt>
 <trkpt lat="47.637642" lon="13.258935">
 <ele>1372.70</ele>
 <time>2011-10-31T11:33:25Z</time>
 </trkpt>
 <trkpt lat="47.637726" lon="13.258993">
 <ele>1374.21</ele>
 <time>2011-10-31T11:33:33Z</time>
 </trkpt>
 <trkpt lat="47.637814" lon="13.259053">
 <ele>1375.70</ele>
 <time>2011-10-31T11:33:41Z</time>
 </trkpt>
 <trkpt lat="47.637909" lon="13.259112">
 <ele>1376.86</ele>
 <time>2011-10-31T11:33:49Z</time>
 </trkpt>
 <trkpt lat="47.637947" lon="13.259134">
 <ele>1378.08</ele>
 <time>2011-10-31T11:33:55Z</time>
 </trkpt>
 <trkpt lat="47.637947" lon="13.259134">
 <ele>1378.38</ele>
 <time>2011-10-31T11:33:57Z</time>
 </trkpt>
 <trkpt lat="47.638058" lon="13.259199">
 <ele>1379.55</ele>
 <time>2011-10-31T11:34:09Z</time>
 </trkpt>
 <trkpt lat="47.638138" lon="13.259245">
 <ele>1380.87</ele>
 <time>2011-10-31T11:34:19Z</time>
 </trkpt>
 <trkpt lat="47.638180" lon="13.259268">
 <ele>1381.77</ele>
 <time>2011-10-31T11:34:27Z</time>
 </trkpt>
 <trkpt lat="47.638180" lon="13.259268">
 <ele>1382.30</ele>
 <time>2011-10-31T11:34:37Z</time>
 </trkpt>
 <trkpt lat="47.638187" lon="13.259274">
 <ele>1382.99</ele>
 <time>2011-10-31T11:34:43Z</time>
 </trkpt>
 <trkpt lat="47.638313" lon="13.259336">
 <ele>1384.33</ele>
 <time>2011-10-31T11:34:53Z</time>
 </trkpt>
 <trkpt lat="47.638386" lon="13.259363">
 <ele>1385.91</ele>
 <time>2011-10-31T11:35:03Z</time>
 </trkpt>
 <trkpt lat="47.638474" lon="13.259396">
 <ele>1387.15</ele>
 <time>2011-10-31T11:35:12Z</time>
 </trkpt>
 <trkpt lat="47.638546" lon="13.259422">
 <ele>1388.69</ele>
 <time>2011-10-31T11:35:23Z</time>
 </trkpt>
 <trkpt lat="47.638664" lon="13.259466">
 <ele>1390.15</ele>
 <time>2011-10-31T11:35:33Z</time>
 </trkpt>
 <trkpt lat="47.638760" lon="13.259515">
 <ele>1391.53</ele>
 <time>2011-10-31T11:35:43Z</time>
 </trkpt>
 <trkpt lat="47.638786" lon="13.259531">
 <ele>1392.73</ele>
 <time>2011-10-31T11:35:50Z</time>
 </trkpt>
 <trkpt lat="47.638882" lon="13.259582">
 <ele>1393.46</ele>
 <time>2011-10-31T11:35:58Z</time>
 </trkpt>
 <trkpt lat="47.638916" lon="13.259608">
 <ele>1394.13</ele>
 <time>2011-10-31T11:36:05Z</time>
 </trkpt>
 <trkpt lat="47.638988" lon="13.259694">
 <ele>1394.94</ele>
 <time>2011-10-31T11:36:14Z</time>
 </trkpt>
 <trkpt lat="47.639065" lon="13.259787">
 <ele>1396.11</ele>
 <time>2011-10-31T11:36:24Z</time>
 </trkpt>
 <trkpt lat="47.639111" lon="13.259881">
 <ele>1396.96</ele>
 <time>2011-10-31T11:36:31Z</time>
 </trkpt>
 <trkpt lat="47.639130" lon="13.259988">
 <ele>1397.83</ele>
 <time>2011-10-31T11:36:39Z</time>
 </trkpt>
 <trkpt lat="47.639153" lon="13.260130">
 <ele>1399.42</ele>
 <time>2011-10-31T11:36:50Z</time>
 </trkpt>
 <trkpt lat="47.639164" lon="13.260203">
 <ele>1400.04</ele>
 <time>2011-10-31T11:36:57Z</time>
 </trkpt>
 <trkpt lat="47.639149" lon="13.260260">
 <ele>1401.11</ele>
 <time>2011-10-31T11:37:07Z</time>
 </trkpt>
 <trkpt lat="47.639099" lon="13.260412">
 <ele>1402.17</ele>
 <time>2011-10-31T11:37:21Z</time>
 </trkpt>
 <trkpt lat="47.639099" lon="13.260412">
 <ele>1402.69</ele>
 <time>2011-10-31T11:37:28Z</time>
 </trkpt>
 <trkpt lat="47.639030" lon="13.260399">
 <ele>1402.87</ele>
 <time>2011-10-31T11:37:38Z</time>
 </trkpt>
 <trkpt lat="47.639004" lon="13.260393">
 <ele>1403.06</ele>
 <time>2011-10-31T11:37:41Z</time>
 </trkpt>
 <trkpt lat="47.638939" lon="13.260289">
 <ele>1403.54</ele>
 <time>2011-10-31T11:37:50Z</time>
 </trkpt>
 <trkpt lat="47.638882" lon="13.260191">
 <ele>1405.10</ele>
 <time>2011-10-31T11:37:59Z</time>
 </trkpt>
 <trkpt lat="47.638805" lon="13.260100">
 <ele>1407.06</ele>
 <time>2011-10-31T11:38:08Z</time>
 </trkpt>
 <trkpt lat="47.638737" lon="13.260014">
 <ele>1408.39</ele>
 <time>2011-10-31T11:38:16Z</time>
 </trkpt>
 <trkpt lat="47.638653" lon="13.259954">
 <ele>1409.45</ele>
 <time>2011-10-31T11:38:24Z</time>
 </trkpt>
 <trkpt lat="47.638535" lon="13.259932">
 <ele>1410.98</ele>
 <time>2011-10-31T11:38:34Z</time>
 </trkpt>
 <trkpt lat="47.638432" lon="13.259912">
 <ele>1412.90</ele>
 <time>2011-10-31T11:38:43Z</time>
 </trkpt>
 <trkpt lat="47.638294" lon="13.259900">
 <ele>1414.50</ele>
 <time>2011-10-31T11:38:54Z</time>
 </trkpt>
 <trkpt lat="47.638195" lon="13.259905">
 <ele>1416.06</ele>
 <time>2011-10-31T11:39:02Z</time>
 </trkpt>
 <trkpt lat="47.638031" lon="13.259914">
 <ele>1418.22</ele>
 <time>2011-10-31T11:39:15Z</time>
 </trkpt>
 <trkpt lat="47.637936" lon="13.259920">
 <ele>1419.67</ele>
 <time>2011-10-31T11:39:23Z</time>
 </trkpt>
 <trkpt lat="47.637814" lon="13.259939">
 <ele>1421.39</ele>
 <time>2011-10-31T11:39:33Z</time>
 </trkpt>
 <trkpt lat="47.637703" lon="13.259956">
 <ele>1422.87</ele>
 <time>2011-10-31T11:39:42Z</time>
 </trkpt>
 <trkpt lat="47.637573" lon="13.259977">
 <ele>1424.77</ele>
 <time>2011-10-31T11:39:53Z</time>
 </trkpt>
 <trkpt lat="47.637455" lon="13.259971">
 <ele>1426.35</ele>
 <time>2011-10-31T11:40:03Z</time>
 </trkpt>
 <trkpt lat="47.637325" lon="13.259951">
 <ele>1428.02</ele>
 <time>2011-10-31T11:40:14Z</time>
 </trkpt>
 <trkpt lat="47.637211" lon="13.259934">
 <ele>1429.68</ele>
 <time>2011-10-31T11:40:24Z</time>
 </trkpt>
 <trkpt lat="47.637104" lon="13.259917">
 <ele>1431.22</ele>
 <time>2011-10-31T11:40:33Z</time>
 </trkpt>
 <trkpt lat="47.636967" lon="13.259895">
 <ele>1433.08</ele>
 <time>2011-10-31T11:40:45Z</time>
 </trkpt>
 <trkpt lat="47.636871" lon="13.259878">
 <ele>1434.25</ele>
 <time>2011-10-31T11:40:53Z</time>
 </trkpt>
 <trkpt lat="47.636742" lon="13.259854">
 <ele>1435.88</ele>
 <time>2011-10-31T11:41:04Z</time>
 </trkpt>
 <trkpt lat="47.636616" lon="13.259828">
 <ele>1437.68</ele>
 <time>2011-10-31T11:41:15Z</time>
 </trkpt>
 <trkpt lat="47.636501" lon="13.259796">
 <ele>1439.28</ele>
 <time>2011-10-31T11:41:25Z</time>
 </trkpt>
 <trkpt lat="47.636402" lon="13.259767">
 <ele>1440.44</ele>
 <time>2011-10-31T11:41:34Z</time>
 </trkpt>
 <trkpt lat="47.636292" lon="13.259759">
 <ele>1441.74</ele>
 <time>2011-10-31T11:41:43Z</time>
 </trkpt>
 <trkpt lat="47.636185" lon="13.259791">
 <ele>1443.07</ele>
 <time>2011-10-31T11:41:52Z</time>
 </trkpt>
 <trkpt lat="47.636147" lon="13.259802">
 <ele>1443.45</ele>
 <time>2011-10-31T11:41:55Z</time>
 </trkpt>
 <trkpt lat="47.636059" lon="13.259827">
 <ele>1444.67</ele>
 <time>2011-10-31T11:42:02Z</time>
 </trkpt>
 <trkpt lat="47.636036" lon="13.259835">
 <ele>1445.02</ele>
 <time>2011-10-31T11:42:04Z</time>
 </trkpt>
 <trkpt lat="47.635952" lon="13.259884">
 <ele>1445.97</ele>
 <time>2011-10-31T11:42:11Z</time>
 </trkpt>
 <trkpt lat="47.635883" lon="13.260016">
 <ele>1447.55</ele>
 <time>2011-10-31T11:42:20Z</time>
 </trkpt>
 <trkpt lat="47.635815" lon="13.260149">
 <ele>1448.96</ele>
 <time>2011-10-31T11:42:29Z</time>
 </trkpt>
 <trkpt lat="47.635769" lon="13.260237">
 <ele>1449.96</ele>
 <time>2011-10-31T11:42:35Z</time>
 </trkpt>
 <trkpt lat="47.635746" lon="13.260355">
 <ele>1450.95</ele>
 <time>2011-10-31T11:42:41Z</time>
 </trkpt>
 <trkpt lat="47.635735" lon="13.260522">
 <ele>1452.43</ele>
 <time>2011-10-31T11:42:50Z</time>
 </trkpt>
 <trkpt lat="47.635719" lon="13.260673">
 <ele>1453.72</ele>
 <time>2011-10-31T11:42:58Z</time>
 </trkpt>
 <trkpt lat="47.635719" lon="13.260692">
 <ele>1453.94</ele>
 <time>2011-10-31T11:42:59Z</time>
 </trkpt>
 <trkpt lat="47.635704" lon="13.260829">
 <ele>1454.93</ele>
 <time>2011-10-31T11:43:06Z</time>
 </trkpt>
 <trkpt lat="47.635666" lon="13.260978">
 <ele>1455.74</ele>
 <time>2011-10-31T11:43:14Z</time>
 </trkpt>
 <trkpt lat="47.635651" lon="13.261152">
 <ele>1457.41</ele>
 <time>2011-10-31T11:43:23Z</time>
 </trkpt>
 <trkpt lat="47.635635" lon="13.261343">
 <ele>1458.78</ele>
 <time>2011-10-31T11:43:33Z</time>
 </trkpt>
 <trkpt lat="47.635624" lon="13.261517">
 <ele>1459.86</ele>
 <time>2011-10-31T11:43:42Z</time>
 </trkpt>
 <trkpt lat="47.635624" lon="13.261732">
 <ele>1461.47</ele>
 <time>2011-10-31T11:43:53Z</time>
 </trkpt>
 <trkpt lat="47.635624" lon="13.261866">
 <ele>1462.25</ele>
 <time>2011-10-31T11:44:00Z</time>
 </trkpt>
 <trkpt lat="47.635624" lon="13.262064">
 <ele>1463.81</ele>
 <time>2011-10-31T11:44:10Z</time>
 </trkpt>
 <trkpt lat="47.635597" lon="13.262220">
 <ele>1464.62</ele>
 <time>2011-10-31T11:44:18Z</time>
 </trkpt>
 <trkpt lat="47.635551" lon="13.262384">
 <ele>1465.71</ele>
 <time>2011-10-31T11:44:27Z</time>
 </trkpt>
 <trkpt lat="47.635513" lon="13.262527">
 <ele>1467.36</ele>
 <time>2011-10-31T11:44:35Z</time>
 </trkpt>
 <trkpt lat="47.635464" lon="13.262706">
 <ele>1468.89</ele>
 <time>2011-10-31T11:44:45Z</time>
 </trkpt>
 <trkpt lat="47.635418" lon="13.262866">
 <ele>1470.11</ele>
 <time>2011-10-31T11:44:54Z</time>
 </trkpt>
 <trkpt lat="47.635368" lon="13.263046">
 <ele>1471.95</ele>
 <time>2011-10-31T11:45:04Z</time>
 </trkpt>
 <trkpt lat="47.635323" lon="13.263233">
 <ele>1473.37</ele>
 <time>2011-10-31T11:45:14Z</time>
 </trkpt>
 <trkpt lat="47.635300" lon="13.263369">
 <ele>1474.78</ele>
 <time>2011-10-31T11:45:21Z</time>
 </trkpt>
 <trkpt lat="47.635281" lon="13.263546">
 <ele>1476.39</ele>
 <time>2011-10-31T11:45:30Z</time>
 </trkpt>
 <trkpt lat="47.635281" lon="13.263726">
 <ele>1477.60</ele>
 <time>2011-10-31T11:45:39Z</time>
 </trkpt>
 <trkpt lat="47.635281" lon="13.263957">
 <ele>1479.01</ele>
 <time>2011-10-31T11:45:50Z</time>
 </trkpt>
 <trkpt lat="47.635281" lon="13.264106">
 <ele>1479.43</ele>
 <time>2011-10-31T11:45:57Z</time>
 </trkpt>
 <trkpt lat="47.635281" lon="13.264140">
 <ele>1479.80</ele>
 <time>2011-10-31T11:46:03Z</time>
 </trkpt>
 <trkpt lat="47.635281" lon="13.264140">
 <ele>1479.87</ele>
 <time>2011-10-31T11:46:04Z</time>
 </trkpt>
 <trkpt lat="47.635281" lon="13.264221">
 <ele>1480.59</ele>
 <time>2011-10-31T11:50:08Z</time>
 </trkpt>
 <trkpt lat="47.635281" lon="13.264236">
 <ele>1480.56</ele>
 <time>2011-10-31T11:50:09Z</time>
 </trkpt>
 <trkpt lat="47.635281" lon="13.264365">
 <ele>1480.27</ele>
 <time>2011-10-31T11:50:15Z</time>
 </trkpt>
 <trkpt lat="47.635281" lon="13.264458">
 <ele>1480.55</ele>
 <time>2011-10-31T11:50:20Z</time>
 </trkpt>
 <trkpt lat="47.635281" lon="13.264458">
 <ele>1480.62</ele>
 <time>2011-10-31T11:50:21Z</time>
 </trkpt>
 <trkpt lat="47.635281" lon="13.264458">
 <ele>1481.14</ele>
 <time>2011-10-31T11:50:50Z</time>
 </trkpt>
 <trkpt lat="47.635281" lon="13.264458">
 <ele>1481.08</ele>
 <time>2011-10-31T11:50:51Z</time>
 </trkpt>
 <trkpt lat="47.635281" lon="13.264572">
 <ele>1480.35</ele>
 <time>2011-10-31T11:51:03Z</time>
 </trkpt>
 <trkpt lat="47.635281" lon="13.264786">
 <ele>1480.33</ele>
 <time>2011-10-31T11:51:10Z</time>
 </trkpt>
 <trkpt lat="47.635281" lon="13.265135">
 <ele>1480.44</ele>
 <time>2011-10-31T11:51:18Z</time>
 </trkpt>
 <trkpt lat="47.635288" lon="13.265436">
 <ele>1481.27</ele>
 <time>2011-10-31T11:51:25Z</time>
 </trkpt>
 <trkpt lat="47.635292" lon="13.265460">
 <ele>1481.66</ele>
 <time>2011-10-31T11:51:28Z</time>
 </trkpt>
 <trkpt lat="47.635330" lon="13.265697">
 <ele>1481.47</ele>
 <time>2011-10-31T11:52:06Z</time>
 </trkpt>
 <trkpt lat="47.635372" lon="13.265959">
 <ele>1482.23</ele>
 <time>2011-10-31T11:52:14Z</time>
 </trkpt>
 <trkpt lat="47.635410" lon="13.266209">
 <ele>1483.12</ele>
 <time>2011-10-31T11:52:22Z</time>
 </trkpt>
 <trkpt lat="47.635448" lon="13.266424">
 <ele>1484.06</ele>
 <time>2011-10-31T11:52:29Z</time>
 </trkpt>
 <trkpt lat="47.635487" lon="13.266642">
 <ele>1485.39</ele>
 <time>2011-10-31T11:52:36Z</time>
 </trkpt>
 <trkpt lat="47.635529" lon="13.266893">
 <ele>1486.48</ele>
 <time>2011-10-31T11:52:44Z</time>
 </trkpt>
 <trkpt lat="47.635582" lon="13.267186">
 <ele>1487.35</ele>
 <time>2011-10-31T11:52:53Z</time>
 </trkpt>
 <trkpt lat="47.635639" lon="13.267517">
 <ele>1488.38</ele>
 <time>2011-10-31T11:53:03Z</time>
 </trkpt>
 <trkpt lat="47.635715" lon="13.267837">
 <ele>1489.65</ele>
 <time>2011-10-31T11:53:13Z</time>
 </trkpt>
 <trkpt lat="47.635780" lon="13.268055">
 <ele>1490.53</ele>
 <time>2011-10-31T11:53:20Z</time>
 </trkpt>
 <trkpt lat="47.635895" lon="13.268459">
 <ele>1491.19</ele>
 <time>2011-10-31T11:53:32Z</time>
 </trkpt>
 <trkpt lat="47.635990" lon="13.268803">
 <ele>1491.56</ele>
 <time>2011-10-31T11:53:41Z</time>
 </trkpt>
 <trkpt lat="47.636074" lon="13.269134">
 <ele>1492.15</ele>
 <time>2011-10-31T11:53:49Z</time>
 </trkpt>
 <trkpt lat="47.636169" lon="13.269515">
 <ele>1492.52</ele>
 <time>2011-10-31T11:53:58Z</time>
 </trkpt>
 <trkpt lat="47.636257" lon="13.269843">
 <ele>1492.97</ele>
 <time>2011-10-31T11:54:06Z</time>
 </trkpt>
 <trkpt lat="47.636372" lon="13.270209">
 <ele>1493.34</ele>
 <time>2011-10-31T11:54:15Z</time>
 </trkpt>
 <trkpt lat="47.636475" lon="13.270542">
 <ele>1493.53</ele>
 <time>2011-10-31T11:54:23Z</time>
 </trkpt>
 <trkpt lat="47.636551" lon="13.270793">
 <ele>1494.08</ele>
 <time>2011-10-31T11:54:29Z</time>
 </trkpt>
 <trkpt lat="47.636665" lon="13.271181">
 <ele>1494.70</ele>
 <time>2011-10-31T11:54:38Z</time>
 </trkpt>
 <trkpt lat="47.636749" lon="13.271533">
 <ele>1494.98</ele>
 <time>2011-10-31T11:54:46Z</time>
 </trkpt>
 <trkpt lat="47.636837" lon="13.271907">
 <ele>1495.59</ele>
 <time>2011-10-31T11:54:54Z</time>
 </trkpt>
 <trkpt lat="47.636921" lon="13.272357">
 <ele>1495.93</ele>
 <time>2011-10-31T11:55:03Z</time>
 </trkpt>
 <trkpt lat="47.636936" lon="13.272712">
 <ele>1496.32</ele>
 <time>2011-10-31T11:55:10Z</time>
 </trkpt>
 <trkpt lat="47.636955" lon="13.273076">
 <ele>1496.32</ele>
 <time>2011-10-31T11:55:17Z</time>
 </trkpt>
 <trkpt lat="47.636932" lon="13.273575">
 <ele>1497.18</ele>
 <time>2011-10-31T11:55:27Z</time>
 </trkpt>
 <trkpt lat="47.636917" lon="13.273915">
 <ele>1497.77</ele>
 <time>2011-10-31T11:55:34Z</time>
 </trkpt>
 <trkpt lat="47.636932" lon="13.274259">
 <ele>1498.98</ele>
 <time>2011-10-31T11:55:42Z</time>
 </trkpt>
 <trkpt lat="47.636971" lon="13.274607">
 <ele>1500.46</ele>
 <time>2011-10-31T11:55:51Z</time>
 </trkpt>
 <trkpt lat="47.637001" lon="13.274883">
 <ele>1501.36</ele>
 <time>2011-10-31T11:55:58Z</time>
 </trkpt>
 <trkpt lat="47.637054" lon="13.275229">
 <ele>1502.19</ele>
 <time>2011-10-31T11:56:07Z</time>
 </trkpt>
 <trkpt lat="47.637123" lon="13.275558">
 <ele>1503.30</ele>
 <time>2011-10-31T11:56:15Z</time>
 </trkpt>
 <trkpt lat="47.637199" lon="13.275927">
 <ele>1503.98</ele>
 <time>2011-10-31T11:56:23Z</time>
 </trkpt>
 <trkpt lat="47.637276" lon="13.276284">
 <ele>1504.44</ele>
 <time>2011-10-31T11:56:31Z</time>
 </trkpt>
 <trkpt lat="47.637352" lon="13.276515">
 <ele>1505.32</ele>
 <time>2011-10-31T11:56:38Z</time>
 </trkpt>
 <trkpt lat="47.637432" lon="13.276753">
 <ele>1506.59</ele>
 <time>2011-10-31T11:56:47Z</time>
 </trkpt>
 <trkpt lat="47.637497" lon="13.276968">
 <ele>1508.43</ele>
 <time>2011-10-31T11:56:56Z</time>
 </trkpt>
 <trkpt lat="47.637547" lon="13.277148">
 <ele>1509.68</ele>
 <time>2011-10-31T11:57:04Z</time>
 </trkpt>
 <trkpt lat="47.637608" lon="13.277355">
 <ele>1511.51</ele>
 <time>2011-10-31T11:57:14Z</time>
 </trkpt>
 <trkpt lat="47.637657" lon="13.277533">
 <ele>1513.27</ele>
 <time>2011-10-31T11:57:23Z</time>
 </trkpt>
 <trkpt lat="47.637688" lon="13.277671">
 <ele>1514.40</ele>
 <time>2011-10-31T11:57:30Z</time>
 </trkpt>
 <trkpt lat="47.637718" lon="13.277812">
 <ele>1514.94</ele>
 <time>2011-10-31T11:57:37Z</time>
 </trkpt>
 <trkpt lat="47.637753" lon="13.277972">
 <ele>1516.25</ele>
 <time>2011-10-31T11:57:45Z</time>
 </trkpt>
 <trkpt lat="47.637814" lon="13.278126">
 <ele>1517.63</ele>
 <time>2011-10-31T11:57:54Z</time>
 </trkpt>
 <trkpt lat="47.637878" lon="13.278232">
 <ele>1518.69</ele>
 <time>2011-10-31T11:58:01Z</time>
 </trkpt>
 <trkpt lat="47.637955" lon="13.278368">
 <ele>1519.74</ele>
 <time>2011-10-31T11:58:10Z</time>
 </trkpt>
 <trkpt lat="47.638039" lon="13.278509">
 <ele>1520.89</ele>
 <time>2011-10-31T11:58:19Z</time>
 </trkpt>
 <trkpt lat="47.638100" lon="13.278649">
 <ele>1521.78</ele>
 <time>2011-10-31T11:58:26Z</time>
 </trkpt>
 <trkpt lat="47.638165" lon="13.278841">
 <ele>1523.26</ele>
 <time>2011-10-31T11:58:35Z</time>
 </trkpt>
 <trkpt lat="47.638168" lon="13.278861">
 <ele>1523.38</ele>
 <time>2011-10-31T11:58:36Z</time>
 </trkpt>
 <trkpt lat="47.638229" lon="13.279039">
 <ele>1524.50</ele>
 <time>2011-10-31T11:58:45Z</time>
 </trkpt>
 <trkpt lat="47.638313" lon="13.279264">
 <ele>1525.57</ele>
 <time>2011-10-31T11:58:56Z</time>
 </trkpt>
 <trkpt lat="47.638393" lon="13.279439">
 <ele>1525.99</ele>
 <time>2011-10-31T11:59:04Z</time>
 </trkpt>
 <trkpt lat="47.638508" lon="13.279518">
 <ele>1525.78</ele>
 <time>2011-10-31T11:59:12Z</time>
 </trkpt>
 <trkpt lat="47.638512" lon="13.279833">
 <ele>1525.32</ele>
 <time>2011-10-31T11:59:19Z</time>
 </trkpt>
 <trkpt lat="47.638512" lon="13.279846">
 <ele>1525.12</ele>
 <time>2011-10-31T11:59:21Z</time>
 </trkpt>
 <trkpt lat="47.638496" lon="13.279871">
 <ele>1524.58</ele>
 <time>2011-10-31T11:59:45Z</time>
 </trkpt>
 <trkpt lat="47.638496" lon="13.279875">
 <ele>1524.59</ele>
 <time>2011-10-31T11:59:46Z</time>
 </trkpt>
 <trkpt lat="47.638496" lon="13.279876">
 <ele>1524.69</ele>
 <time>2011-10-31T11:59:47Z</time>
 </trkpt>
 <trkpt lat="47.638504" lon="13.279832">
 <ele>1524.66</ele>
 <time>2011-10-31T11:59:59Z</time>
 </trkpt>
 <trkpt lat="47.638584" lon="13.279574">
 <ele>1524.70</ele>
 <time>2011-10-31T12:00:22Z</time>
 </trkpt>
 <trkpt lat="47.638584" lon="13.279574">
 <ele>1524.71</ele>
 <time>2011-10-31T12:00:23Z</time>
 </trkpt>
 <trkpt lat="47.638584" lon="13.279574">
 <ele>1524.81</ele>
 <time>2011-10-31T12:00:24Z</time>
 </trkpt>
 <trkpt lat="47.638573" lon="13.279566">
 <ele>1525.39</ele>
 <time>2011-10-31T12:03:02Z</time>
 </trkpt>
 <trkpt lat="47.638584" lon="13.279574">
 <ele>1525.25</ele>
 <time>2011-10-31T12:03:14Z</time>
 </trkpt>
 <trkpt lat="47.638584" lon="13.279574">
 <ele>1525.55</ele>
 <time>2011-10-31T12:04:08Z</time>
 </trkpt>
 <trkpt lat="47.638584" lon="13.279574">
 <ele>1525.53</ele>
 <time>2011-10-31T12:04:17Z</time>
 </trkpt>
 <trkpt lat="47.638584" lon="13.279574">
 <ele>1525.51</ele>
 <time>2011-10-31T12:04:21Z</time>
 </trkpt>
 <trkpt lat="47.638584" lon="13.279574">
 <ele>1525.55</ele>
 <time>2011-10-31T12:04:22Z</time>
 </trkpt>
 <trkpt lat="47.638584" lon="13.279574">
 <ele>1526.70</ele>
 <time>2011-10-31T12:04:32Z</time>
 </trkpt>
 <trkpt lat="47.638584" lon="13.279574">
 <ele>1527.39</ele>
 <time>2011-10-31T12:04:35Z</time>
 </trkpt>
 <trkpt lat="47.638489" lon="13.280090">
 <ele>1528.36</ele>
 <time>2011-10-31T12:04:40Z</time>
 </trkpt>
 <trkpt lat="47.638489" lon="13.280139">
 <ele>1528.31</ele>
 <time>2011-10-31T12:04:52Z</time>
 </trkpt>
 <trkpt lat="47.638584" lon="13.279574">
 <ele>1527.85</ele>
 <time>2011-10-31T12:04:59Z</time>
 </trkpt>
 <trkpt lat="47.638584" lon="13.279574">
 <ele>1527.80</ele>
 <time>2011-10-31T12:05:29Z</time>
 </trkpt>
 <trkpt lat="47.638584" lon="13.279574">
 <ele>1527.10</ele>
 <time>2011-10-31T12:05:35Z</time>
 </trkpt>
 <trkpt lat="47.638584" lon="13.279574">
 <ele>1525.71</ele>
 <time>2011-10-31T12:05:43Z</time>
 </trkpt>
 <trkpt lat="47.638584" lon="13.279574">
 <ele>1525.42</ele>
 <time>2011-10-31T12:05:45Z</time>
 </trkpt>
 <trkpt lat="47.638584" lon="13.279574">
 <ele>1523.94</ele>
 <time>2011-10-31T12:05:54Z</time>
 </trkpt>
 <trkpt lat="47.638584" lon="13.279574">
 <ele>1523.51</ele>
 <time>2011-10-31T12:05:57Z</time>
 </trkpt>
 <trkpt lat="47.638584" lon="13.279574">
 <ele>1523.32</ele>
 <time>2011-10-31T12:06:05Z</time>
 </trkpt>
 <trkpt lat="47.638584" lon="13.279574">
 <ele>1522.67</ele>
 <time>2011-10-31T12:06:13Z</time>
 </trkpt>
 <trkpt lat="47.638584" lon="13.279574">
 <ele>1524.33</ele>
 <time>2011-10-31T12:20:47Z</time>
 </trkpt>
 <trkpt lat="47.638584" lon="13.279574">
 <ele>1524.33</ele>
 <time>2011-10-31T12:20:48Z</time>
 </trkpt>
 <trkpt lat="47.638584" lon="13.279574">
 <ele>1524.26</ele>
 <time>2011-10-31T12:20:49Z</time>
 </trkpt>
 <trkpt lat="47.638584" lon="13.279574">
 <ele>1524.28</ele>
 <time>2011-10-31T12:20:54Z</time>
 </trkpt>
 <trkpt lat="47.638416" lon="13.280405">
 <ele>1524.78</ele>
 <time>2011-10-31T12:21:02Z</time>
 </trkpt>
 <trkpt lat="47.638458" lon="13.280348">
 <ele>1526.06</ele>
 <time>2011-10-31T12:21:11Z</time>
 </trkpt>
 <trkpt lat="47.638481" lon="13.280282">
 <ele>1527.49</ele>
 <time>2011-10-31T12:21:20Z</time>
 </trkpt>
 <trkpt lat="47.638481" lon="13.280248">
 <ele>1528.43</ele>
 <time>2011-10-31T12:21:24Z</time>
 </trkpt>
 <trkpt lat="47.638584" lon="13.279574">
 <ele>1529.39</ele>
 <time>2011-10-31T12:21:33Z</time>
 </trkpt>
 <trkpt lat="47.638584" lon="13.279574">
 <ele>1529.65</ele>
 <time>2011-10-31T12:21:38Z</time>
 </trkpt>
 <trkpt lat="47.638584" lon="13.279574">
 <ele>1529.52</ele>
 <time>2011-10-31T12:21:42Z</time>
 </trkpt>
 <trkpt lat="47.638584" lon="13.279574">
 <ele>1529.07</ele>
 <time>2011-10-31T12:21:45Z</time>
 </trkpt>
 <trkpt lat="47.638584" lon="13.279574">
 <ele>1528.36</ele>
 <time>2011-10-31T12:21:55Z</time>
 </trkpt>
 <trkpt lat="47.638592" lon="13.279574">
 <ele>1527.95</ele>
 <time>2011-10-31T12:21:58Z</time>
 </trkpt>
 <trkpt lat="47.638607" lon="13.279573">
 <ele>1527.70</ele>
 <time>2011-10-31T12:22:01Z</time>
 </trkpt>
 <trkpt lat="47.638561" lon="13.279989">
 <ele>1527.32</ele>
 <time>2011-10-31T12:22:06Z</time>
 </trkpt>
 <trkpt lat="47.638569" lon="13.279941">
 <ele>1527.42</ele>
 <time>2011-10-31T12:22:29Z</time>
 </trkpt>
 <trkpt lat="47.638561" lon="13.279905">
 <ele>1527.25</ele>
 <time>2011-10-31T12:22:38Z</time>
 </trkpt>
 <trkpt lat="47.638557" lon="13.279903">
 <ele>1527.14</ele>
 <time>2011-10-31T12:22:39Z</time>
 </trkpt>
 <trkpt lat="47.638519" lon="13.279874">
 <ele>1527.15</ele>
 <time>2011-10-31T12:22:51Z</time>
 </trkpt>
 <trkpt lat="47.638515" lon="13.279874">
 <ele>1527.08</ele>
 <time>2011-10-31T12:22:52Z</time>
 </trkpt>
 <trkpt lat="47.638512" lon="13.279874">
 <ele>1527.09</ele>
 <time>2011-10-31T12:22:53Z</time>
 </trkpt>
 <trkpt lat="47.638493" lon="13.279819">
 <ele>1527.11</ele>
 <time>2011-10-31T12:24:43Z</time>
 </trkpt>
 <trkpt lat="47.638493" lon="13.279748">
 <ele>1527.07</ele>
 <time>2011-10-31T12:25:08Z</time>
 </trkpt>
 <trkpt lat="47.638512" lon="13.279703">
 <ele>1527.06</ele>
 <time>2011-10-31T12:25:11Z</time>
 </trkpt>
 <trkpt lat="47.638515" lon="13.279525">
 <ele>1527.18</ele>
 <time>2011-10-31T12:25:17Z</time>
 </trkpt>
 <trkpt lat="47.638454" lon="13.279481">
 <ele>1527.71</ele>
 <time>2011-10-31T12:25:22Z</time>
 </trkpt>
 <trkpt lat="47.638340" lon="13.279339">
 <ele>1527.92</ele>
 <time>2011-10-31T12:25:30Z</time>
 </trkpt>
 <trkpt lat="47.638298" lon="13.279220">
 <ele>1527.65</ele>
 <time>2011-10-31T12:25:35Z</time>
 </trkpt>
 <trkpt lat="47.638206" lon="13.278968">
 <ele>1526.94</ele>
 <time>2011-10-31T12:25:41Z</time>
 </trkpt>
 <trkpt lat="47.638111" lon="13.278684">
 <ele>1525.22</ele>
 <time>2011-10-31T12:25:46Z</time>
 </trkpt>
 <trkpt lat="47.637897" lon="13.278266">
 <ele>1521.91</ele>
 <time>2011-10-31T12:25:52Z</time>
 </trkpt>
 <trkpt lat="47.637737" lon="13.277893">
 <ele>1519.27</ele>
 <time>2011-10-31T12:25:56Z</time>
 </trkpt>
 <trkpt lat="47.637562" lon="13.277199">
 <ele>1513.52</ele>
 <time>2011-10-31T12:26:01Z</time>
 </trkpt>
 <trkpt lat="47.637421" lon="13.276725">
 <ele>1509.18</ele>
 <time>2011-10-31T12:26:04Z</time>
 </trkpt>
 <trkpt lat="47.637196" lon="13.275905">
 <ele>1504.61</ele>
 <time>2011-10-31T12:26:09Z</time>
 </trkpt>
 <trkpt lat="47.637093" lon="13.275410">
 <ele>1502.90</ele>
 <time>2011-10-31T12:26:12Z</time>
 </trkpt>
 <trkpt lat="47.636955" lon="13.274463">
 <ele>1501.66</ele>
 <time>2011-10-31T12:26:18Z</time>
 </trkpt>
 <trkpt lat="47.636925" lon="13.273822">
 <ele>1499.92</ele>
 <time>2011-10-31T12:26:22Z</time>
 </trkpt>
 <trkpt lat="47.636951" lon="13.273167">
 <ele>1497.14</ele>
 <time>2011-10-31T12:26:26Z</time>
 </trkpt>
 <trkpt lat="47.636921" lon="13.272402">
 <ele>1495.04</ele>
 <time>2011-10-31T12:26:31Z</time>
 </trkpt>
 <trkpt lat="47.636768" lon="13.271614">
 <ele>1494.35</ele>
 <time>2011-10-31T12:26:37Z</time>
 </trkpt>
 <trkpt lat="47.636627" lon="13.271033">
 <ele>1493.58</ele>
 <time>2011-10-31T12:26:42Z</time>
 </trkpt>
 <trkpt lat="47.636467" lon="13.270519">
 <ele>1494.10</ele>
 <time>2011-10-31T12:26:47Z</time>
 </trkpt>
 <trkpt lat="47.636276" lon="13.269910">
 <ele>1494.17</ele>
 <time>2011-10-31T12:26:53Z</time>
 </trkpt>
 <trkpt lat="47.636185" lon="13.269582">
 <ele>1493.81</ele>
 <time>2011-10-31T12:26:56Z</time>
 </trkpt>
 <trkpt lat="47.636154" lon="13.269469">
 <ele>1493.49</ele>
 <time>2011-10-31T12:26:57Z</time>
 </trkpt>
 <trkpt lat="47.635986" lon="13.268794">
 <ele>1491.62</ele>
 <time>2011-10-31T12:27:03Z</time>
 </trkpt>
 <trkpt lat="47.635807" lon="13.268150">
 <ele>1491.05</ele>
 <time>2011-10-31T12:27:09Z</time>
 </trkpt>
 <trkpt lat="47.635616" lon="13.267375">
 <ele>1490.01</ele>
 <time>2011-10-31T12:27:16Z</time>
 </trkpt>
 <trkpt lat="47.635456" lon="13.266482">
 <ele>1486.98</ele>
 <time>2011-10-31T12:27:23Z</time>
 </trkpt>
 <trkpt lat="47.635338" lon="13.265747">
 <ele>1483.12</ele>
 <time>2011-10-31T12:27:28Z</time>
 </trkpt>
 <trkpt lat="47.635281" lon="13.264970">
 <ele>1480.93</ele>
 <time>2011-10-31T12:27:33Z</time>
 </trkpt>
 <trkpt lat="47.635281" lon="13.264156">
 <ele>1480.57</ele>
 <time>2011-10-31T12:27:39Z</time>
 </trkpt>
 <trkpt lat="47.635281" lon="13.263646">
 <ele>1479.53</ele>
 <time>2011-10-31T12:27:43Z</time>
 </trkpt>
 <trkpt lat="47.635281" lon="13.263530">
 <ele>1479.03</ele>
 <time>2011-10-31T12:27:44Z</time>
 </trkpt>
 <trkpt lat="47.635387" lon="13.262979">
 <ele>1475.60</ele>
 <time>2011-10-31T12:27:49Z</time>
 </trkpt>
 <trkpt lat="47.635544" lon="13.262412">
 <ele>1470.03</ele>
 <time>2011-10-31T12:27:53Z</time>
 </trkpt>
 <trkpt lat="47.635624" lon="13.261702">
 <ele>1463.95</ele>
 <time>2011-10-31T12:27:57Z</time>
 </trkpt>
 <trkpt lat="47.635662" lon="13.261034">
 <ele>1459.71</ele>
 <time>2011-10-31T12:28:01Z</time>
 </trkpt>
 <trkpt lat="47.635738" lon="13.260445">
 <ele>1456.69</ele>
 <time>2011-10-31T12:28:05Z</time>
 </trkpt>
 <trkpt lat="47.635803" lon="13.260170">
 <ele>1454.93</ele>
 <time>2011-10-31T12:28:07Z</time>
 </trkpt>
 <trkpt lat="47.635983" lon="13.259850">
 <ele>1452.08</ele>
 <time>2011-10-31T12:28:11Z</time>
 </trkpt>
 <trkpt lat="47.636139" lon="13.259804">
 <ele>1449.40</ele>
 <time>2011-10-31T12:28:14Z</time>
 </trkpt>
 <trkpt lat="47.636208" lon="13.259784">
 <ele>1448.38</ele>
 <time>2011-10-31T12:28:15Z</time>
 </trkpt>
 <trkpt lat="47.636665" lon="13.259839">
 <ele>1442.09</ele>
 <time>2011-10-31T12:28:20Z</time>
 </trkpt>
 <trkpt lat="47.637154" lon="13.259925">
 <ele>1434.48</ele>
 <time>2011-10-31T12:28:24Z</time>
 </trkpt>
 <trkpt lat="47.637798" lon="13.259941">
 <ele>1423.44</ele>
 <time>2011-10-31T12:28:29Z</time>
 </trkpt>
 <trkpt lat="47.638275" lon="13.259901">
 <ele>1416.99</ele>
 <time>2011-10-31T12:28:33Z</time>
 </trkpt>
 <trkpt lat="47.638386" lon="13.259904">
 <ele>1416.99</ele>
 <time>2011-10-31T12:28:34Z</time>
 </trkpt>
 <trkpt lat="47.638481" lon="13.259922">
 <ele>1415.76</ele>
 <time>2011-10-31T12:28:35Z</time>
 </trkpt>
 <trkpt lat="47.638790" lon="13.260079">
 <ele>1411.63</ele>
 <time>2011-10-31T12:28:39Z</time>
 </trkpt>
 <trkpt lat="47.638851" lon="13.260156">
 <ele>1410.81</ele>
 <time>2011-10-31T12:28:40Z</time>
 </trkpt>
 <trkpt lat="47.639038" lon="13.260400">
 <ele>1407.59</ele>
 <time>2011-10-31T12:28:44Z</time>
 </trkpt>
 <trkpt lat="47.639099" lon="13.260412">
 <ele>1406.55</ele>
 <time>2011-10-31T12:28:46Z</time>
 </trkpt>
 <trkpt lat="47.639156" lon="13.260150">
 <ele>1404.66</ele>
 <time>2011-10-31T12:28:49Z</time>
 </trkpt>
 <trkpt lat="47.638935" lon="13.259632">
 <ele>1399.84</ele>
 <time>2011-10-31T12:28:54Z</time>
 </trkpt>
 <trkpt lat="47.638779" lon="13.259527">
 <ele>1397.13</ele>
 <time>2011-10-31T12:28:56Z</time>
 </trkpt>
 <trkpt lat="47.638577" lon="13.259432">
 <ele>1395.52</ele>
 <time>2011-10-31T12:28:58Z</time>
 </trkpt>
 <trkpt lat="47.637974" lon="13.259149">
 <ele>1386.13</ele>
 <time>2011-10-31T12:29:03Z</time>
 </trkpt>
 <trkpt lat="47.637524" lon="13.258855">
 <ele>1378.83</ele>
 <time>2011-10-31T12:29:07Z</time>
 </trkpt>
 <trkpt lat="47.637264" lon="13.258465">
 <ele>1373.35</ele>
 <time>2011-10-31T12:29:11Z</time>
 </trkpt>
 <trkpt lat="47.637005" lon="13.257733">
 <ele>1365.23</ele>
 <time>2011-10-31T12:29:16Z</time>
 </trkpt>
 <trkpt lat="47.636864" lon="13.257302">
 <ele>1360.44</ele>
 <time>2011-10-31T12:29:19Z</time>
 </trkpt>
 <trkpt lat="47.636696" lon="13.256820">
 <ele>1356.83</ele>
 <time>2011-10-31T12:29:23Z</time>
 </trkpt>
 <trkpt lat="47.636604" lon="13.256629">
 <ele>1354.34</ele>
 <time>2011-10-31T12:29:25Z</time>
 </trkpt>
 <trkpt lat="47.636578" lon="13.256513">
 <ele>1353.11</ele>
 <time>2011-10-31T12:29:28Z</time>
 </trkpt>
 <trkpt lat="47.636600" lon="13.256422">
 <ele>1352.33</ele>
 <time>2011-10-31T12:29:30Z</time>
 </trkpt>
 <trkpt lat="47.636684" lon="13.256512">
 <ele>1351.70</ele>
 <time>2011-10-31T12:29:32Z</time>
 </trkpt>
 <trkpt lat="47.636993" lon="13.256695">
 <ele>1348.08</ele>
 <time>2011-10-31T12:29:37Z</time>
 </trkpt>
 <trkpt lat="47.637344" lon="13.257190">
 <ele>1341.35</ele>
 <time>2011-10-31T12:29:42Z</time>
 </trkpt>
 <trkpt lat="47.637482" lon="13.257340">
 <ele>1338.72</ele>
 <time>2011-10-31T12:29:44Z</time>
 </trkpt>
 <trkpt lat="47.637749" lon="13.257537">
 <ele>1335.08</ele>
 <time>2011-10-31T12:29:48Z</time>
 </trkpt>
 <trkpt lat="47.637974" lon="13.257576">
 <ele>1331.67</ele>
 <time>2011-10-31T12:29:51Z</time>
 </trkpt>
 <trkpt lat="47.638512" lon="13.257362">
 <ele>1323.22</ele>
 <time>2011-10-31T12:29:56Z</time>
 </trkpt>
 <trkpt lat="47.638924" lon="13.257310">
 <ele>1316.33</ele>
 <time>2011-10-31T12:30:00Z</time>
 </trkpt>
 <trkpt lat="47.639107" lon="13.257349">
 <ele>1314.20</ele>
 <time>2011-10-31T12:30:02Z</time>
 </trkpt>
 <trkpt lat="47.639282" lon="13.257362">
 <ele>1312.08</ele>
 <time>2011-10-31T12:30:05Z</time>
 </trkpt>
 <trkpt lat="47.639366" lon="13.257162">
 <ele>1311.42</ele>
 <time>2011-10-31T12:30:07Z</time>
 </trkpt>
 <trkpt lat="47.639271" lon="13.257040">
 <ele>1310.56</ele>
 <time>2011-10-31T12:30:09Z</time>
 </trkpt>
 <trkpt lat="47.639210" lon="13.257033">
 <ele>1309.89</ele>
 <time>2011-10-31T12:30:10Z</time>
 </trkpt>
 <trkpt lat="47.638992" lon="13.256984">
 <ele>1308.22</ele>
 <time>2011-10-31T12:30:13Z</time>
 </trkpt>
 <trkpt lat="47.638622" lon="13.256781">
 <ele>1302.79</ele>
 <time>2011-10-31T12:30:17Z</time>
 </trkpt>
 <trkpt lat="47.638336" lon="13.256669">
 <ele>1297.87</ele>
 <time>2011-10-31T12:30:20Z</time>
 </trkpt>
 <trkpt lat="47.638062" lon="13.256597">
 <ele>1292.80</ele>
 <time>2011-10-31T12:30:23Z</time>
 </trkpt>
 <trkpt lat="47.637665" lon="13.256465">
 <ele>1286.50</ele>
 <time>2011-10-31T12:30:28Z</time>
 </trkpt>
 <trkpt lat="47.637493" lon="13.256267">
 <ele>1283.86</ele>
 <time>2011-10-31T12:30:31Z</time>
 </trkpt>
 <trkpt lat="47.637505" lon="13.256143">
 <ele>1282.66</ele>
 <time>2011-10-31T12:30:33Z</time>
 </trkpt>
 <trkpt lat="47.637604" lon="13.256019">
 <ele>1280.94</ele>
 <time>2011-10-31T12:30:36Z</time>
 </trkpt>
 <trkpt lat="47.637894" lon="13.256064">
 <ele>1278.69</ele>
 <time>2011-10-31T12:30:40Z</time>
 </trkpt>
 <trkpt lat="47.637966" lon="13.256077">
 <ele>1277.58</ele>
 <time>2011-10-31T12:30:41Z</time>
 </trkpt>
 <trkpt lat="47.638466" lon="13.255932">
 <ele>1269.93</ele>
 <time>2011-10-31T12:30:46Z</time>
 </trkpt>
 <trkpt lat="47.638950" lon="13.255814">
 <ele>1262.23</ele>
 <time>2011-10-31T12:30:51Z</time>
 </trkpt>
 <trkpt lat="47.639034" lon="13.255796">
 <ele>1260.94</ele>
 <time>2011-10-31T12:30:52Z</time>
 </trkpt>
 <trkpt lat="47.639404" lon="13.255818">
 <ele>1255.80</ele>
 <time>2011-10-31T12:30:56Z</time>
 </trkpt>
 <trkpt lat="47.640041" lon="13.256130">
 <ele>1247.11</ele>
 <time>2011-10-31T12:31:02Z</time>
 </trkpt>
 <trkpt lat="47.640228" lon="13.256232">
 <ele>1245.61</ele>
 <time>2011-10-31T12:31:04Z</time>
 </trkpt>
 <trkpt lat="47.640392" lon="13.256291">
 <ele>1243.34</ele>
 <time>2011-10-31T12:31:06Z</time>
 </trkpt>
 <trkpt lat="47.640568" lon="13.256326">
 <ele>1240.95</ele>
 <time>2011-10-31T12:31:09Z</time>
 </trkpt>
 <trkpt lat="47.640591" lon="13.256248">
 <ele>1239.90</ele>
 <time>2011-10-31T12:31:11Z</time>
 </trkpt>
 <trkpt lat="47.640568" lon="13.256198">
 <ele>1239.63</ele>
 <time>2011-10-31T12:31:12Z</time>
 </trkpt>
 <trkpt lat="47.640499" lon="13.256088">
 <ele>1238.52</ele>
 <time>2011-10-31T12:31:14Z</time>
 </trkpt>
 <trkpt lat="47.640118" lon="13.255812">
 <ele>1233.20</ele>
 <time>2011-10-31T12:31:19Z</time>
 </trkpt>
 <trkpt lat="47.639652" lon="13.255158">
 <ele>1223.66</ele>
 <time>2011-10-31T12:31:25Z</time>
 </trkpt>
 <trkpt lat="47.639511" lon="13.254982">
 <ele>1221.22</ele>
 <time>2011-10-31T12:31:27Z</time>
 </trkpt>
 <trkpt lat="47.639359" lon="13.254848">
 <ele>1220.05</ele>
 <time>2011-10-31T12:31:29Z</time>
 </trkpt>
 <trkpt lat="47.639187" lon="13.254747">
 <ele>1217.65</ele>
 <time>2011-10-31T12:31:31Z</time>
 </trkpt>
 <trkpt lat="47.638706" lon="13.254605">
 <ele>1210.76</ele>
 <time>2011-10-31T12:31:36Z</time>
 </trkpt>
 <trkpt lat="47.638290" lon="13.254369">
 <ele>1204.40</ele>
 <time>2011-10-31T12:31:41Z</time>
 </trkpt>
 <trkpt lat="47.638226" lon="13.254327">
 <ele>1203.36</ele>
 <time>2011-10-31T12:31:42Z</time>
 </trkpt>
 <trkpt lat="47.638115" lon="13.253992">
 <ele>1199.25</ele>
 <time>2011-10-31T12:31:46Z</time>
 </trkpt>
 <trkpt lat="47.637974" lon="13.253576">
 <ele>1194.31</ele>
 <time>2011-10-31T12:31:50Z</time>
 </trkpt>
 <trkpt lat="47.637871" lon="13.253304">
 <ele>1191.10</ele>
 <time>2011-10-31T12:31:52Z</time>
 </trkpt>
 <trkpt lat="47.637722" lon="13.252908">
 <ele>1187.97</ele>
 <time>2011-10-31T12:31:55Z</time>
 </trkpt>
 <trkpt lat="47.637615" lon="13.252591">
 <ele>1183.70</ele>
 <time>2011-10-31T12:31:58Z</time>
 </trkpt>
 <trkpt lat="47.637585" lon="13.252035">
 <ele>1178.45</ele>
 <time>2011-10-31T12:32:02Z</time>
 </trkpt>
 <trkpt lat="47.637455" lon="13.251279">
 <ele>1170.58</ele>
 <time>2011-10-31T12:32:07Z</time>
 </trkpt>
 <trkpt lat="47.637356" lon="13.250735">
 <ele>1164.73</ele>
 <time>2011-10-31T12:32:11Z</time>
 </trkpt>
 <trkpt lat="47.637383" lon="13.250277">
 <ele>1159.62</ele>
 <time>2011-10-31T12:32:15Z</time>
 </trkpt>
 <trkpt lat="47.637459" lon="13.250083">
 <ele>1157.27</ele>
 <time>2011-10-31T12:32:17Z</time>
 </trkpt>
 <trkpt lat="47.637619" lon="13.249729">
 <ele>1154.63</ele>
 <time>2011-10-31T12:32:20Z</time>
 </trkpt>
 <trkpt lat="47.637947" lon="13.249214">
 <ele>1147.94</ele>
 <time>2011-10-31T12:32:24Z</time>
 </trkpt>
 <trkpt lat="47.638306" lon="13.248765">
 <ele>1140.92</ele>
 <time>2011-10-31T12:32:28Z</time>
 </trkpt>
 <trkpt lat="47.638668" lon="13.248416">
 <ele>1135.21</ele>
 <time>2011-10-31T12:32:32Z</time>
 </trkpt>
 <trkpt lat="47.639053" lon="13.248116">
 <ele>1129.33</ele>
 <time>2011-10-31T12:32:36Z</time>
 </trkpt>
 <trkpt lat="47.639488" lon="13.247684">
 <ele>1121.98</ele>
 <time>2011-10-31T12:32:41Z</time>
 </trkpt>
 <trkpt lat="47.639816" lon="13.247255">
 <ele>1117.43</ele>
 <time>2011-10-31T12:32:45Z</time>
 </trkpt>
 <trkpt lat="47.640072" lon="13.246819">
 <ele>1111.49</ele>
 <time>2011-10-31T12:32:49Z</time>
 </trkpt>
 <trkpt lat="47.640343" lon="13.246413">
 <ele>1105.85</ele>
 <time>2011-10-31T12:32:53Z</time>
 </trkpt>
 <trkpt lat="47.640648" lon="13.246079">
 <ele>1099.95</ele>
 <time>2011-10-31T12:32:57Z</time>
 </trkpt>
 <trkpt lat="47.641254" lon="13.245788">
 <ele>1091.07</ele>
 <time>2011-10-31T12:33:03Z</time>
 </trkpt>
 <trkpt lat="47.641792" lon="13.245600">
 <ele>1085.10</ele>
 <time>2011-10-31T12:33:08Z</time>
 </trkpt>
 <trkpt lat="47.641895" lon="13.245568">
 <ele>1085.09</ele>
 <time>2011-10-31T12:33:09Z</time>
 </trkpt>
 <trkpt lat="47.642193" lon="13.245376">
 <ele>1082.41</ele>
 <time>2011-10-31T12:33:12Z</time>
 </trkpt>
 <trkpt lat="47.642742" lon="13.244777">
 <ele>1077.38</ele>
 <time>2011-10-31T12:33:18Z</time>
 </trkpt>
 <trkpt lat="47.643250" lon="13.243917">
 <ele>1072.28</ele>
 <time>2011-10-31T12:33:25Z</time>
 </trkpt>
 <trkpt lat="47.643639" lon="13.243112">
 <ele>1067.20</ele>
 <time>2011-10-31T12:33:31Z</time>
 </trkpt>
 <trkpt lat="47.643913" lon="13.242544">
 <ele>1065.19</ele>
 <time>2011-10-31T12:33:36Z</time>
 </trkpt>
 <trkpt lat="47.644283" lon="13.241717">
 <ele>1060.18</ele>
 <time>2011-10-31T12:33:44Z</time>
 </trkpt>
 <trkpt lat="47.644417" lon="13.241415">
 <ele>1058.82</ele>
 <time>2011-10-31T12:33:49Z</time>
 </trkpt>
 <trkpt lat="47.644554" lon="13.241024">
 <ele>1056.76</ele>
 <time>2011-10-31T12:33:54Z</time>
 </trkpt>
 <trkpt lat="47.644817" lon="13.240450">
 <ele>1053.41</ele>
 <time>2011-10-31T12:34:00Z</time>
 </trkpt>
 <trkpt lat="47.644958" lon="13.240206">
 <ele>1051.14</ele>
 <time>2011-10-31T12:34:03Z</time>
 </trkpt>
 <trkpt lat="47.645020" lon="13.239608">
 <ele>1046.99</ele>
 <time>2011-10-31T12:34:08Z</time>
 </trkpt>
 <trkpt lat="47.644943" lon="13.239312">
 <ele>1044.22</ele>
 <time>2011-10-31T12:34:11Z</time>
 </trkpt>
 <trkpt lat="47.644821" lon="13.239044">
 <ele>1041.43</ele>
 <time>2011-10-31T12:34:14Z</time>
 </trkpt>
 <trkpt lat="47.644451" lon="13.238856">
 <ele>1036.63</ele>
 <time>2011-10-31T12:34:18Z</time>
 </trkpt>
 <trkpt lat="47.643997" lon="13.238545">
 <ele>1031.16</ele>
 <time>2011-10-31T12:34:23Z</time>
 </trkpt>
 <trkpt lat="47.643845" lon="13.238535">
 <ele>1030.22</ele>
 <time>2011-10-31T12:34:26Z</time>
 </trkpt>
 <trkpt lat="47.643818" lon="13.238534">
 <ele>1030.56</ele>
 <time>2011-10-31T12:34:29Z</time>
 </trkpt>
 <trkpt lat="47.643780" lon="13.238532">
 <ele>1030.09</ele>
 <time>2011-10-31T12:34:39Z</time>
 </trkpt>
 <trkpt lat="47.643761" lon="13.238531">
 <ele>1030.02</ele>
 <time>2011-10-31T12:34:40Z</time>
 </trkpt>
 <trkpt lat="47.643589" lon="13.238529">
 <ele>1029.18</ele>
 <time>2011-10-31T12:34:45Z</time>
 </trkpt>
 <trkpt lat="47.643353" lon="13.238541">
 <ele>1027.73</ele>
 <time>2011-10-31T12:34:50Z</time>
 </trkpt>
 <trkpt lat="47.643326" lon="13.238542">
 <ele>1027.07</ele>
 <time>2011-10-31T12:34:52Z</time>
 </trkpt>
 <trkpt lat="47.643269" lon="13.238545">
 <ele>1026.91</ele>
 <time>2011-10-31T12:36:02Z</time>
 </trkpt>
 <trkpt lat="47.643250" lon="13.238546">
 <ele>1026.69</ele>
 <time>2011-10-31T12:36:03Z</time>
 </trkpt>
 <trkpt lat="47.643066" lon="13.238563">
 <ele>1025.44</ele>
 <time>2011-10-31T12:36:08Z</time>
 </trkpt>
 <trkpt lat="47.642864" lon="13.238584">
 <ele>1023.80</ele>
 <time>2011-10-31T12:36:12Z</time>
 </trkpt>
 <trkpt lat="47.642544" lon="13.238604">
 <ele>1020.91</ele>
 <time>2011-10-31T12:36:17Z</time>
 </trkpt>
 <trkpt lat="47.642151" lon="13.238553">
 <ele>1016.89</ele>
 <time>2011-10-31T12:36:22Z</time>
 </trkpt>
 <trkpt lat="47.641685" lon="13.238492">
 <ele>1011.22</ele>
 <time>2011-10-31T12:36:28Z</time>
 </trkpt>
 <trkpt lat="47.641457" lon="13.238588">
 <ele>1009.63</ele>
 <time>2011-10-31T12:36:31Z</time>
 </trkpt>
 <trkpt lat="47.641243" lon="13.238736">
 <ele>1007.97</ele>
 <time>2011-10-31T12:36:34Z</time>
 </trkpt>
 <trkpt lat="47.641056" lon="13.238865">
 <ele>1006.31</ele>
 <time>2011-10-31T12:36:37Z</time>
 </trkpt>
 <trkpt lat="47.640499" lon="13.238867">
 <ele>1001.62</ele>
 <time>2011-10-31T12:36:43Z</time>
 </trkpt>
 <trkpt lat="47.640095" lon="13.238782">
 <ele>996.81</ele>
 <time>2011-10-31T12:36:48Z</time>
 </trkpt>
 <trkpt lat="47.639530" lon="13.238449">
 <ele>990.30</ele>
 <time>2011-10-31T12:36:54Z</time>
 </trkpt>
 <trkpt lat="47.639454" lon="13.238365">
 <ele>990.29</ele>
 <time>2011-10-31T12:36:55Z</time>
 </trkpt>
 <trkpt lat="47.639099" lon="13.237991">
 <ele>985.43</ele>
 <time>2011-10-31T12:36:59Z</time>
 </trkpt>
 <trkpt lat="47.638645" lon="13.237505">
 <ele>978.52</ele>
 <time>2011-10-31T12:37:04Z</time>
 </trkpt>
 <trkpt lat="47.638336" lon="13.237208">
 <ele>974.38</ele>
 <time>2011-10-31T12:37:07Z</time>
 </trkpt>
 <trkpt lat="47.637615" lon="13.236807">
 <ele>965.78</ele>
 <time>2011-10-31T12:37:13Z</time>
 </trkpt>
 <trkpt lat="47.637188" lon="13.236426">
 <ele>962.08</ele>
 <time>2011-10-31T12:37:17Z</time>
 </trkpt>
 <trkpt lat="47.636860" lon="13.236125">
 <ele>960.27</ele>
 <time>2011-10-31T12:37:21Z</time>
 </trkpt>
 <trkpt lat="47.636581" lon="13.235869">
 <ele>959.08</ele>
 <time>2011-10-31T12:37:25Z</time>
 </trkpt>
 <trkpt lat="47.636295" lon="13.235353">
 <ele>955.22</ele>
 <time>2011-10-31T12:37:30Z</time>
 </trkpt>
 <trkpt lat="47.636143" lon="13.234949">
 <ele>951.76</ele>
 <time>2011-10-31T12:37:33Z</time>
 </trkpt>
 <trkpt lat="47.635994" lon="13.234562">
 <ele>947.78</ele>
 <time>2011-10-31T12:37:36Z</time>
 </trkpt>
 <trkpt lat="47.635769" lon="13.234032">
 <ele>942.84</ele>
 <time>2011-10-31T12:37:40Z</time>
 </trkpt>
 <trkpt lat="47.635628" lon="13.233702">
 <ele>940.09</ele>
 <time>2011-10-31T12:37:43Z</time>
 </trkpt>
 <trkpt lat="47.635540" lon="13.233499">
 <ele>939.07</ele>
 <time>2011-10-31T12:37:45Z</time>
 </trkpt>
 <trkpt lat="47.635483" lon="13.233191">
 <ele>938.74</ele>
 <time>2011-10-31T12:37:47Z</time>
 </trkpt>
 <trkpt lat="47.635876" lon="13.232480">
 <ele>937.60</ele>
 <time>2011-10-31T12:37:53Z</time>
 </trkpt>
 <trkpt lat="47.635990" lon="13.232298">
 <ele>937.56</ele>
 <time>2011-10-31T12:37:55Z</time>
 </trkpt>
 <trkpt lat="47.636276" lon="13.231950">
 <ele>938.31</ele>
 <time>2011-10-31T12:38:00Z</time>
 </trkpt>
 <trkpt lat="47.636448" lon="13.231761">
 <ele>938.92</ele>
 <time>2011-10-31T12:38:03Z</time>
 </trkpt>
 <trkpt lat="47.636673" lon="13.231253">
 <ele>939.16</ele>
 <time>2011-10-31T12:38:09Z</time>
 </trkpt>
 <trkpt lat="47.636818" lon="13.230916">
 <ele>938.98</ele>
 <time>2011-10-31T12:38:13Z</time>
 </trkpt>
 <trkpt lat="47.636879" lon="13.230769">
 <ele>938.64</ele>
 <time>2011-10-31T12:38:15Z</time>
 </trkpt>
 <trkpt lat="47.636913" lon="13.230163">
 <ele>938.45</ele>
 <time>2011-10-31T12:38:21Z</time>
 </trkpt>
 <trkpt lat="47.636749" lon="13.229563">
 <ele>938.93</ele>
 <time>2011-10-31T12:38:27Z</time>
 </trkpt>
 <trkpt lat="47.636436" lon="13.229140">
 <ele>939.71</ele>
 <time>2011-10-31T12:38:34Z</time>
 </trkpt>
 <trkpt lat="47.636150" lon="13.228500">
 <ele>940.11</ele>
 <time>2011-10-31T12:38:43Z</time>
 </trkpt>
 <trkpt lat="47.636078" lon="13.228290">
 <ele>940.20</ele>
 <time>2011-10-31T12:38:46Z</time>
 </trkpt>
 <trkpt lat="47.635899" lon="13.227700">
 <ele>940.48</ele>
 <time>2011-10-31T12:38:54Z</time>
 </trkpt>
 <trkpt lat="47.635796" lon="13.227320">
 <ele>940.48</ele>
 <time>2011-10-31T12:38:59Z</time>
 </trkpt>
 <trkpt lat="47.635693" lon="13.226955">
 <ele>940.78</ele>
 <time>2011-10-31T12:39:04Z</time>
 </trkpt>
 <trkpt lat="47.635628" lon="13.226658">
 <ele>941.11</ele>
 <time>2011-10-31T12:39:08Z</time>
 </trkpt>
 <trkpt lat="47.635544" lon="13.226267">
 <ele>941.03</ele>
 <time>2011-10-31T12:39:13Z</time>
 </trkpt>
 <trkpt lat="47.635437" lon="13.225772">
 <ele>942.18</ele>
 <time>2011-10-31T12:39:20Z</time>
 </trkpt>
 <trkpt lat="47.635395" lon="13.225572">
 <ele>942.74</ele>
 <time>2011-10-31T12:39:23Z</time>
 </trkpt>
 <trkpt lat="47.635242" lon="13.225111">
 <ele>943.70</ele>
 <time>2011-10-31T12:39:31Z</time>
 </trkpt>
 <trkpt lat="47.635132" lon="13.224793">
 <ele>944.30</ele>
 <time>2011-10-31T12:39:37Z</time>
 </trkpt>
 <trkpt lat="47.634975" lon="13.224488">
 <ele>945.06</ele>
 <time>2011-10-31T12:39:44Z</time>
 </trkpt>
 <trkpt lat="47.634865" lon="13.224313">
 <ele>946.12</ele>
 <time>2011-10-31T12:39:50Z</time>
 </trkpt>
 <trkpt lat="47.634777" lon="13.224177">
 <ele>947.14</ele>
 <time>2011-10-31T12:39:55Z</time>
 </trkpt>
 <trkpt lat="47.634674" lon="13.224020">
 <ele>948.29</ele>
 <time>2011-10-31T12:40:00Z</time>
 </trkpt>
 <trkpt lat="47.634598" lon="13.223901">
 <ele>949.22</ele>
 <time>2011-10-31T12:40:05Z</time>
 </trkpt>
 <trkpt lat="47.634510" lon="13.223763">
 <ele>949.97</ele>
 <time>2011-10-31T12:40:11Z</time>
 </trkpt>
 <trkpt lat="47.634510" lon="13.223763">
 <ele>950.04</ele>
 <time>2011-10-31T12:40:14Z</time>
 </trkpt>
 <trkpt lat="47.634510" lon="13.223763">
 <ele>950.15</ele>
 <time>2011-10-31T12:40:56Z</time>
 </trkpt>
 <trkpt lat="47.634487" lon="13.223651">
 <ele>949.66</ele>
 <time>2011-10-31T12:41:01Z</time>
 </trkpt>
 <trkpt lat="47.634472" lon="13.223573">
 <ele>949.27</ele>
 <time>2011-10-31T12:41:03Z</time>
 </trkpt>
 <trkpt lat="47.634453" lon="13.223473">
 <ele>948.56</ele>
 <time>2011-10-31T12:41:05Z</time>
 </trkpt>
 <trkpt lat="47.634407" lon="13.222978">
 <ele>945.91</ele>
 <time>2011-10-31T12:41:10Z</time>
 </trkpt>
 <trkpt lat="47.634415" lon="13.222766">
 <ele>944.17</ele>
 <time>2011-10-31T12:41:12Z</time>
 </trkpt>
 <trkpt lat="47.634426" lon="13.222380">
 <ele>941.02</ele>
 <time>2011-10-31T12:41:16Z</time>
 </trkpt>
 <trkpt lat="47.634430" lon="13.222199">
 <ele>939.88</ele>
 <time>2011-10-31T12:41:18Z</time>
 </trkpt>
 <trkpt lat="47.634441" lon="13.221782">
 <ele>937.70</ele>
 <time>2011-10-31T12:41:22Z</time>
 </trkpt>
 <trkpt lat="47.634411" lon="13.221530">
 <ele>936.14</ele>
 <time>2011-10-31T12:41:25Z</time>
 </trkpt>
 <trkpt lat="47.634239" lon="13.220903">
 <ele>934.02</ele>
 <time>2011-10-31T12:41:31Z</time>
 </trkpt>
 <trkpt lat="47.634136" lon="13.220507">
 <ele>933.53</ele>
 <time>2011-10-31T12:41:35Z</time>
 </trkpt>
 <trkpt lat="47.634060" lon="13.220232">
 <ele>933.55</ele>
 <time>2011-10-31T12:41:38Z</time>
 </trkpt>
 <trkpt lat="47.633720" lon="13.219662">
 <ele>934.12</ele>
 <time>2011-10-31T12:41:46Z</time>
 </trkpt>
 <trkpt lat="47.633633" lon="13.219560">
 <ele>934.17</ele>
 <time>2011-10-31T12:41:48Z</time>
 </trkpt>
 <trkpt lat="47.633411" lon="13.219298">
 <ele>934.08</ele>
 <time>2011-10-31T12:41:53Z</time>
 </trkpt>
 <trkpt lat="47.633114" lon="13.218868">
 <ele>933.76</ele>
 <time>2011-10-31T12:42:00Z</time>
 </trkpt>
 <trkpt lat="47.633038" lon="13.218745">
 <ele>933.88</ele>
 <time>2011-10-31T12:42:02Z</time>
 </trkpt>
 <trkpt lat="47.632748" lon="13.218273">
 <ele>933.97</ele>
 <time>2011-10-31T12:42:09Z</time>
 </trkpt>
 <trkpt lat="47.632496" lon="13.217863">
 <ele>933.89</ele>
 <time>2011-10-31T12:42:15Z</time>
 </trkpt>
 <trkpt lat="47.632454" lon="13.217793">
 <ele>933.87</ele>
 <time>2011-10-31T12:42:16Z</time>
 </trkpt>
 <trkpt lat="47.632183" lon="13.217355">
 <ele>933.28</ele>
 <time>2011-10-31T12:42:22Z</time>
 </trkpt>
 <trkpt lat="47.632023" lon="13.217090">
 <ele>932.80</ele>
 <time>2011-10-31T12:42:26Z</time>
 </trkpt>
 <trkpt lat="47.631901" lon="13.216883">
 <ele>932.35</ele>
 <time>2011-10-31T12:42:29Z</time>
 </trkpt>
 <trkpt lat="47.631695" lon="13.216499">
 <ele>931.91</ele>
 <time>2011-10-31T12:42:34Z</time>
 </trkpt>
 <trkpt lat="47.631660" lon="13.216432">
 <ele>931.86</ele>
 <time>2011-10-31T12:42:35Z</time>
 </trkpt>
 <trkpt lat="47.631470" lon="13.216076">
 <ele>931.80</ele>
 <time>2011-10-31T12:42:40Z</time>
 </trkpt>
 <trkpt lat="47.631428" lon="13.215999">
 <ele>931.89</ele>
 <time>2011-10-31T12:42:41Z</time>
 </trkpt>
 <trkpt lat="47.631222" lon="13.215558">
 <ele>932.43</ele>
 <time>2011-10-31T12:42:47Z</time>
 </trkpt>
 <trkpt lat="47.631058" lon="13.215188">
 <ele>932.49</ele>
 <time>2011-10-31T12:42:52Z</time>
 </trkpt>
 <trkpt lat="47.630947" lon="13.215125">
 <ele>932.22</ele>
 <time>2011-10-31T12:42:55Z</time>
 </trkpt>
 <trkpt lat="47.630733" lon="13.215015">
 <ele>930.81</ele>
 <time>2011-10-31T12:42:59Z</time>
 </trkpt>
 <trkpt lat="47.630398" lon="13.214843">
 <ele>926.55</ele>
 <time>2011-10-31T12:43:04Z</time>
 </trkpt>
 <trkpt lat="47.630184" lon="13.214706">
 <ele>923.31</ele>
 <time>2011-10-31T12:43:07Z</time>
 </trkpt>
 <trkpt lat="47.630077" lon="13.214609">
 <ele>921.30</ele>
 <time>2011-10-31T12:43:09Z</time>
 </trkpt>
 <trkpt lat="47.629921" lon="13.214474">
 <ele>919.29</ele>
 <time>2011-10-31T12:43:12Z</time>
 </trkpt>
 <trkpt lat="47.629681" lon="13.214263">
 <ele>915.22</ele>
 <time>2011-10-31T12:43:16Z</time>
 </trkpt>
 <trkpt lat="47.629578" lon="13.213944">
 <ele>912.13</ele>
 <time>2011-10-31T12:43:19Z</time>
 </trkpt>
 <trkpt lat="47.629745" lon="13.213429">
 <ele>907.25</ele>
 <time>2011-10-31T12:43:24Z</time>
 </trkpt>
 <trkpt lat="47.630157" lon="13.212842">
 <ele>901.87</ele>
 <time>2011-10-31T12:43:30Z</time>
 </trkpt>
 <trkpt lat="47.630634" lon="13.212140">
 <ele>896.70</ele>
 <time>2011-10-31T12:43:36Z</time>
 </trkpt>
 <trkpt lat="47.630680" lon="13.211996">
 <ele>896.70</ele>
 <time>2011-10-31T12:43:37Z</time>
 </trkpt>
 <trkpt lat="47.630936" lon="13.211170">
 <ele>891.82</ele>
 <time>2011-10-31T12:43:43Z</time>
 </trkpt>
 <trkpt lat="47.630974" lon="13.211041">
 <ele>890.95</ele>
 <time>2011-10-31T12:43:44Z</time>
 </trkpt>
 <trkpt lat="47.631260" lon="13.210416">
 <ele>886.23</ele>
 <time>2011-10-31T12:43:49Z</time>
 </trkpt>
 <trkpt lat="47.631535" lon="13.210126">
 <ele>882.21</ele>
 <time>2011-10-31T12:43:53Z</time>
 </trkpt>
 <trkpt lat="47.631744" lon="13.209904">
 <ele>879.62</ele>
 <time>2011-10-31T12:43:56Z</time>
 </trkpt>
 <trkpt lat="47.632206" lon="13.209415">
 <ele>875.61</ele>
 <time>2011-10-31T12:44:02Z</time>
 </trkpt>
 <trkpt lat="47.632282" lon="13.209333">
 <ele>874.85</ele>
 <time>2011-10-31T12:44:03Z</time>
 </trkpt>
 <trkpt lat="47.632763" lon="13.208774">
 <ele>869.60</ele>
 <time>2011-10-31T12:44:09Z</time>
 </trkpt>
 <trkpt lat="47.633083" lon="13.208350">
 <ele>866.27</ele>
 <time>2011-10-31T12:44:13Z</time>
 </trkpt>
 <trkpt lat="47.633499" lon="13.207808">
 <ele>865.14</ele>
 <time>2011-10-31T12:44:19Z</time>
 </trkpt>
 <trkpt lat="47.633797" lon="13.207418">
 <ele>866.27</ele>
 <time>2011-10-31T12:44:24Z</time>
 </trkpt>
 <trkpt lat="47.633911" lon="13.207269">
 <ele>866.53</ele>
 <time>2011-10-31T12:44:26Z</time>
 </trkpt>
 <trkpt lat="47.634094" lon="13.206716">
 <ele>866.54</ele>
 <time>2011-10-31T12:44:32Z</time>
 </trkpt>
 <trkpt lat="47.634117" lon="13.206245">
 <ele>866.66</ele>
 <time>2011-10-31T12:44:37Z</time>
 </trkpt>
 <trkpt lat="47.634125" lon="13.206165">
 <ele>866.70</ele>
 <time>2011-10-31T12:44:38Z</time>
 </trkpt>
 <trkpt lat="47.634155" lon="13.205461">
 <ele>867.47</ele>
 <time>2011-10-31T12:44:46Z</time>
 </trkpt>
 <trkpt lat="47.634193" lon="13.205066">
 <ele>869.07</ele>
 <time>2011-10-31T12:44:52Z</time>
 </trkpt>
 <trkpt lat="47.634228" lon="13.204814">
 <ele>870.83</ele>
 <time>2011-10-31T12:44:58Z</time>
 </trkpt>
 <trkpt lat="47.634254" lon="13.204594">
 <ele>872.64</ele>
 <time>2011-10-31T12:45:04Z</time>
 </trkpt>
 <trkpt lat="47.634285" lon="13.204385">
 <ele>874.54</ele>
 <time>2011-10-31T12:45:10Z</time>
 </trkpt>
 <trkpt lat="47.634308" lon="13.204224">
 <ele>875.96</ele>
 <time>2011-10-31T12:45:15Z</time>
 </trkpt>
 <trkpt lat="47.634338" lon="13.203995">
 <ele>876.73</ele>
 <time>2011-10-31T12:45:23Z</time>
 </trkpt>
 <trkpt lat="47.634354" lon="13.203856">
 <ele>877.04</ele>
 <time>2011-10-31T12:45:28Z</time>
 </trkpt>
 <trkpt lat="47.634201" lon="13.203685">
 <ele>878.42</ele>
 <time>2011-10-31T12:45:35Z</time>
 </trkpt>
 <trkpt lat="47.634102" lon="13.203577">
 <ele>879.86</ele>
 <time>2011-10-31T12:45:43Z</time>
 </trkpt>
 <trkpt lat="47.634003" lon="13.203411">
 <ele>881.55</ele>
 <time>2011-10-31T12:45:52Z</time>
 </trkpt>
 <trkpt lat="47.633907" lon="13.203249">
 <ele>883.36</ele>
 <time>2011-10-31T12:46:01Z</time>
 </trkpt>
 <trkpt lat="47.633835" lon="13.203047">
 <ele>884.94</ele>
 <time>2011-10-31T12:46:10Z</time>
 </trkpt>
 <trkpt lat="47.633755" lon="13.202826">
 <ele>886.89</ele>
 <time>2011-10-31T12:46:20Z</time>
 </trkpt>
 <trkpt lat="47.633678" lon="13.202651">
 <ele>888.09</ele>
 <time>2011-10-31T12:46:28Z</time>
 </trkpt>
 <trkpt lat="47.633575" lon="13.202431">
 <ele>889.07</ele>
 <time>2011-10-31T12:46:38Z</time>
 </trkpt>
 <trkpt lat="47.633457" lon="13.202166">
 <ele>889.93</ele>
 <time>2011-10-31T12:46:48Z</time>
 </trkpt>
 <trkpt lat="47.633381" lon="13.201943">
 <ele>889.66</ele>
 <time>2011-10-31T12:46:54Z</time>
 </trkpt>
 <trkpt lat="47.633354" lon="13.201839">
 <ele>889.39</ele>
 <time>2011-10-31T12:46:56Z</time>
 </trkpt>
 <trkpt lat="47.633297" lon="13.201615">
 <ele>888.69</ele>
 <time>2011-10-31T12:47:00Z</time>
 </trkpt>
 <trkpt lat="47.633186" lon="13.201198">
 <ele>887.79</ele>
 <time>2011-10-31T12:47:07Z</time>
 </trkpt>
 <trkpt lat="47.633106" lon="13.200723">
 <ele>886.68</ele>
 <time>2011-10-31T12:47:14Z</time>
 </trkpt>
 <trkpt lat="47.633015" lon="13.200329">
 <ele>885.51</ele>
 <time>2011-10-31T12:47:19Z</time>
 </trkpt>
 <trkpt lat="47.632977" lon="13.199933">
 <ele>884.18</ele>
 <time>2011-10-31T12:47:23Z</time>
 </trkpt>
 <trkpt lat="47.632969" lon="13.199545">
 <ele>882.01</ele>
 <time>2011-10-31T12:47:27Z</time>
 </trkpt>
 <trkpt lat="47.633045" lon="13.199379">
 <ele>880.43</ele>
 <time>2011-10-31T12:47:29Z</time>
 </trkpt>
 <trkpt lat="47.633156" lon="13.199214">
 <ele>878.60</ele>
 <time>2011-10-31T12:47:31Z</time>
 </trkpt>
 <trkpt lat="47.633389" lon="13.198851">
 <ele>874.26</ele>
 <time>2011-10-31T12:47:35Z</time>
 </trkpt>
 <trkpt lat="47.633396" lon="13.198519">
 <ele>872.23</ele>
 <time>2011-10-31T12:47:38Z</time>
 </trkpt>
 <trkpt lat="47.633362" lon="13.198456">
 <ele>872.03</ele>
 <time>2011-10-31T12:47:39Z</time>
 </trkpt>
 <trkpt lat="47.633217" lon="13.198416">
 <ele>871.42</ele>
 <time>2011-10-31T12:47:42Z</time>
 </trkpt>
 <trkpt lat="47.633167" lon="13.198435">
 <ele>871.08</ele>
 <time>2011-10-31T12:47:43Z</time>
 </trkpt>
 <trkpt lat="47.632870" lon="13.198698">
 <ele>868.45</ele>
 <time>2011-10-31T12:47:48Z</time>
 </trkpt>
 <trkpt lat="47.632790" lon="13.198714">
 <ele>867.46</ele>
 <time>2011-10-31T12:47:49Z</time>
 </trkpt>
 <trkpt lat="47.632324" lon="13.198519">
 <ele>860.84</ele>
 <time>2011-10-31T12:47:54Z</time>
 </trkpt>
 <trkpt lat="47.631947" lon="13.198213">
 <ele>854.41</ele>
 <time>2011-10-31T12:47:58Z</time>
 </trkpt>
 <trkpt lat="47.631344" lon="13.197283">
 <ele>842.37</ele>
 <time>2011-10-31T12:48:05Z</time>
 </trkpt>
 <trkpt lat="47.631264" lon="13.197141">
 <ele>840.95</ele>
 <time>2011-10-31T12:48:06Z</time>
 </trkpt>
 <trkpt lat="47.631115" lon="13.196877">
 <ele>838.58</ele>
 <time>2011-10-31T12:48:08Z</time>
 </trkpt>
 <trkpt lat="47.630749" lon="13.196255">
 <ele>832.32</ele>
 <time>2011-10-31T12:48:13Z</time>
 </trkpt>
 <trkpt lat="47.630665" lon="13.196128">
 <ele>832.31</ele>
 <time>2011-10-31T12:48:14Z</time>
 </trkpt>
 <trkpt lat="47.630367" lon="13.195687">
 <ele>827.04</ele>
 <time>2011-10-31T12:48:18Z</time>
 </trkpt>
 <trkpt lat="47.630302" lon="13.195592">
 <ele>825.90</ele>
 <time>2011-10-31T12:48:19Z</time>
 </trkpt>
 <trkpt lat="47.630100" lon="13.195187">
 <ele>822.47</ele>
 <time>2011-10-31T12:48:23Z</time>
 </trkpt>
 <trkpt lat="47.629936" lon="13.194929">
 <ele>820.06</ele>
 <time>2011-10-31T12:48:26Z</time>
 </trkpt>
 <trkpt lat="47.629868" lon="13.194853">
 <ele>818.92</ele>
 <time>2011-10-31T12:48:27Z</time>
 </trkpt>
 <trkpt lat="47.629723" lon="13.194689">
 <ele>816.10</ele>
 <time>2011-10-31T12:48:29Z</time>
 </trkpt>
 <trkpt lat="47.629433" lon="13.194348">
 <ele>811.09</ele>
 <time>2011-10-31T12:48:33Z</time>
 </trkpt>
 <trkpt lat="47.629265" lon="13.194081">
 <ele>807.89</ele>
 <time>2011-10-31T12:48:36Z</time>
 </trkpt>
 <trkpt lat="47.629189" lon="13.193985">
 <ele>806.88</ele>
 <time>2011-10-31T12:48:37Z</time>
 </trkpt>
 <trkpt lat="47.629021" lon="13.193844">
 <ele>805.69</ele>
 <time>2011-10-31T12:48:39Z</time>
 </trkpt>
 <trkpt lat="47.628529" lon="13.193496">
 <ele>798.42</ele>
 <time>2011-10-31T12:48:44Z</time>
 </trkpt>
 <trkpt lat="47.628162" lon="13.193361">
 <ele>793.91</ele>
 <time>2011-10-31T12:48:48Z</time>
 </trkpt>
 <trkpt lat="47.628059" lon="13.193350">
 <ele>792.77</ele>
 <time>2011-10-31T12:48:49Z</time>
 </trkpt>
 <trkpt lat="47.627392" lon="13.193453">
 <ele>784.68</ele>
 <time>2011-10-31T12:48:55Z</time>
 </trkpt>
 <trkpt lat="47.627182" lon="13.193472">
 <ele>781.73</ele>
 <time>2011-10-31T12:48:57Z</time>
 </trkpt>
 <trkpt lat="47.626686" lon="13.193413">
 <ele>775.03</ele>
 <time>2011-10-31T12:49:02Z</time>
 </trkpt>
 <trkpt lat="47.626598" lon="13.193382">
 <ele>773.86</ele>
 <time>2011-10-31T12:49:03Z</time>
 </trkpt>
 <trkpt lat="47.626396" lon="13.193185">
 <ele>770.81</ele>
 <time>2011-10-31T12:49:07Z</time>
 </trkpt>
 <trkpt lat="47.626347" lon="13.193096">
 <ele>769.81</ele>
 <time>2011-10-31T12:49:08Z</time>
 </trkpt>
 <trkpt lat="47.626076" lon="13.192542">
 <ele>763.42</ele>
 <time>2011-10-31T12:49:13Z</time>
 </trkpt>
 <trkpt lat="47.625919" lon="13.192113">
 <ele>759.09</ele>
 <time>2011-10-31T12:49:16Z</time>
 </trkpt>
 <trkpt lat="47.625652" lon="13.191672">
 <ele>753.71</ele>
 <time>2011-10-31T12:49:20Z</time>
 </trkpt>
 <trkpt lat="47.625233" lon="13.191183">
 <ele>747.30</ele>
 <time>2011-10-31T12:49:25Z</time>
 </trkpt>
 <trkpt lat="47.624897" lon="13.190832">
 <ele>743.51</ele>
 <time>2011-10-31T12:49:29Z</time>
 </trkpt>
 <trkpt lat="47.624805" lon="13.190738">
 <ele>742.01</ele>
 <time>2011-10-31T12:49:30Z</time>
 </trkpt>
 <trkpt lat="47.624485" lon="13.190387">
 <ele>736.35</ele>
 <time>2011-10-31T12:49:34Z</time>
 </trkpt>
 <trkpt lat="47.624149" lon="13.190092">
 <ele>731.44</ele>
 <time>2011-10-31T12:49:38Z</time>
 </trkpt>
 <trkpt lat="47.624039" lon="13.190043">
 <ele>730.28</ele>
 <time>2011-10-31T12:49:39Z</time>
 </trkpt>
 <trkpt lat="47.623573" lon="13.189873">
 <ele>723.89</ele>
 <time>2011-10-31T12:49:44Z</time>
 </trkpt>
 <trkpt lat="47.623493" lon="13.189844">
 <ele>722.69</ele>
 <time>2011-10-31T12:49:45Z</time>
 </trkpt>
 <trkpt lat="47.623222" lon="13.189710">
 <ele>718.46</ele>
 <time>2011-10-31T12:49:49Z</time>
 </trkpt>
 <trkpt lat="47.623127" lon="13.189571">
 <ele>715.99</ele>
 <time>2011-10-31T12:49:51Z</time>
 </trkpt>
 <trkpt lat="47.623024" lon="13.189235">
 <ele>713.83</ele>
 <time>2011-10-31T12:49:54Z</time>
 </trkpt>
 <trkpt lat="47.622894" lon="13.188987">
 <ele>710.52</ele>
 <time>2011-10-31T12:49:57Z</time>
 </trkpt>
 <trkpt lat="47.622677" lon="13.188727">
 <ele>707.01</ele>
 <time>2011-10-31T12:50:00Z</time>
 </trkpt>
 <trkpt lat="47.622417" lon="13.188318">
 <ele>701.64</ele>
 <time>2011-10-31T12:50:04Z</time>
 </trkpt>
 <trkpt lat="47.622219" lon="13.187883">
 <ele>697.40</ele>
 <time>2011-10-31T12:50:08Z</time>
 </trkpt>
 <trkpt lat="47.622147" lon="13.187721">
 <ele>695.48</ele>
 <time>2011-10-31T12:50:11Z</time>
 </trkpt>
 <trkpt lat="47.622189" lon="13.188625">
 <ele>694.50</ele>
 <time>2011-10-31T12:50:13Z</time>
 </trkpt>
 <trkpt lat="47.622253" lon="13.187960">
 <ele>692.30</ele>
 <time>2011-10-31T12:50:16Z</time>
 </trkpt>
 <trkpt lat="47.622276" lon="13.188007">
 <ele>690.34</ele>
 <time>2011-10-31T12:50:19Z</time>
 </trkpt>
 <trkpt lat="47.622288" lon="13.188034">
 <ele>689.28</ele>
 <time>2011-10-31T12:50:20Z</time>
 </trkpt>
 <trkpt lat="47.622364" lon="13.188202">
 <ele>684.54</ele>
 <time>2011-10-31T12:50:24Z</time>
 </trkpt>
 <trkpt lat="47.623535" lon="13.188381">
 <ele>679.24</ele>
 <time>2011-10-31T12:50:28Z</time>
 </trkpt>
 <trkpt lat="47.623566" lon="13.188276">
 <ele>679.24</ele>
 <time>2011-10-31T12:50:29Z</time>
 </trkpt>
 <trkpt lat="47.623856" lon="13.188339">
 <ele>674.70</ele>
 <time>2011-10-31T12:50:32Z</time>
 </trkpt>
 <trkpt lat="47.624050" lon="13.188381">
 <ele>672.79</ele>
 <time>2011-10-31T12:50:34Z</time>
 </trkpt>
 <trkpt lat="47.624363" lon="13.188449">
 <ele>669.45</ele>
 <time>2011-10-31T12:50:37Z</time>
 </trkpt>
 <trkpt lat="47.624928" lon="13.188519">
 <ele>662.67</ele>
 <time>2011-10-31T12:50:42Z</time>
 </trkpt>
 <trkpt lat="47.625118" lon="13.188442">
 <ele>661.40</ele>
 <time>2011-10-31T12:50:44Z</time>
 </trkpt>
 <trkpt lat="47.625359" lon="13.188242">
 <ele>658.23</ele>
 <time>2011-10-31T12:50:47Z</time>
 </trkpt>
 <trkpt lat="47.625530" lon="13.188104">
 <ele>655.95</ele>
 <time>2011-10-31T12:50:50Z</time>
 </trkpt>
 <trkpt lat="47.625423" lon="13.187602">
 <ele>652.78</ele>
 <time>2011-10-31T12:50:53Z</time>
 </trkpt>
 <trkpt lat="47.625572" lon="13.187200">
 <ele>652.78</ele>
 <time>2011-10-31T12:50:54Z</time>
 </trkpt>
 <trkpt lat="47.625244" lon="13.187030">
 <ele>646.62</ele>
 <time>2011-10-31T12:50:57Z</time>
 </trkpt>
 <trkpt lat="47.624973" lon="13.186976">
 <ele>642.83</ele>
 <time>2011-10-31T12:51:00Z</time>
 </trkpt>
 <trkpt lat="47.624725" lon="13.186977">
 <ele>640.25</ele>
 <time>2011-10-31T12:51:03Z</time>
 </trkpt>
 <trkpt lat="47.624638" lon="13.186998">
 <ele>639.56</ele>
 <time>2011-10-31T12:51:04Z</time>
 </trkpt>
 <trkpt lat="47.624176" lon="13.187099">
 <ele>636.26</ele>
 <time>2011-10-31T12:51:09Z</time>
 </trkpt>
 <trkpt lat="47.623917" lon="13.186885">
 <ele>633.93</ele>
 <time>2011-10-31T12:51:12Z</time>
 </trkpt>
 <trkpt lat="47.623772" lon="13.186660">
 <ele>632.09</ele>
 <time>2011-10-31T12:51:14Z</time>
 </trkpt>
 <trkpt lat="47.623489" lon="13.186082">
 <ele>626.80</ele>
 <time>2011-10-31T12:51:19Z</time>
 </trkpt>
 <trkpt lat="47.623356" lon="13.185856">
 <ele>624.42</ele>
 <time>2011-10-31T12:51:21Z</time>
 </trkpt>
 <trkpt lat="47.622547" lon="13.185433">
 <ele>616.21</ele>
 <time>2011-10-31T12:51:28Z</time>
 </trkpt>
 <trkpt lat="47.622433" lon="13.185362">
 <ele>615.11</ele>
 <time>2011-10-31T12:51:29Z</time>
 </trkpt>
 <trkpt lat="47.621849" lon="13.185139">
 <ele>610.94</ele>
 <time>2011-10-31T12:51:34Z</time>
 </trkpt>
 <trkpt lat="47.621750" lon="13.185139">
 <ele>610.09</ele>
 <time>2011-10-31T12:51:35Z</time>
 </trkpt>
 <trkpt lat="47.621483" lon="13.185139">
 <ele>607.73</ele>
 <time>2011-10-31T12:51:39Z</time>
 </trkpt>
 <trkpt lat="47.621410" lon="13.185139">
 <ele>607.06</ele>
 <time>2011-10-31T12:51:41Z</time>
 </trkpt>
 <trkpt lat="47.621426" lon="13.185139">
 <ele>606.24</ele>
 <time>2011-10-31T12:51:43Z</time>
 </trkpt>
 <trkpt lat="47.621529" lon="13.185139">
 <ele>605.49</ele>
 <time>2011-10-31T12:51:45Z</time>
 </trkpt>
 <trkpt lat="47.621666" lon="13.185139">
 <ele>604.37</ele>
 <time>2011-10-31T12:51:47Z</time>
 </trkpt>
 <trkpt lat="47.621941" lon="13.184758">
 <ele>602.12</ele>
 <time>2011-10-31T12:51:51Z</time>
 </trkpt>
 <trkpt lat="47.622353" lon="13.184266">
 <ele>597.63</ele>
 <time>2011-10-31T12:51:57Z</time>
 </trkpt>
 <trkpt lat="47.622505" lon="13.184078">
 <ele>596.80</ele>
 <time>2011-10-31T12:51:59Z</time>
 </trkpt>
 <trkpt lat="47.622925" lon="13.183596">
 <ele>591.67</ele>
 <time>2011-10-31T12:52:04Z</time>
 </trkpt>
 <trkpt lat="47.623009" lon="13.183504">
 <ele>590.54</ele>
 <time>2011-10-31T12:52:05Z</time>
 </trkpt>
 <trkpt lat="47.623161" lon="13.183342">
 <ele>588.27</ele>
 <time>2011-10-31T12:52:07Z</time>
 </trkpt>
 <trkpt lat="47.623394" lon="13.183036">
 <ele>584.26</ele>
 <time>2011-10-31T12:52:11Z</time>
 </trkpt>
 <trkpt lat="47.623409" lon="13.182731">
 <ele>581.73</ele>
 <time>2011-10-31T12:52:14Z</time>
 </trkpt>
 <trkpt lat="47.623405" lon="13.182618">
 <ele>580.83</ele>
 <time>2011-10-31T12:52:15Z</time>
 </trkpt>
 <trkpt lat="47.623131" lon="13.181868">
 <ele>574.67</ele>
 <time>2011-10-31T12:52:21Z</time>
 </trkpt>
 <trkpt lat="47.622990" lon="13.181419">
 <ele>572.06</ele>
 <time>2011-10-31T12:52:24Z</time>
 </trkpt>
 <trkpt lat="47.622677" lon="13.180878">
 <ele>566.48</ele>
 <time>2011-10-31T12:52:28Z</time>
 </trkpt>
 <trkpt lat="47.622448" lon="13.180320">
 <ele>560.42</ele>
 <time>2011-10-31T12:52:32Z</time>
 </trkpt>
 <trkpt lat="47.622341" lon="13.179451">
 <ele>551.97</ele>
 <time>2011-10-31T12:52:37Z</time>
 </trkpt>
 <trkpt lat="47.622326" lon="13.179279">
 <ele>550.31</ele>
 <time>2011-10-31T12:52:38Z</time>
 </trkpt>
 <trkpt lat="47.622082" lon="13.178738">
 <ele>543.78</ele>
 <time>2011-10-31T12:52:42Z</time>
 </trkpt>
 <trkpt lat="47.621952" lon="13.178470">
 <ele>540.88</ele>
 <time>2011-10-31T12:52:44Z</time>
 </trkpt>
 <trkpt lat="47.621761" lon="13.177848">
 <ele>535.40</ele>
 <time>2011-10-31T12:52:49Z</time>
 </trkpt>
 <trkpt lat="47.621651" lon="13.177111">
 <ele>528.80</ele>
 <time>2011-10-31T12:52:54Z</time>
 </trkpt>
 <trkpt lat="47.621418" lon="13.176296">
 <ele>523.29</ele>
 <time>2011-10-31T12:53:00Z</time>
 </trkpt>
 <trkpt lat="47.621189" lon="13.175789">
 <ele>521.38</ele>
 <time>2011-10-31T12:53:04Z</time>
 </trkpt>
 <trkpt lat="47.621078" lon="13.175302">
 <ele>520.48</ele>
 <time>2011-10-31T12:53:08Z</time>
 </trkpt>
 <trkpt lat="47.621071" lon="13.175175">
 <ele>520.53</ele>
 <time>2011-10-31T12:53:09Z</time>
 </trkpt>
 <trkpt lat="47.621052" lon="13.174927">
 <ele>520.72</ele>
 <time>2011-10-31T12:53:11Z</time>
 </trkpt>
 <trkpt lat="47.620953" lon="13.174450">
 <ele>520.46</ele>
 <time>2011-10-31T12:53:15Z</time>
 </trkpt>
 <trkpt lat="47.620781" lon="13.174000">
 <ele>519.42</ele>
 <time>2011-10-31T12:53:19Z</time>
 </trkpt>
 <trkpt lat="47.620754" lon="13.173499">
 <ele>516.97</ele>
 <time>2011-10-31T12:53:23Z</time>
 </trkpt>
 <trkpt lat="47.620766" lon="13.173076">
 <ele>514.80</ele>
 <time>2011-10-31T12:53:26Z</time>
 </trkpt>
 <trkpt lat="47.620667" lon="13.172716">
 <ele>513.38</ele>
 <time>2011-10-31T12:53:29Z</time>
 </trkpt>
 <trkpt lat="47.620461" lon="13.172526">
 <ele>512.27</ele>
 <time>2011-10-31T12:53:32Z</time>
 </trkpt>
 <trkpt lat="47.620247" lon="13.172529">
 <ele>510.70</ele>
 <time>2011-10-31T12:53:35Z</time>
 </trkpt>
 <trkpt lat="47.620090" lon="13.172608">
 <ele>509.02</ele>
 <time>2011-10-31T12:53:37Z</time>
 </trkpt>
 <trkpt lat="47.619919" lon="13.172764">
 <ele>506.87</ele>
 <time>2011-10-31T12:53:39Z</time>
 </trkpt>
 <trkpt lat="47.619492" lon="13.173002">
 <ele>502.97</ele>
 <time>2011-10-31T12:53:43Z</time>
 </trkpt>
 <trkpt lat="47.619156" lon="13.173330">
 <ele>497.75</ele>
 <time>2011-10-31T12:53:47Z</time>
 </trkpt>
 <trkpt lat="47.618809" lon="13.173597">
 <ele>491.84</ele>
 <time>2011-10-31T12:53:52Z</time>
 </trkpt>
 <trkpt lat="47.618645" lon="13.173506">
 <ele>489.12</ele>
 <time>2011-10-31T12:53:54Z</time>
 </trkpt>
 <trkpt lat="47.618359" lon="13.173319">
 <ele>484.38</ele>
 <time>2011-10-31T12:53:57Z</time>
 </trkpt>
 <trkpt lat="47.618130" lon="13.172979">
 <ele>478.46</ele>
 <time>2011-10-31T12:54:01Z</time>
 </trkpt>
 <trkpt lat="47.617992" lon="13.172601">
 <ele>475.47</ele>
 <time>2011-10-31T12:54:04Z</time>
 </trkpt>
 <trkpt lat="47.617836" lon="13.172388">
 <ele>472.88</ele>
 <time>2011-10-31T12:54:06Z</time>
 </trkpt>
 <trkpt lat="47.617371" lon="13.171729">
 <ele>466.21</ele>
 <time>2011-10-31T12:54:12Z</time>
 </trkpt>
 <trkpt lat="47.617226" lon="13.171567">
 <ele>465.34</ele>
 <time>2011-10-31T12:54:14Z</time>
 </trkpt>
 <trkpt lat="47.617039" lon="13.171121">
 <ele>465.90</ele>
 <time>2011-10-31T12:54:18Z</time>
 </trkpt>
 <trkpt lat="47.616787" lon="13.170710">
 <ele>466.82</ele>
 <time>2011-10-31T12:54:23Z</time>
 </trkpt>
 <trkpt lat="47.616554" lon="13.170427">
 <ele>466.65</ele>
 <time>2011-10-31T12:54:27Z</time>
 </trkpt>
 <trkpt lat="47.616322" lon="13.169989">
 <ele>466.21</ele>
 <time>2011-10-31T12:54:32Z</time>
 </trkpt>
 <trkpt lat="47.616058" lon="13.169295">
 <ele>464.75</ele>
 <time>2011-10-31T12:54:39Z</time>
 </trkpt>
 <trkpt lat="47.615822" lon="13.168535">
 <ele>462.96</ele>
 <time>2011-10-31T12:54:46Z</time>
 </trkpt>
 <trkpt lat="47.615540" lon="13.167786">
 <ele>461.80</ele>
 <time>2011-10-31T12:54:53Z</time>
 </trkpt>
 <trkpt lat="47.615196" lon="13.167209">
 <ele>461.08</ele>
 <time>2011-10-31T12:54:59Z</time>
 </trkpt>
 <trkpt lat="47.615036" lon="13.166694">
 <ele>460.44</ele>
 <time>2011-10-31T12:55:04Z</time>
 </trkpt>
 <trkpt lat="47.615017" lon="13.166579">
 <ele>460.27</ele>
 <time>2011-10-31T12:55:05Z</time>
 </trkpt>
 <trkpt lat="47.614925" lon="13.166012">
 <ele>459.79</ele>
 <time>2011-10-31T12:55:10Z</time>
 </trkpt>
 <trkpt lat="47.614712" lon="13.165246">
 <ele>458.29</ele>
 <time>2011-10-31T12:55:17Z</time>
 </trkpt>
 <trkpt lat="47.614651" lon="13.165061">
 <ele>458.08</ele>
 <time>2011-10-31T12:55:19Z</time>
 </trkpt>
 <trkpt lat="47.614586" lon="13.164858">
 <ele>458.19</ele>
 <time>2011-10-31T12:55:23Z</time>
 </trkpt>
 <trkpt lat="47.614574" lon="13.164813">
 <ele>458.26</ele>
 <time>2011-10-31T12:55:25Z</time>
 </trkpt>
 <trkpt lat="47.614555" lon="13.164754">
 <ele>458.43</ele>
 <time>2011-10-31T12:55:30Z</time>
 </trkpt>
 <trkpt lat="47.614555" lon="13.164754">
 <ele>458.43</ele>
 <time>2011-10-31T12:55:31Z</time>
 </trkpt>
 <trkpt lat="47.614555" lon="13.164754">
 <ele>458.43</ele>
 <time>2011-10-31T12:55:33Z</time>
 </trkpt>
 <trkpt lat="47.614269" lon="13.165176">
 <ele>458.06</ele>
 <time>2011-10-31T12:55:39Z</time>
 </trkpt>
 <trkpt lat="47.614017" lon="13.165548">
 <ele>458.14</ele>
 <time>2011-10-31T12:55:46Z</time>
 </trkpt>
 <trkpt lat="47.613708" lon="13.166034">
 <ele>458.24</ele>
 <time>2011-10-31T12:55:54Z</time>
 </trkpt>
 <trkpt lat="47.613167" lon="13.166493">
 <ele>457.75</ele>
 <time>2011-10-31T12:56:04Z</time>
 </trkpt>
 <trkpt lat="47.612644" lon="13.166846">
 <ele>457.96</ele>
 <time>2011-10-31T12:56:13Z</time>
 </trkpt>
 <trkpt lat="47.612038" lon="13.167185">
 <ele>457.73</ele>
 <time>2011-10-31T12:56:23Z</time>
 </trkpt>
 <trkpt lat="47.611790" lon="13.167280">
 <ele>457.72</ele>
 <time>2011-10-31T12:56:27Z</time>
 </trkpt>
 <trkpt lat="47.611206" lon="13.167455">
 <ele>457.08</ele>
 <time>2011-10-31T12:56:36Z</time>
 </trkpt>
 <trkpt lat="47.610340" lon="13.167546">
 <ele>456.66</ele>
 <time>2011-10-31T12:56:49Z</time>
 </trkpt>
 <trkpt lat="47.609634" lon="13.167613">
 <ele>455.52</ele>
 <time>2011-10-31T12:56:59Z</time>
 </trkpt>
 <trkpt lat="47.609135" lon="13.167654">
 <ele>455.18</ele>
 <time>2011-10-31T12:57:06Z</time>
 </trkpt>
 <trkpt lat="47.608936" lon="13.167670">
 <ele>454.87</ele>
 <time>2011-10-31T12:57:09Z</time>
 </trkpt>
 <trkpt lat="47.608742" lon="13.167686">
 <ele>454.18</ele>
 <time>2011-10-31T12:57:13Z</time>
 </trkpt>
 <trkpt lat="47.608479" lon="13.167114">
 <ele>452.73</ele>
 <time>2011-10-31T12:57:20Z</time>
 </trkpt>
 <trkpt lat="47.608307" lon="13.166124">
 <ele>450.30</ele>
 <time>2011-10-31T12:57:26Z</time>
 </trkpt>
 <trkpt lat="47.608135" lon="13.165091">
 <ele>447.67</ele>
 <time>2011-10-31T12:57:35Z</time>
 </trkpt>
 <trkpt lat="47.608002" lon="13.164286">
 <ele>448.05</ele>
 <time>2011-10-31T12:57:43Z</time>
 </trkpt>
 <trkpt lat="47.607807" lon="13.163225">
 <ele>446.90</ele>
 <time>2011-10-31T12:57:54Z</time>
 </trkpt>
 <trkpt lat="47.607601" lon="13.162388">
 <ele>446.43</ele>
 <time>2011-10-31T12:58:03Z</time>
 </trkpt>
 <trkpt lat="47.607422" lon="13.161892">
 <ele>445.81</ele>
 <time>2011-10-31T12:58:09Z</time>
 </trkpt>
 <trkpt lat="47.607208" lon="13.161514">
 <ele>446.00</ele>
 <time>2011-10-31T12:58:14Z</time>
 </trkpt>
 <trkpt lat="47.606930" lon="13.161332">
 <ele>446.24</ele>
 <time>2011-10-31T12:58:19Z</time>
 </trkpt>
 <trkpt lat="47.606808" lon="13.161362">
 <ele>446.32</ele>
 <time>2011-10-31T12:58:21Z</time>
 </trkpt>
 <trkpt lat="47.606171" lon="13.161703">
 <ele>446.41</ele>
 <time>2011-10-31T12:58:32Z</time>
 </trkpt>
 <trkpt lat="47.605595" lon="13.162048">
 <ele>445.71</ele>
 <time>2011-10-31T12:58:41Z</time>
 </trkpt>
 <trkpt lat="47.605160" lon="13.162420">
 <ele>444.71</ele>
 <time>2011-10-31T12:58:48Z</time>
 </trkpt>
 <trkpt lat="47.604881" lon="13.162704">
 <ele>444.99</ele>
 <time>2011-10-31T12:58:53Z</time>
 </trkpt>
 <trkpt lat="47.604603" lon="13.162829">
 <ele>445.62</ele>
 <time>2011-10-31T12:58:58Z</time>
 </trkpt>
 <trkpt lat="47.604027" lon="13.162973">
 <ele>446.50</ele>
 <time>2011-10-31T12:59:08Z</time>
 </trkpt>
 <trkpt lat="47.603073" lon="13.163724">
 <ele>446.08</ele>
 <time>2011-10-31T12:59:16Z</time>
 </trkpt>
 <trkpt lat="47.603073" lon="13.163724">
 <ele>445.60</ele>
 <time>2011-10-31T12:59:20Z</time>
 </trkpt>
 <trkpt lat="47.602982" lon="13.163768">
 <ele>445.32</ele>
 <time>2011-10-31T12:59:27Z</time>
 </trkpt>
 <trkpt lat="47.602566" lon="13.163970">
 <ele>445.13</ele>
 <time>2011-10-31T12:59:34Z</time>
 </trkpt>
 <trkpt lat="47.602119" lon="13.164204">
 <ele>445.45</ele>
 <time>2011-10-31T12:59:42Z</time>
 </trkpt>
 <trkpt lat="47.601696" lon="13.164374">
 <ele>445.27</ele>
 <time>2011-10-31T12:59:50Z</time>
 </trkpt>
 <trkpt lat="47.601463" lon="13.164394">
 <ele>445.54</ele>
 <time>2011-10-31T12:59:54Z</time>
 </trkpt>
 <trkpt lat="47.600990" lon="13.164527">
 <ele>446.56</ele>
 <time>2011-10-31T13:00:03Z</time>
 </trkpt>
 <trkpt lat="47.600639" lon="13.164680">
 <ele>447.57</ele>
 <time>2011-10-31T13:00:11Z</time>
 </trkpt>
 <trkpt lat="47.600212" lon="13.164864">
 <ele>447.38</ele>
 <time>2011-10-31T13:00:19Z</time>
 </trkpt>
 <trkpt lat="47.599876" lon="13.165010">
 <ele>447.32</ele>
 <time>2011-10-31T13:00:25Z</time>
 </trkpt>
 <trkpt lat="47.599308" lon="13.165264">
 <ele>446.99</ele>
 <time>2011-10-31T13:00:35Z</time>
 </trkpt>
 <trkpt lat="47.598743" lon="13.165550">
 <ele>446.96</ele>
 <time>2011-10-31T13:00:45Z</time>
 </trkpt>
 <trkpt lat="47.598320" lon="13.165798">
 <ele>446.56</ele>
 <time>2011-10-31T13:00:53Z</time>
 </trkpt>
 <trkpt lat="47.598003" lon="13.165996">
 <ele>446.75</ele>
 <time>2011-10-31T13:00:59Z</time>
 </trkpt>
 <trkpt lat="47.597809" lon="13.166120">
 <ele>447.27</ele>
 <time>2011-10-31T13:01:03Z</time>
 </trkpt>
 <trkpt lat="47.597603" lon="13.166385">
 <ele>447.39</ele>
 <time>2011-10-31T13:01:07Z</time>
 </trkpt>
 <trkpt lat="47.597305" lon="13.166032">
 <ele>447.42</ele>
 <time>2011-10-31T13:01:13Z</time>
 </trkpt>
 <trkpt lat="47.597004" lon="13.166067">
 <ele>447.17</ele>
 <time>2011-10-31T13:01:19Z</time>
 </trkpt>
 <trkpt lat="47.596718" lon="13.166224">
 <ele>446.82</ele>
 <time>2011-10-31T13:01:25Z</time>
 </trkpt>
 <trkpt lat="47.596310" lon="13.166643">
 <ele>446.58</ele>
 <time>2011-10-31T13:01:33Z</time>
 </trkpt>
 <trkpt lat="47.596008" lon="13.166957">
 <ele>446.58</ele>
 <time>2011-10-31T13:01:39Z</time>
 </trkpt>
 <trkpt lat="47.595703" lon="13.167270">
 <ele>446.73</ele>
 <time>2011-10-31T13:01:45Z</time>
 </trkpt>
 <trkpt lat="47.595570" lon="13.167544">
 <ele>446.68</ele>
 <time>2011-10-31T13:01:49Z</time>
 </trkpt>
 <trkpt lat="47.595524" lon="13.168012">
 <ele>446.81</ele>
 <time>2011-10-31T13:01:54Z</time>
 </trkpt>
 <trkpt lat="47.595448" lon="13.168736">
 <ele>448.25</ele>
 <time>2011-10-31T13:02:03Z</time>
 </trkpt>
 <trkpt lat="47.595264" lon="13.169565">
 <ele>448.45</ele>
 <time>2011-10-31T13:02:13Z</time>
 </trkpt>
 <trkpt lat="47.595078" lon="13.169950">
 <ele>448.76</ele>
 <time>2011-10-31T13:02:18Z</time>
 </trkpt>
 <trkpt lat="47.595032" lon="13.169999">
 <ele>448.89</ele>
 <time>2011-10-31T13:02:19Z</time>
 </trkpt>
 <trkpt lat="47.594681" lon="13.170397">
 <ele>451.07</ele>
 <time>2011-10-31T13:02:28Z</time>
 </trkpt>
 <trkpt lat="47.594448" lon="13.170668">
 <ele>452.24</ele>
 <time>2011-10-31T13:02:34Z</time>
 </trkpt>
 <trkpt lat="47.594086" lon="13.171255">
 <ele>453.11</ele>
 <time>2011-10-31T13:02:45Z</time>
 </trkpt>
 <trkpt lat="47.593658" lon="13.171869">
 <ele>453.57</ele>
 <time>2011-10-31T13:02:57Z</time>
 </trkpt>
 <trkpt lat="47.593395" lon="13.172289">
 <ele>453.33</ele>
 <time>2011-10-31T13:03:04Z</time>
 </trkpt>
 <trkpt lat="47.593266" lon="13.172512">
 <ele>453.93</ele>
 <time>2011-10-31T13:03:08Z</time>
 </trkpt>
 <trkpt lat="47.593159" lon="13.172693">
 <ele>454.80</ele>
 <time>2011-10-31T13:03:15Z</time>
 </trkpt>
 <trkpt lat="47.593159" lon="13.172693">
 <ele>454.83</ele>
 <time>2011-10-31T13:03:17Z</time>
 </trkpt>
 <trkpt lat="47.593159" lon="13.172693">
 <ele>454.34</ele>
 <time>2011-10-31T13:03:21Z</time>
 </trkpt>
 <trkpt lat="47.592754" lon="13.173425">
 <ele>453.40</ele>
 <time>2011-10-31T13:03:27Z</time>
 </trkpt>
 <trkpt lat="47.592518" lon="13.173851">
 <ele>453.88</ele>
 <time>2011-10-31T13:03:33Z</time>
 </trkpt>
 <trkpt lat="47.592205" lon="13.174471">
 <ele>454.13</ele>
 <time>2011-10-31T13:03:42Z</time>
 </trkpt>
 <trkpt lat="47.592045" lon="13.174752">
 <ele>454.08</ele>
 <time>2011-10-31T13:03:46Z</time>
 </trkpt>
 <trkpt lat="47.591606" lon="13.175575">
 <ele>453.18</ele>
 <time>2011-10-31T13:03:57Z</time>
 </trkpt>
 <trkpt lat="47.591248" lon="13.176244">
 <ele>453.23</ele>
 <time>2011-10-31T13:04:06Z</time>
 </trkpt>
 <trkpt lat="47.591148" lon="13.176438">
 <ele>453.49</ele>
 <time>2011-10-31T13:04:09Z</time>
 </trkpt>
 <trkpt lat="47.590714" lon="13.176472">
 <ele>454.34</ele>
 <time>2011-10-31T13:04:15Z</time>
 </trkpt>
 <trkpt lat="47.590168" lon="13.176499">
 <ele>455.27</ele>
 <time>2011-10-31T13:04:25Z</time>
 </trkpt>
 <trkpt lat="47.589680" lon="13.176472">
 <ele>455.44</ele>
 <time>2011-10-31T13:04:34Z</time>
 </trkpt>
 <trkpt lat="47.589348" lon="13.176601">
 <ele>455.33</ele>
 <time>2011-10-31T13:04:40Z</time>
 </trkpt>
 <trkpt lat="47.589012" lon="13.176909">
 <ele>454.83</ele>
 <time>2011-10-31T13:04:47Z</time>
 </trkpt>
 <trkpt lat="47.588600" lon="13.177414">
 <ele>454.77</ele>
 <time>2011-10-31T13:04:56Z</time>
 </trkpt>
 <trkpt lat="47.588131" lon="13.177982">
 <ele>454.35</ele>
 <time>2011-10-31T13:05:06Z</time>
 </trkpt>
 <trkpt lat="47.587608" lon="13.178536">
 <ele>454.22</ele>
 <time>2011-10-31T13:05:17Z</time>
 </trkpt>
 <trkpt lat="47.587147" lon="13.179022">
 <ele>454.43</ele>
 <time>2011-10-31T13:05:27Z</time>
 </trkpt>
 <trkpt lat="47.586639" lon="13.179560">
 <ele>454.39</ele>
 <time>2011-10-31T13:05:38Z</time>
 </trkpt>
 <trkpt lat="47.586201" lon="13.180026">
 <ele>454.78</ele>
 <time>2011-10-31T13:05:48Z</time>
 </trkpt>
 <trkpt lat="47.585808" lon="13.180441">
 <ele>455.25</ele>
 <time>2011-10-31T13:05:57Z</time>
 </trkpt>
 <trkpt lat="47.585396" lon="13.181078">
 <ele>455.20</ele>
 <time>2011-10-31T13:06:08Z</time>
 </trkpt>
 <trkpt lat="47.585037" lon="13.181606">
 <ele>455.54</ele>
 <time>2011-10-31T13:06:17Z</time>
 </trkpt>
 <trkpt lat="47.584591" lon="13.181941">
 <ele>455.59</ele>
 <time>2011-10-31T13:06:27Z</time>
 </trkpt>
 <trkpt lat="47.584114" lon="13.182295">
 <ele>455.73</ele>
 <time>2011-10-31T13:06:37Z</time>
 </trkpt>
 <trkpt lat="47.583664" lon="13.182412">
 <ele>455.95</ele>
 <time>2011-10-31T13:06:46Z</time>
 </trkpt>
 <trkpt lat="47.583267" lon="13.182436">
 <ele>456.34</ele>
 <time>2011-10-31T13:06:54Z</time>
 </trkpt>
 <trkpt lat="47.582916" lon="13.182455">
 <ele>457.05</ele>
 <time>2011-10-31T13:07:02Z</time>
 </trkpt>
 <trkpt lat="47.582657" lon="13.182470">
 <ele>458.48</ele>
 <time>2011-10-31T13:07:09Z</time>
 </trkpt>
 <trkpt lat="47.582382" lon="13.182535">
 <ele>459.85</ele>
 <time>2011-10-31T13:07:18Z</time>
 </trkpt>
 <trkpt lat="47.582142" lon="13.182650">
 <ele>460.78</ele>
 <time>2011-10-31T13:07:27Z</time>
 </trkpt>
 <trkpt lat="47.581905" lon="13.182764">
 <ele>462.27</ele>
 <time>2011-10-31T13:07:36Z</time>
 </trkpt>
 <trkpt lat="47.581738" lon="13.182907">
 <ele>463.56</ele>
 <time>2011-10-31T13:07:44Z</time>
 </trkpt>
 <trkpt lat="47.581547" lon="13.183118">
 <ele>465.08</ele>
 <time>2011-10-31T13:07:54Z</time>
 </trkpt>
 <trkpt lat="47.581390" lon="13.183297">
 <ele>466.67</ele>
 <time>2011-10-31T13:08:03Z</time>
 </trkpt>
 <trkpt lat="47.581287" lon="13.183502">
 <ele>467.90</ele>
 <time>2011-10-31T13:08:11Z</time>
 </trkpt>
 <trkpt lat="47.581215" lon="13.183795">
 <ele>469.39</ele>
 <time>2011-10-31T13:08:21Z</time>
 </trkpt>
 <trkpt lat="47.581139" lon="13.184115">
 <ele>471.39</ele>
 <time>2011-10-31T13:08:32Z</time>
 </trkpt>
 <trkpt lat="47.581066" lon="13.184424">
 <ele>472.86</ele>
 <time>2011-10-31T13:08:43Z</time>
 </trkpt>
 <trkpt lat="47.580994" lon="13.184729">
 <ele>474.23</ele>
 <time>2011-10-31T13:08:54Z</time>
 </trkpt>
 <trkpt lat="47.580917" lon="13.185038">
 <ele>475.73</ele>
 <time>2011-10-31T13:09:05Z</time>
 </trkpt>
 <trkpt lat="47.580856" lon="13.185289">
 <ele>476.94</ele>
 <time>2011-10-31T13:09:14Z</time>
 </trkpt>
 <trkpt lat="47.580814" lon="13.185476">
 <ele>478.04</ele>
 <time>2011-10-31T13:09:21Z</time>
 </trkpt>
 <trkpt lat="47.580761" lon="13.185698">
 <ele>479.32</ele>
 <time>2011-10-31T13:09:29Z</time>
 </trkpt>
 <trkpt lat="47.580704" lon="13.185942">
 <ele>480.48</ele>
 <time>2011-10-31T13:09:38Z</time>
 </trkpt>
 <trkpt lat="47.580647" lon="13.186186">
 <ele>482.06</ele>
 <time>2011-10-31T13:09:47Z</time>
 </trkpt>
 <trkpt lat="47.580589" lon="13.186427">
 <ele>483.48</ele>
 <time>2011-10-31T13:09:56Z</time>
 </trkpt>
 <trkpt lat="47.580509" lon="13.186727">
 <ele>485.01</ele>
 <time>2011-10-31T13:10:06Z</time>
 </trkpt>
 <trkpt lat="47.580391" lon="13.186946">
 <ele>486.41</ele>
 <time>2011-10-31T13:10:16Z</time>
 </trkpt>
 <trkpt lat="47.580296" lon="13.187126">
 <ele>487.74</ele>
 <time>2011-10-31T13:10:24Z</time>
 </trkpt>
 <trkpt lat="47.580193" lon="13.187317">
 <ele>489.00</ele>
 <time>2011-10-31T13:10:33Z</time>
 </trkpt>
 <trkpt lat="47.580074" lon="13.187537">
 <ele>490.45</ele>
 <time>2011-10-31T13:10:43Z</time>
 </trkpt>
 <trkpt lat="47.579960" lon="13.187746">
 <ele>491.72</ele>
 <time>2011-10-31T13:10:52Z</time>
 </trkpt>
 <trkpt lat="47.579865" lon="13.187925">
 <ele>493.12</ele>
 <time>2011-10-31T13:11:00Z</time>
 </trkpt>
 <trkpt lat="47.579769" lon="13.188104">
 <ele>494.16</ele>
 <time>2011-10-31T13:11:08Z</time>
 </trkpt>
 <trkpt lat="47.579678" lon="13.188275">
 <ele>495.21</ele>
 <time>2011-10-31T13:11:16Z</time>
 </trkpt>
 <trkpt lat="47.579540" lon="13.188524">
 <ele>496.90</ele>
 <time>2011-10-31T13:11:27Z</time>
 </trkpt>
 <trkpt lat="47.579437" lon="13.188733">
 <ele>498.37</ele>
 <time>2011-10-31T13:11:37Z</time>
 </trkpt>
 <trkpt lat="47.579350" lon="13.188951">
 <ele>499.57</ele>
 <time>2011-10-31T13:11:46Z</time>
 </trkpt>
 <trkpt lat="47.579262" lon="13.189168">
 <ele>500.64</ele>
 <time>2011-10-31T13:11:55Z</time>
 </trkpt>
 <trkpt lat="47.579174" lon="13.189376">
 <ele>501.76</ele>
 <time>2011-10-31T13:12:04Z</time>
 </trkpt>
 <trkpt lat="47.579086" lon="13.189587">
 <ele>502.63</ele>
 <time>2011-10-31T13:12:13Z</time>
 </trkpt>
 <trkpt lat="47.579014" lon="13.189762">
 <ele>504.14</ele>
 <time>2011-10-31T13:12:21Z</time>
 </trkpt>
 <trkpt lat="47.578922" lon="13.189982">
 <ele>505.27</ele>
 <time>2011-10-31T13:12:30Z</time>
 </trkpt>
 <trkpt lat="47.578808" lon="13.190267">
 <ele>506.97</ele>
 <time>2011-10-31T13:12:42Z</time>
 </trkpt>
 <trkpt lat="47.578720" lon="13.190480">
 <ele>508.45</ele>
 <time>2011-10-31T13:12:51Z</time>
 </trkpt>
 <trkpt lat="47.578640" lon="13.190672">
 <ele>509.54</ele>
 <time>2011-10-31T13:12:59Z</time>
 </trkpt>
 <trkpt lat="47.578560" lon="13.190863">
 <ele>510.64</ele>
 <time>2011-10-31T13:13:07Z</time>
 </trkpt>
 <trkpt lat="47.578484" lon="13.191051">
 <ele>511.81</ele>
 <time>2011-10-31T13:13:15Z</time>
 </trkpt>
 <trkpt lat="47.578396" lon="13.191269">
 <ele>513.01</ele>
 <time>2011-10-31T13:13:24Z</time>
 </trkpt>
 <trkpt lat="47.578304" lon="13.191485">
 <ele>514.37</ele>
 <time>2011-10-31T13:13:33Z</time>
 </trkpt>
 <trkpt lat="47.578217" lon="13.191700">
 <ele>515.62</ele>
 <time>2011-10-31T13:13:42Z</time>
 </trkpt>
 <trkpt lat="47.578114" lon="13.191951">
 <ele>516.44</ele>
 <time>2011-10-31T13:13:52Z</time>
 </trkpt>
 <trkpt lat="47.578026" lon="13.192164">
 <ele>517.48</ele>
 <time>2011-10-31T13:14:01Z</time>
 </trkpt>
 <trkpt lat="47.577927" lon="13.192408">
 <ele>519.13</ele>
 <time>2011-10-31T13:14:11Z</time>
 </trkpt>
 <trkpt lat="47.577824" lon="13.192650">
 <ele>520.84</ele>
 <time>2011-10-31T13:14:21Z</time>
 </trkpt>
 <trkpt lat="47.577747" lon="13.192843">
 <ele>522.01</ele>
 <time>2011-10-31T13:14:29Z</time>
 </trkpt>
 <trkpt lat="47.577641" lon="13.193057">
 <ele>523.15</ele>
 <time>2011-10-31T13:14:39Z</time>
 </trkpt>
 <trkpt lat="47.577534" lon="13.193255">
 <ele>524.27</ele>
 <time>2011-10-31T13:14:48Z</time>
 </trkpt>
 <trkpt lat="47.577423" lon="13.193463">
 <ele>525.21</ele>
 <time>2011-10-31T13:14:57Z</time>
 </trkpt>
 <trkpt lat="47.577312" lon="13.193669">
 <ele>525.82</ele>
 <time>2011-10-31T13:15:06Z</time>
 </trkpt>
 <trkpt lat="47.577209" lon="13.193858">
 <ele>526.23</ele>
 <time>2011-10-31T13:15:14Z</time>
 </trkpt>
 <trkpt lat="47.577068" lon="13.194117">
 <ele>526.62</ele>
 <time>2011-10-31T13:15:23Z</time>
 </trkpt>
 <trkpt lat="47.576900" lon="13.194335">
 <ele>527.14</ele>
 <time>2011-10-31T13:15:29Z</time>
 </trkpt>
 <trkpt lat="47.576691" lon="13.194378">
 <ele>527.10</ele>
 <time>2011-10-31T13:15:36Z</time>
 </trkpt>
 <trkpt lat="47.576668" lon="13.194382">
 <ele>527.08</ele>
 <time>2011-10-31T13:15:37Z</time>
 </trkpt>
 <trkpt lat="47.576508" lon="13.194415">
 <ele>526.67</ele>
 <time>2011-10-31T13:15:56Z</time>
 </trkpt>
 <trkpt lat="47.576473" lon="13.194421">
 <ele>526.27</ele>
 <time>2011-10-31T13:16:00Z</time>
 </trkpt>
 <trkpt lat="47.575626" lon="13.194593">
 <ele>526.29</ele>
 <time>2011-10-31T13:16:04Z</time>
 </trkpt>
 <trkpt lat="47.575603" lon="13.194397">
 <ele>526.35</ele>
 <time>2011-10-31T13:16:08Z</time>
 </trkpt>
 <trkpt lat="47.575695" lon="13.194579">
 <ele>526.28</ele>
 <time>2011-10-31T13:16:16Z</time>
 </trkpt>
 <trkpt lat="47.575741" lon="13.194570">
 <ele>526.49</ele>
 <time>2011-10-31T13:16:20Z</time>
 </trkpt>
 <trkpt lat="47.575741" lon="13.194570">
 <ele>526.62</ele>
 <time>2011-10-31T13:16:22Z</time>
 </trkpt>
 <trkpt lat="47.575741" lon="13.194570">
 <ele>526.47</ele>
 <time>2011-10-31T13:16:28Z</time>
 </trkpt>
 <trkpt lat="47.575741" lon="13.194570">
 <ele>526.32</ele>
 <time>2011-10-31T13:17:54Z</time>
 </trkpt>
 <trkpt lat="47.575741" lon="13.194570">
 <ele>526.18</ele>
 <time>2011-10-31T13:17:57Z</time>
 </trkpt>
 <trkpt lat="47.575684" lon="13.194581">
 <ele>525.99</ele>
 <time>2011-10-31T13:18:05Z</time>
 </trkpt>
 <trkpt lat="47.575611" lon="13.194596">
 <ele>525.75</ele>
 <time>2011-10-31T13:18:12Z</time>
 </trkpt>
 <trkpt lat="47.575550" lon="13.194609">
 <ele>525.64</ele>
 <time>2011-10-31T13:18:18Z</time>
 </trkpt>
 <trkpt lat="47.575550" lon="13.194609">
 <ele>525.72</ele>
 <time>2011-10-31T13:18:20Z</time>
 </trkpt>
 <trkpt lat="47.575455" lon="13.194621">
 <ele>525.67</ele>
 <time>2011-10-31T13:18:57Z</time>
 </trkpt>
 <trkpt lat="47.575310" lon="13.194608">
 <ele>524.70</ele>
 <time>2011-10-31T13:19:02Z</time>
 </trkpt>
 <trkpt lat="47.575123" lon="13.194592">
 <ele>523.76</ele>
 <time>2011-10-31T13:19:07Z</time>
 </trkpt>
 <trkpt lat="47.574833" lon="13.194631">
 <ele>522.37</ele>
 <time>2011-10-31T13:19:13Z</time>
 </trkpt>
 <trkpt lat="47.574780" lon="13.194649">
 <ele>522.00</ele>
 <time>2011-10-31T13:19:14Z</time>
 </trkpt>
 <trkpt lat="47.574322" lon="13.194802">
 <ele>518.46</ele>
 <time>2011-10-31T13:19:21Z</time>
 </trkpt>
 <trkpt lat="47.574024" lon="13.194831">
 <ele>515.41</ele>
 <time>2011-10-31T13:19:25Z</time>
 </trkpt>
 <trkpt lat="47.573643" lon="13.194701">
 <ele>511.92</ele>
 <time>2011-10-31T13:19:29Z</time>
 </trkpt>
 <trkpt lat="47.573185" lon="13.194494">
 <ele>507.69</ele>
 <time>2011-10-31T13:19:33Z</time>
 </trkpt>
 <trkpt lat="47.572830" lon="13.193726">
 <ele>502.27</ele>
 <time>2011-10-31T13:19:38Z</time>
 </trkpt>
 <trkpt lat="47.572731" lon="13.193390">
 <ele>499.46</ele>
 <time>2011-10-31T13:19:40Z</time>
 </trkpt>
 <trkpt lat="47.572422" lon="13.192325">
 <ele>492.00</ele>
 <time>2011-10-31T13:19:46Z</time>
 </trkpt>
 <trkpt lat="47.572205" lon="13.191575">
 <ele>487.59</ele>
 <time>2011-10-31T13:19:50Z</time>
 </trkpt>
 <trkpt lat="47.571980" lon="13.190797">
 <ele>483.06</ele>
 <time>2011-10-31T13:19:54Z</time>
 </trkpt>
 <trkpt lat="47.571793" lon="13.190335">
 <ele>479.17</ele>
 <time>2011-10-31T13:19:57Z</time>
 </trkpt>
 <trkpt lat="47.571568" lon="13.190045">
 <ele>477.95</ele>
 <time>2011-10-31T13:19:59Z</time>
 </trkpt>
 <trkpt lat="47.570976" lon="13.189280">
 <ele>471.37</ele>
 <time>2011-10-31T13:20:04Z</time>
 </trkpt>
 <trkpt lat="47.570396" lon="13.188533">
 <ele>466.37</ele>
 <time>2011-10-31T13:20:09Z</time>
 </trkpt>
 <trkpt lat="47.569939" lon="13.187942">
 <ele>464.78</ele>
 <time>2011-10-31T13:20:14Z</time>
 </trkpt>
 <trkpt lat="47.569523" lon="13.187403">
 <ele>465.73</ele>
 <time>2011-10-31T13:20:19Z</time>
 </trkpt>
 <trkpt lat="47.569092" lon="13.186847">
 <ele>466.99</ele>
 <time>2011-10-31T13:20:25Z</time>
 </trkpt>
 <trkpt lat="47.568806" lon="13.186218">
 <ele>467.37</ele>
 <time>2011-10-31T13:20:31Z</time>
 </trkpt>
 <trkpt lat="47.568539" lon="13.185512">
 <ele>468.56</ele>
 <time>2011-10-31T13:20:38Z</time>
 </trkpt>
 <trkpt lat="47.568203" lon="13.184624">
 <ele>469.25</ele>
 <time>2011-10-31T13:20:47Z</time>
 </trkpt>
 <trkpt lat="47.567860" lon="13.183716">
 <ele>468.83</ele>
 <time>2011-10-31T13:20:56Z</time>
 </trkpt>
 <trkpt lat="47.567467" lon="13.182625">
 <ele>468.14</ele>
 <time>2011-10-31T13:21:07Z</time>
 </trkpt>
 <trkpt lat="47.567230" lon="13.181953">
 <ele>468.14</ele>
 <time>2011-10-31T13:21:14Z</time>
 </trkpt>
 <trkpt lat="47.567036" lon="13.181401">
 <ele>468.11</ele>
 <time>2011-10-31T13:21:20Z</time>
 </trkpt>
 <trkpt lat="47.566860" lon="13.180901">
 <ele>468.62</ele>
 <time>2011-10-31T13:21:26Z</time>
 </trkpt>
 <trkpt lat="47.566807" lon="13.180747">
 <ele>468.97</ele>
 <time>2011-10-31T13:21:28Z</time>
 </trkpt>
 <trkpt lat="47.566601" lon="13.180145">
 <ele>469.80</ele>
 <time>2011-10-31T13:21:34Z</time>
 </trkpt>
 <trkpt lat="47.566376" lon="13.179421">
 <ele>470.16</ele>
 <time>2011-10-31T13:21:42Z</time>
 </trkpt>
 <trkpt lat="47.566116" lon="13.178575">
 <ele>469.62</ele>
 <time>2011-10-31T13:21:51Z</time>
 </trkpt>
 <trkpt lat="47.566010" lon="13.177967">
 <ele>469.24</ele>
 <time>2011-10-31T13:21:57Z</time>
 </trkpt>
 <trkpt lat="47.565918" lon="13.177350">
 <ele>469.05</ele>
 <time>2011-10-31T13:22:03Z</time>
 </trkpt>
 <trkpt lat="47.565792" lon="13.176495">
 <ele>468.81</ele>
 <time>2011-10-31T13:22:11Z</time>
 </trkpt>
 <trkpt lat="47.565765" lon="13.176290">
 <ele>468.81</ele>
 <time>2011-10-31T13:22:13Z</time>
 </trkpt>
 <trkpt lat="47.565609" lon="13.175167">
 <ele>469.12</ele>
 <time>2011-10-31T13:22:24Z</time>
 </trkpt>
 <trkpt lat="47.565533" lon="13.174619">
 <ele>469.48</ele>
 <time>2011-10-31T13:22:30Z</time>
 </trkpt>
 <trkpt lat="47.565430" lon="13.173891">
 <ele>469.74</ele>
 <time>2011-10-31T13:22:38Z</time>
 </trkpt>
 <trkpt lat="47.565292" lon="13.172900">
 <ele>469.28</ele>
 <time>2011-10-31T13:22:49Z</time>
 </trkpt>
 <trkpt lat="47.565262" lon="13.172716">
 <ele>469.27</ele>
 <time>2011-10-31T13:22:51Z</time>
 </trkpt>
 <trkpt lat="47.565178" lon="13.172268">
 <ele>469.56</ele>
 <time>2011-10-31T13:22:56Z</time>
 </trkpt>
 <trkpt lat="47.565048" lon="13.171547">
 <ele>469.75</ele>
 <time>2011-10-31T13:23:03Z</time>
 </trkpt>
 <trkpt lat="47.564983" lon="13.171194">
 <ele>469.69</ele>
 <time>2011-10-31T13:23:08Z</time>
 </trkpt>
 <trkpt lat="47.564831" lon="13.170414">
 <ele>470.50</ele>
 <time>2011-10-31T13:23:17Z</time>
 </trkpt>
 <trkpt lat="47.564663" lon="13.169825">
 <ele>471.49</ele>
 <time>2011-10-31T13:23:24Z</time>
 </trkpt>
 <trkpt lat="47.564468" lon="13.169155">
 <ele>472.38</ele>
 <time>2011-10-31T13:23:32Z</time>
 </trkpt>
 <trkpt lat="47.564342" lon="13.168710">
 <ele>473.55</ele>
 <time>2011-10-31T13:23:38Z</time>
 </trkpt>
 <trkpt lat="47.564129" lon="13.168310">
 <ele>474.16</ele>
 <time>2011-10-31T13:23:44Z</time>
 </trkpt>
 <trkpt lat="47.563766" lon="13.167884">
 <ele>472.76</ele>
 <time>2011-10-31T13:23:51Z</time>
 </trkpt>
 <trkpt lat="47.563435" lon="13.167497">
 <ele>471.75</ele>
 <time>2011-10-31T13:23:57Z</time>
 </trkpt>
 <trkpt lat="47.563068" lon="13.167237">
 <ele>471.28</ele>
 <time>2011-10-31T13:24:03Z</time>
 </trkpt>
 <trkpt lat="47.562672" lon="13.166956">
 <ele>470.51</ele>
 <time>2011-10-31T13:24:09Z</time>
 </trkpt>
 <trkpt lat="47.562218" lon="13.166752">
 <ele>470.13</ele>
 <time>2011-10-31T13:24:15Z</time>
 </trkpt>
 <trkpt lat="47.561592" lon="13.166535">
 <ele>469.91</ele>
 <time>2011-10-31T13:24:23Z</time>
 </trkpt>
 <trkpt lat="47.560802" lon="13.166350">
 <ele>471.11</ele>
 <time>2011-10-31T13:24:33Z</time>
 </trkpt>
 <trkpt lat="47.559982" lon="13.166228">
 <ele>472.16</ele>
 <time>2011-10-31T13:24:45Z</time>
 </trkpt>
 <trkpt lat="47.559364" lon="13.166276">
 <ele>472.66</ele>
 <time>2011-10-31T13:24:55Z</time>
 </trkpt>
 <trkpt lat="47.558624" lon="13.166308">
 <ele>473.76</ele>
 <time>2011-10-31T13:25:06Z</time>
 </trkpt>
 <trkpt lat="47.558113" lon="13.166330">
 <ele>474.45</ele>
 <time>2011-10-31T13:25:14Z</time>
 </trkpt>
 <trkpt lat="47.557735" lon="13.166365">
 <ele>476.62</ele>
 <time>2011-10-31T13:25:21Z</time>
 </trkpt>
 <trkpt lat="47.557381" lon="13.166442">
 <ele>477.81</ele>
 <time>2011-10-31T13:25:28Z</time>
 </trkpt>
 <trkpt lat="47.557068" lon="13.166511">
 <ele>478.77</ele>
 <time>2011-10-31T13:25:34Z</time>
 </trkpt>
 <trkpt lat="47.556732" lon="13.166584">
 <ele>479.59</ele>
 <time>2011-10-31T13:25:41Z</time>
 </trkpt>
 <trkpt lat="47.556328" lon="13.166707">
 <ele>479.07</ele>
 <time>2011-10-31T13:25:49Z</time>
 </trkpt>
 <trkpt lat="47.555817" lon="13.166942">
 <ele>477.96</ele>
 <time>2011-10-31T13:25:58Z</time>
 </trkpt>
 <trkpt lat="47.555367" lon="13.167147">
 <ele>476.22</ele>
 <time>2011-10-31T13:26:05Z</time>
 </trkpt>
 <trkpt lat="47.554867" lon="13.167377">
 <ele>474.71</ele>
 <time>2011-10-31T13:26:12Z</time>
 </trkpt>
 <trkpt lat="47.554382" lon="13.167766">
 <ele>473.00</ele>
 <time>2011-10-31T13:26:19Z</time>
 </trkpt>
 <trkpt lat="47.554028" lon="13.168189">
 <ele>471.91</ele>
 <time>2011-10-31T13:26:25Z</time>
 </trkpt>
 <trkpt lat="47.553585" lon="13.168770">
 <ele>472.97</ele>
 <time>2011-10-31T13:26:34Z</time>
 </trkpt>
 <trkpt lat="47.553200" lon="13.169169">
 <ele>473.88</ele>
 <time>2011-10-31T13:26:42Z</time>
 </trkpt>
 <trkpt lat="47.552818" lon="13.169539">
 <ele>475.43</ele>
 <time>2011-10-31T13:26:51Z</time>
 </trkpt>
 <trkpt lat="47.552338" lon="13.169870">
 <ele>475.85</ele>
 <time>2011-10-31T13:27:01Z</time>
 </trkpt>
 <trkpt lat="47.552036" lon="13.170051">
 <ele>475.63</ele>
 <time>2011-10-31T13:27:07Z</time>
 </trkpt>
 <trkpt lat="47.551620" lon="13.170220">
 <ele>474.66</ele>
 <time>2011-10-31T13:27:14Z</time>
 </trkpt>
 <trkpt lat="47.551048" lon="13.170373">
 <ele>472.13</ele>
 <time>2011-10-31T13:27:22Z</time>
 </trkpt>
 <trkpt lat="47.550442" lon="13.170263">
 <ele>472.12</ele>
 <time>2011-10-31T13:27:31Z</time>
 </trkpt>
 <trkpt lat="47.549896" lon="13.170164">
 <ele>473.50</ele>
 <time>2011-10-31T13:27:40Z</time>
 </trkpt>
 <trkpt lat="47.549221" lon="13.170079">
 <ele>475.03</ele>
 <time>2011-10-31T13:27:52Z</time>
 </trkpt>
 <trkpt lat="47.548740" lon="13.170035">
 <ele>475.92</ele>
 <time>2011-10-31T13:28:01Z</time>
 </trkpt>
 <trkpt lat="47.548164" lon="13.170054">
 <ele>476.66</ele>
 <time>2011-10-31T13:28:12Z</time>
 </trkpt>
 <trkpt lat="47.547718" lon="13.170070">
 <ele>477.81</ele>
 <time>2011-10-31T13:28:21Z</time>
 </trkpt>
 <trkpt lat="47.547272" lon="13.170149">
 <ele>479.45</ele>
 <time>2011-10-31T13:28:31Z</time>
 </trkpt>
 <trkpt lat="47.546780" lon="13.170266">
 <ele>481.60</ele>
 <time>2011-10-31T13:28:43Z</time>
 </trkpt>
 <trkpt lat="47.546341" lon="13.170323">
 <ele>482.74</ele>
 <time>2011-10-31T13:28:54Z</time>
 </trkpt>
 <trkpt lat="47.545918" lon="13.170377">
 <ele>483.33</ele>
 <time>2011-10-31T13:29:04Z</time>
 </trkpt>
 <trkpt lat="47.545441" lon="13.170462">
 <ele>482.84</ele>
 <time>2011-10-31T13:29:14Z</time>
 </trkpt>
 <trkpt lat="47.544991" lon="13.170594">
 <ele>482.00</ele>
 <time>2011-10-31T13:29:22Z</time>
 </trkpt>
 <trkpt lat="47.544483" lon="13.170745">
 <ele>480.99</ele>
 <time>2011-10-31T13:29:30Z</time>
 </trkpt>
 <trkpt lat="47.543957" lon="13.170922">
 <ele>480.76</ele>
 <time>2011-10-31T13:29:38Z</time>
 </trkpt>
 <trkpt lat="47.543434" lon="13.171099">
 <ele>480.60</ele>
 <time>2011-10-31T13:29:46Z</time>
 </trkpt>
 <trkpt lat="47.542755" lon="13.171310">
 <ele>479.34</ele>
 <time>2011-10-31T13:29:56Z</time>
 </trkpt>
 <trkpt lat="47.542011" lon="13.171518">
 <ele>478.19</ele>
 <time>2011-10-31T13:30:07Z</time>
 </trkpt>
 <trkpt lat="47.541302" lon="13.171427">
 <ele>478.07</ele>
 <time>2011-10-31T13:30:18Z</time>
 </trkpt>
 <trkpt lat="47.540840" lon="13.171295">
 <ele>479.16</ele>
 <time>2011-10-31T13:30:26Z</time>
 </trkpt>
 <trkpt lat="47.540455" lon="13.171162">
 <ele>481.02</ele>
 <time>2011-10-31T13:30:34Z</time>
 </trkpt>
 <trkpt lat="47.540138" lon="13.171020">
 <ele>482.85</ele>
 <time>2011-10-31T13:30:41Z</time>
 </trkpt>
 <trkpt lat="47.539829" lon="13.170845">
 <ele>484.26</ele>
 <time>2011-10-31T13:30:48Z</time>
 </trkpt>
 <trkpt lat="47.539688" lon="13.170762">
 <ele>485.38</ele>
 <time>2011-10-31T13:30:56Z</time>
 </trkpt>
 <trkpt lat="47.539066" lon="13.170371">
 <ele>486.81</ele>
 <time>2011-10-31T13:31:07Z</time>
 </trkpt>
 <trkpt lat="47.538578" lon="13.170016">
 <ele>487.42</ele>
 <time>2011-10-31T13:31:19Z</time>
 </trkpt>
 <trkpt lat="47.538124" lon="13.169686">
 <ele>488.19</ele>
 <time>2011-10-31T13:31:30Z</time>
 </trkpt>
 <trkpt lat="47.537659" lon="13.169346">
 <ele>488.43</ele>
 <time>2011-10-31T13:31:41Z</time>
 </trkpt>
 <trkpt lat="47.537174" lon="13.168975">
 <ele>488.91</ele>
 <time>2011-10-31T13:31:53Z</time>
 </trkpt>
 <trkpt lat="47.536724" lon="13.168630">
 <ele>489.28</ele>
 <time>2011-10-31T13:32:04Z</time>
 </trkpt>
 <trkpt lat="47.536247" lon="13.168299">
 <ele>489.54</ele>
 <time>2011-10-31T13:32:15Z</time>
 </trkpt>
 <trkpt lat="47.535805" lon="13.168111">
 <ele>489.10</ele>
 <time>2011-10-31T13:32:24Z</time>
 </trkpt>
 <trkpt lat="47.535313" lon="13.167904">
 <ele>488.98</ele>
 <time>2011-10-31T13:32:33Z</time>
 </trkpt>
 <trkpt lat="47.534653" lon="13.167640">
 <ele>488.09</ele>
 <time>2011-10-31T13:32:44Z</time>
 </trkpt>
 <trkpt lat="47.533962" lon="13.167380">
 <ele>487.24</ele>
 <time>2011-10-31T13:32:55Z</time>
 </trkpt>
 <trkpt lat="47.533283" lon="13.167118">
 <ele>486.89</ele>
 <time>2011-10-31T13:33:06Z</time>
 </trkpt>
 <trkpt lat="47.532642" lon="13.166733">
 <ele>485.80</ele>
 <time>2011-10-31T13:33:17Z</time>
 </trkpt>
 <trkpt lat="47.531998" lon="13.166386">
 <ele>485.59</ele>
 <time>2011-10-31T13:33:28Z</time>
 </trkpt>
 <trkpt lat="47.531414" lon="13.166207">
 <ele>485.43</ele>
 <time>2011-10-31T13:33:37Z</time>
 </trkpt>
 <trkpt lat="47.530952" lon="13.166132">
 <ele>485.27</ele>
 <time>2011-10-31T13:33:44Z</time>
 </trkpt>
 <trkpt lat="47.530342" lon="13.166253">
 <ele>485.18</ele>
 <time>2011-10-31T13:33:53Z</time>
 </trkpt>
 <trkpt lat="47.529888" lon="13.166382">
 <ele>485.20</ele>
 <time>2011-10-31T13:34:00Z</time>
 </trkpt>
 <trkpt lat="47.529415" lon="13.166624">
 <ele>485.78</ele>
 <time>2011-10-31T13:34:08Z</time>
 </trkpt>
 <trkpt lat="47.528976" lon="13.166845">
 <ele>486.67</ele>
 <time>2011-10-31T13:34:16Z</time>
 </trkpt>
 <trkpt lat="47.528488" lon="13.167032">
 <ele>488.11</ele>
 <time>2011-10-31T13:34:26Z</time>
 </trkpt>
 <trkpt lat="47.528038" lon="13.167151">
 <ele>489.60</ele>
 <time>2011-10-31T13:34:36Z</time>
 </trkpt>
 <trkpt lat="47.527542" lon="13.167228">
 <ele>490.85</ele>
 <time>2011-10-31T13:34:47Z</time>
 </trkpt>
 <trkpt lat="47.527103" lon="13.167294">
 <ele>492.42</ele>
 <time>2011-10-31T13:34:57Z</time>
 </trkpt>
 <trkpt lat="47.526707" lon="13.167341">
 <ele>493.45</ele>
 <time>2011-10-31T13:35:06Z</time>
 </trkpt>
 <trkpt lat="47.526295" lon="13.167388">
 <ele>494.42</ele>
 <time>2011-10-31T13:35:15Z</time>
 </trkpt>
 <trkpt lat="47.525879" lon="13.167506">
 <ele>495.18</ele>
 <time>2011-10-31T13:35:24Z</time>
 </trkpt>
 <trkpt lat="47.525391" lon="13.167653">
 <ele>495.40</ele>
 <time>2011-10-31T13:35:34Z</time>
 </trkpt>
 <trkpt lat="47.524910" lon="13.167760">
 <ele>495.57</ele>
 <time>2011-10-31T13:35:43Z</time>
 </trkpt>
 <trkpt lat="47.524509" lon="13.167818">
 <ele>495.58</ele>
 <time>2011-10-31T13:35:50Z</time>
 </trkpt>
 <trkpt lat="47.523930" lon="13.167719">
 <ele>495.38</ele>
 <time>2011-10-31T13:35:59Z</time>
 </trkpt>
 <trkpt lat="47.523376" lon="13.167626">
 <ele>494.86</ele>
 <time>2011-10-31T13:36:07Z</time>
 </trkpt>
 <trkpt lat="47.522949" lon="13.167350">
 <ele>494.19</ele>
 <time>2011-10-31T13:36:15Z</time>
 </trkpt>
 <trkpt lat="47.522068" lon="13.166810">
 <ele>493.40</ele>
 <time>2011-10-31T13:36:27Z</time>
 </trkpt>
 <trkpt lat="47.521385" lon="13.166392">
 <ele>492.32</ele>
 <time>2011-10-31T13:36:37Z</time>
 </trkpt>
 <trkpt lat="47.520847" lon="13.166063">
 <ele>491.31</ele>
 <time>2011-10-31T13:36:48Z</time>
 </trkpt>
 <trkpt lat="47.520119" lon="13.165588">
 <ele>490.87</ele>
 <time>2011-10-31T13:36:56Z</time>
 </trkpt>
 <trkpt lat="47.519562" lon="13.165227">
 <ele>491.13</ele>
 <time>2011-10-31T13:37:05Z</time>
 </trkpt>
 <trkpt lat="47.519058" lon="13.164899">
 <ele>491.77</ele>
 <time>2011-10-31T13:37:14Z</time>
 </trkpt>
 <trkpt lat="47.518627" lon="13.164619">
 <ele>493.25</ele>
 <time>2011-10-31T13:37:23Z</time>
 </trkpt>
 <trkpt lat="47.518230" lon="13.164371">
 <ele>494.88</ele>
 <time>2011-10-31T13:37:32Z</time>
 </trkpt>
 <trkpt lat="47.517811" lon="13.164198">
 <ele>496.91</ele>
 <time>2011-10-31T13:37:42Z</time>
 </trkpt>
 <trkpt lat="47.517456" lon="13.164086">
 <ele>498.61</ele>
 <time>2011-10-31T13:37:51Z</time>
 </trkpt>
 <trkpt lat="47.517174" lon="13.164020">
 <ele>500.20</ele>
 <time>2011-10-31T13:37:59Z</time>
 </trkpt>
 <trkpt lat="47.516857" lon="13.164006">
 <ele>501.83</ele>
 <time>2011-10-31T13:38:08Z</time>
 </trkpt>
 <trkpt lat="47.516644" lon="13.164042">
 <ele>503.30</ele>
 <time>2011-10-31T13:38:15Z</time>
 </trkpt>
 <trkpt lat="47.516422" lon="13.164079">
 <ele>504.46</ele>
 <time>2011-10-31T13:38:23Z</time>
 </trkpt>
 <trkpt lat="47.516182" lon="13.164119">
 <ele>505.95</ele>
 <time>2011-10-31T13:38:32Z</time>
 </trkpt>
 <trkpt lat="47.515995" lon="13.164180">
 <ele>507.22</ele>
 <time>2011-10-31T13:38:40Z</time>
 </trkpt>
 <trkpt lat="47.515785" lon="13.164270">
 <ele>508.55</ele>
 <time>2011-10-31T13:38:50Z</time>
 </trkpt>
 <trkpt lat="47.515614" lon="13.164345">
 <ele>509.40</ele>
 <time>2011-10-31T13:38:58Z</time>
 </trkpt>
 <trkpt lat="47.515427" lon="13.164426">
 <ele>509.83</ele>
 <time>2011-10-31T13:39:06Z</time>
 </trkpt>
 <trkpt lat="47.515167" lon="13.164590">
 <ele>510.74</ele>
 <time>2011-10-31T13:39:17Z</time>
 </trkpt>
 <trkpt lat="47.514946" lon="13.164767">
 <ele>512.01</ele>
 <time>2011-10-31T13:39:26Z</time>
 </trkpt>
 <trkpt lat="47.514683" lon="13.164979">
 <ele>512.90</ele>
 <time>2011-10-31T13:39:36Z</time>
 </trkpt>
 <trkpt lat="47.514366" lon="13.165231">
 <ele>513.38</ele>
 <time>2011-10-31T13:39:47Z</time>
 </trkpt>
 <trkpt lat="47.514072" lon="13.165466">
 <ele>513.52</ele>
 <time>2011-10-31T13:39:56Z</time>
 </trkpt>
 <trkpt lat="47.513668" lon="13.165790">
 <ele>513.68</ele>
 <time>2011-10-31T13:40:07Z</time>
 </trkpt>
 <trkpt lat="47.513302" lon="13.166084">
 <ele>513.10</ele>
 <time>2011-10-31T13:40:16Z</time>
 </trkpt>
 <trkpt lat="47.512955" lon="13.166262">
 <ele>512.95</ele>
 <time>2011-10-31T13:40:23Z</time>
 </trkpt>
 <trkpt lat="47.512562" lon="13.166457">
 <ele>511.92</ele>
 <time>2011-10-31T13:40:30Z</time>
 </trkpt>
 <trkpt lat="47.512104" lon="13.166681">
 <ele>510.10</ele>
 <time>2011-10-31T13:40:37Z</time>
 </trkpt>
 <trkpt lat="47.511536" lon="13.166871">
 <ele>506.77</ele>
 <time>2011-10-31T13:40:44Z</time>
 </trkpt>
 <trkpt lat="47.510983" lon="13.167015">
 <ele>502.88</ele>
 <time>2011-10-31T13:40:50Z</time>
 </trkpt>
 <trkpt lat="47.510685" lon="13.167074">
 <ele>501.58</ele>
 <time>2011-10-31T13:40:53Z</time>
 </trkpt>
 <trkpt lat="47.509979" lon="13.167177">
 <ele>497.71</ele>
 <time>2011-10-31T13:41:00Z</time>
 </trkpt>
 <trkpt lat="47.509312" lon="13.167047">
 <ele>495.79</ele>
 <time>2011-10-31T13:41:07Z</time>
 </trkpt>
 <trkpt lat="47.508579" lon="13.166829">
 <ele>493.05</ele>
 <time>2011-10-31T13:41:15Z</time>
 </trkpt>
 <trkpt lat="47.507816" lon="13.166549">
 <ele>489.17</ele>
 <time>2011-10-31T13:41:23Z</time>
 </trkpt>
 <trkpt lat="47.507336" lon="13.166382">
 <ele>487.02</ele>
 <time>2011-10-31T13:41:28Z</time>
 </trkpt>
 <trkpt lat="47.506775" lon="13.166445">
 <ele>485.77</ele>
 <time>2011-10-31T13:41:34Z</time>
 </trkpt>
 <trkpt lat="47.506268" lon="13.166629">
 <ele>485.61</ele>
 <time>2011-10-31T13:41:40Z</time>
 </trkpt>
 <trkpt lat="47.505772" lon="13.167023">
 <ele>485.91</ele>
 <time>2011-10-31T13:41:47Z</time>
 </trkpt>
 <trkpt lat="47.505264" lon="13.167424">
 <ele>486.08</ele>
 <time>2011-10-31T13:41:55Z</time>
 </trkpt>
 <trkpt lat="47.504890" lon="13.167721">
 <ele>486.60</ele>
 <time>2011-10-31T13:42:02Z</time>
 </trkpt>
 <trkpt lat="47.504467" lon="13.168055">
 <ele>487.04</ele>
 <time>2011-10-31T13:42:10Z</time>
 </trkpt>
 <trkpt lat="47.504002" lon="13.168419">
 <ele>487.33</ele>
 <time>2011-10-31T13:42:19Z</time>
 </trkpt>
 <trkpt lat="47.503616" lon="13.168721">
 <ele>488.37</ele>
 <time>2011-10-31T13:42:27Z</time>
 </trkpt>
 <trkpt lat="47.503277" lon="13.168987">
 <ele>490.05</ele>
 <time>2011-10-31T13:42:35Z</time>
 </trkpt>
 <trkpt lat="47.503010" lon="13.169196">
 <ele>491.50</ele>
 <time>2011-10-31T13:42:42Z</time>
 </trkpt>
 <trkpt lat="47.502754" lon="13.169396">
 <ele>492.54</ele>
 <time>2011-10-31T13:42:49Z</time>
 </trkpt>
 <trkpt lat="47.502502" lon="13.169595">
 <ele>493.49</ele>
 <time>2011-10-31T13:42:56Z</time>
 </trkpt>
 <trkpt lat="47.502090" lon="13.169901">
 <ele>494.48</ele>
 <time>2011-10-31T13:43:07Z</time>
 </trkpt>
 <trkpt lat="47.501678" lon="13.170178">
 <ele>494.98</ele>
 <time>2011-10-31T13:43:17Z</time>
 </trkpt>
 <trkpt lat="47.501228" lon="13.170483">
 <ele>495.29</ele>
 <time>2011-10-31T13:43:27Z</time>
 </trkpt>
 <trkpt lat="47.500751" lon="13.170806">
 <ele>495.49</ele>
 <time>2011-10-31T13:43:37Z</time>
 </trkpt>
 <trkpt lat="47.500271" lon="13.171130">
 <ele>495.92</ele>
 <time>2011-10-31T13:43:47Z</time>
 </trkpt>
 <trkpt lat="47.499687" lon="13.171542">
 <ele>496.26</ele>
 <time>2011-10-31T13:43:59Z</time>
 </trkpt>
 <trkpt lat="47.499195" lon="13.171902">
 <ele>496.69</ele>
 <time>2011-10-31T13:44:09Z</time>
 </trkpt>
 <trkpt lat="47.498680" lon="13.172403">
 <ele>497.09</ele>
 <time>2011-10-31T13:44:20Z</time>
 </trkpt>
 <trkpt lat="47.498302" lon="13.172921">
 <ele>497.29</ele>
 <time>2011-10-31T13:44:29Z</time>
 </trkpt>
 <trkpt lat="47.497913" lon="13.173526">
 <ele>497.54</ele>
 <time>2011-10-31T13:44:39Z</time>
 </trkpt>
 <trkpt lat="47.497513" lon="13.174341">
 <ele>497.47</ele>
 <time>2011-10-31T13:44:51Z</time>
 </trkpt>
 <trkpt lat="47.497189" lon="13.174941">
 <ele>498.12</ele>
 <time>2011-10-31T13:45:00Z</time>
 </trkpt>
 <trkpt lat="47.496883" lon="13.175435">
 <ele>497.44</ele>
 <time>2011-10-31T13:45:07Z</time>
 </trkpt>
 <trkpt lat="47.496460" lon="13.175770">
 <ele>495.74</ele>
 <time>2011-10-31T13:45:14Z</time>
 </trkpt>
 <trkpt lat="47.495991" lon="13.175912">
 <ele>494.84</ele>
 <time>2011-10-31T13:45:21Z</time>
 </trkpt>
 <trkpt lat="47.495468" lon="13.175909">
 <ele>494.42</ele>
 <time>2011-10-31T13:45:29Z</time>
 </trkpt>
 <trkpt lat="47.494843" lon="13.175803">
 <ele>494.53</ele>
 <time>2011-10-31T13:45:39Z</time>
 </trkpt>
 <trkpt lat="47.494293" lon="13.175710">
 <ele>494.49</ele>
 <time>2011-10-31T13:45:48Z</time>
 </trkpt>
 <trkpt lat="47.493782" lon="13.175622">
 <ele>494.64</ele>
 <time>2011-10-31T13:45:57Z</time>
 </trkpt>
 <trkpt lat="47.493366" lon="13.175530">
 <ele>494.08</ele>
 <time>2011-10-31T13:46:04Z</time>
 </trkpt>
 <trkpt lat="47.492935" lon="13.175441">
 <ele>493.26</ele>
 <time>2011-10-31T13:46:11Z</time>
 </trkpt>
 <trkpt lat="47.492569" lon="13.175499">
 <ele>492.71</ele>
 <time>2011-10-31T13:46:17Z</time>
 </trkpt>
 <trkpt lat="47.492142" lon="13.175633">
 <ele>491.97</ele>
 <time>2011-10-31T13:46:24Z</time>
 </trkpt>
 <trkpt lat="47.491722" lon="13.175974">
 <ele>492.42</ele>
 <time>2011-10-31T13:46:32Z</time>
 </trkpt>
 <trkpt lat="47.491447" lon="13.176380">
 <ele>492.96</ele>
 <time>2011-10-31T13:46:39Z</time>
 </trkpt>
 <trkpt lat="47.491238" lon="13.176808">
 <ele>493.65</ele>
 <time>2011-10-31T13:46:47Z</time>
 </trkpt>
 <trkpt lat="47.491016" lon="13.177104">
 <ele>495.22</ele>
 <time>2011-10-31T13:46:55Z</time>
 </trkpt>
 <trkpt lat="47.490780" lon="13.177269">
 <ele>496.77</ele>
 <time>2011-10-31T13:47:04Z</time>
 </trkpt>
 <trkpt lat="47.490540" lon="13.177433">
 <ele>498.70</ele>
 <time>2011-10-31T13:47:14Z</time>
 </trkpt>
 <trkpt lat="47.490257" lon="13.177628">
 <ele>500.44</ele>
 <time>2011-10-31T13:47:25Z</time>
 </trkpt>
 <trkpt lat="47.490028" lon="13.177839">
 <ele>501.98</ele>
 <time>2011-10-31T13:47:35Z</time>
 </trkpt>
 <trkpt lat="47.489849" lon="13.178095">
 <ele>503.25</ele>
 <time>2011-10-31T13:47:44Z</time>
 </trkpt>
 <trkpt lat="47.489693" lon="13.178475">
 <ele>504.71</ele>
 <time>2011-10-31T13:47:55Z</time>
 </trkpt>
 <trkpt lat="47.489609" lon="13.178811">
 <ele>505.61</ele>
 <time>2011-10-31T13:48:04Z</time>
 </trkpt>
 <trkpt lat="47.489513" lon="13.179173">
 <ele>506.85</ele>
 <time>2011-10-31T13:48:14Z</time>
 </trkpt>
 <trkpt lat="47.489414" lon="13.179563">
 <ele>508.08</ele>
 <time>2011-10-31T13:48:25Z</time>
 </trkpt>
 <trkpt lat="47.489330" lon="13.179886">
 <ele>509.63</ele>
 <time>2011-10-31T13:48:34Z</time>
 </trkpt>
 <trkpt lat="47.489201" lon="13.180260">
 <ele>511.10</ele>
 <time>2011-10-31T13:48:45Z</time>
 </trkpt>
 <trkpt lat="47.489086" lon="13.180576">
 <ele>512.13</ele>
 <time>2011-10-31T13:48:54Z</time>
 </trkpt>
 <trkpt lat="47.488941" lon="13.180988">
 <ele>513.91</ele>
 <time>2011-10-31T13:49:06Z</time>
 </trkpt>
 <trkpt lat="47.488815" lon="13.181336">
 <ele>514.88</ele>
 <time>2011-10-31T13:49:16Z</time>
 </trkpt>
 <trkpt lat="47.488693" lon="13.181688">
 <ele>516.00</ele>
 <time>2011-10-31T13:49:26Z</time>
 </trkpt>
 <trkpt lat="47.488579" lon="13.182006">
 <ele>517.02</ele>
 <time>2011-10-31T13:49:35Z</time>
 </trkpt>
 <trkpt lat="47.488468" lon="13.182322">
 <ele>517.93</ele>
 <time>2011-10-31T13:49:44Z</time>
 </trkpt>
 <trkpt lat="47.488316" lon="13.182640">
 <ele>519.02</ele>
 <time>2011-10-31T13:49:54Z</time>
 </trkpt>
 <trkpt lat="47.488102" lon="13.182986">
 <ele>520.23</ele>
 <time>2011-10-31T13:50:06Z</time>
 </trkpt>
 <trkpt lat="47.487953" lon="13.183227">
 <ele>521.09</ele>
 <time>2011-10-31T13:50:14Z</time>
 </trkpt>
 <trkpt lat="47.487789" lon="13.183499">
 <ele>522.28</ele>
 <time>2011-10-31T13:50:23Z</time>
 </trkpt>
 <trkpt lat="47.487598" lon="13.183807">
 <ele>523.56</ele>
 <time>2011-10-31T13:50:33Z</time>
 </trkpt>
 <trkpt lat="47.487400" lon="13.184134">
 <ele>524.89</ele>
 <time>2011-10-31T13:50:44Z</time>
 </trkpt>
 <trkpt lat="47.487221" lon="13.184432">
 <ele>526.49</ele>
 <time>2011-10-31T13:50:54Z</time>
 </trkpt>
 <trkpt lat="47.487019" lon="13.184652">
 <ele>527.61</ele>
 <time>2011-10-31T13:51:04Z</time>
 </trkpt>
 <trkpt lat="47.486828" lon="13.184834">
 <ele>529.04</ele>
 <time>2011-10-31T13:51:13Z</time>
 </trkpt>
 <trkpt lat="47.486599" lon="13.185050">
 <ele>530.94</ele>
 <time>2011-10-31T13:51:24Z</time>
 </trkpt>
 <trkpt lat="47.486416" lon="13.185226">
 <ele>532.79</ele>
 <time>2011-10-31T13:51:33Z</time>
 </trkpt>
 <trkpt lat="47.486256" lon="13.185378">
 <ele>534.18</ele>
 <time>2011-10-31T13:51:42Z</time>
 </trkpt>
 <trkpt lat="47.486073" lon="13.185412">
 <ele>535.41</ele>
 <time>2011-10-31T13:51:51Z</time>
 </trkpt>
 <trkpt lat="47.485836" lon="13.185435">
 <ele>537.09</ele>
 <time>2011-10-31T13:52:02Z</time>
 </trkpt>
 <trkpt lat="47.485657" lon="13.185453">
 <ele>538.48</ele>
 <time>2011-10-31T13:52:10Z</time>
 </trkpt>
 <trkpt lat="47.485470" lon="13.185471">
 <ele>539.94</ele>
 <time>2011-10-31T13:52:19Z</time>
 </trkpt>
 <trkpt lat="47.485264" lon="13.185482">
 <ele>541.50</ele>
 <time>2011-10-31T13:52:29Z</time>
 </trkpt>
 <trkpt lat="47.485111" lon="13.185482">
 <ele>542.55</ele>
 <time>2011-10-31T13:52:37Z</time>
 </trkpt>
 <trkpt lat="47.485004" lon="13.185482">
 <ele>543.21</ele>
 <time>2011-10-31T13:52:42Z</time>
 </trkpt>
 <trkpt lat="47.484825" lon="13.185482">
 <ele>544.43</ele>
 <time>2011-10-31T13:52:51Z</time>
 </trkpt>
 <trkpt lat="47.484592" lon="13.185482">
 <ele>546.01</ele>
 <time>2011-10-31T13:53:04Z</time>
 </trkpt>
 <trkpt lat="47.484447" lon="13.185482">
 <ele>547.42</ele>
 <time>2011-10-31T13:53:13Z</time>
 </trkpt>
 <trkpt lat="47.484291" lon="13.185482">
 <ele>548.44</ele>
 <time>2011-10-31T13:53:21Z</time>
 </trkpt>
 <trkpt lat="47.484077" lon="13.185482">
 <ele>549.20</ele>
 <time>2011-10-31T13:53:29Z</time>
 </trkpt>
 <trkpt lat="47.483864" lon="13.185482">
 <ele>550.03</ele>
 <time>2011-10-31T13:53:38Z</time>
 </trkpt>
 <trkpt lat="47.483585" lon="13.185439">
 <ele>551.21</ele>
 <time>2011-10-31T13:53:49Z</time>
 </trkpt>
 <trkpt lat="47.483307" lon="13.185364">
 <ele>551.96</ele>
 <time>2011-10-31T13:54:00Z</time>
 </trkpt>
 <trkpt lat="47.483051" lon="13.185296">
 <ele>552.33</ele>
 <time>2011-10-31T13:54:09Z</time>
 </trkpt>
 <trkpt lat="47.482838" lon="13.185238">
 <ele>552.52</ele>
 <time>2011-10-31T13:54:16Z</time>
 </trkpt>
 <trkpt lat="47.482544" lon="13.185159">
 <ele>552.27</ele>
 <time>2011-10-31T13:54:24Z</time>
 </trkpt>
 <trkpt lat="47.482182" lon="13.185071">
 <ele>551.96</ele>
 <time>2011-10-31T13:54:33Z</time>
 </trkpt>
 <trkpt lat="47.482136" lon="13.185061">
 <ele>551.85</ele>
 <time>2011-10-31T13:54:34Z</time>
 </trkpt>
 <trkpt lat="47.481697" lon="13.185032">
 <ele>550.67</ele>
 <time>2011-10-31T13:54:42Z</time>
 </trkpt>
 <trkpt lat="47.481377" lon="13.185083">
 <ele>549.39</ele>
 <time>2011-10-31T13:54:47Z</time>
 </trkpt>
 <trkpt lat="47.480976" lon="13.185163">
 <ele>547.27</ele>
 <time>2011-10-31T13:54:52Z</time>
 </trkpt>
 <trkpt lat="47.480572" lon="13.185484">
 <ele>543.73</ele>
 <time>2011-10-31T13:54:57Z</time>
 </trkpt>
 <trkpt lat="47.480247" lon="13.185889">
 <ele>540.13</ele>
 <time>2011-10-31T13:55:01Z</time>
 </trkpt>
 <trkpt lat="47.479935" lon="13.186402">
 <ele>536.70</ele>
 <time>2011-10-31T13:55:05Z</time>
 </trkpt>
 <trkpt lat="47.479332" lon="13.187399">
 <ele>527.27</ele>
 <time>2011-10-31T13:55:12Z</time>
 </trkpt>
 <trkpt lat="47.478733" lon="13.188264">
 <ele>519.46</ele>
 <time>2011-10-31T13:55:18Z</time>
 </trkpt>
 <trkpt lat="47.478134" lon="13.188775">
 <ele>513.70</ele>
 <time>2011-10-31T13:55:23Z</time>
 </trkpt>
 <trkpt lat="47.477470" lon="13.189430">
 <ele>509.28</ele>
 <time>2011-10-31T13:55:29Z</time>
 </trkpt>
 <trkpt lat="47.476990" lon="13.190010">
 <ele>508.11</ele>
 <time>2011-10-31T13:55:34Z</time>
 </trkpt>
 <trkpt lat="47.476555" lon="13.190558">
 <ele>507.23</ele>
 <time>2011-10-31T13:55:39Z</time>
 </trkpt>
 <trkpt lat="47.476013" lon="13.191263">
 <ele>506.64</ele>
 <time>2011-10-31T13:55:46Z</time>
 </trkpt>
 <trkpt lat="47.475742" lon="13.191641">
 <ele>506.60</ele>
 <time>2011-10-31T13:55:52Z</time>
 </trkpt>
 <trkpt lat="47.475086" lon="13.192231">
 <ele>506.45</ele>
 <time>2011-10-31T13:55:59Z</time>
 </trkpt>
 <trkpt lat="47.474613" lon="13.192436">
 <ele>505.52</ele>
 <time>2011-10-31T13:56:05Z</time>
 </trkpt>
 <trkpt lat="47.474171" lon="13.192549">
 <ele>505.10</ele>
 <time>2011-10-31T13:56:11Z</time>
 </trkpt>
 <trkpt lat="47.473705" lon="13.192451">
 <ele>506.33</ele>
 <time>2011-10-31T13:56:18Z</time>
 </trkpt>
 <trkpt lat="47.473240" lon="13.192350">
 <ele>507.01</ele>
 <time>2011-10-31T13:56:26Z</time>
 </trkpt>
 <trkpt lat="47.472919" lon="13.192270">
 <ele>508.07</ele>
 <time>2011-10-31T13:56:32Z</time>
 </trkpt>
 <trkpt lat="47.472652" lon="13.192220">
 <ele>508.94</ele>
 <time>2011-10-31T13:56:37Z</time>
 </trkpt>
 <trkpt lat="47.472305" lon="13.192158">
 <ele>510.00</ele>
 <time>2011-10-31T13:56:44Z</time>
 </trkpt>
 <trkpt lat="47.471878" lon="13.192081">
 <ele>510.12</ele>
 <time>2011-10-31T13:56:52Z</time>
 </trkpt>
 <trkpt lat="47.471474" lon="13.192262">
 <ele>509.70</ele>
 <time>2011-10-31T13:56:59Z</time>
 </trkpt>
 <trkpt lat="47.471066" lon="13.192497">
 <ele>508.81</ele>
 <time>2011-10-31T13:57:06Z</time>
 </trkpt>
 <trkpt lat="47.470577" lon="13.192971">
 <ele>507.76</ele>
 <time>2011-10-31T13:57:15Z</time>
 </trkpt>
 <trkpt lat="47.469952" lon="13.193572">
 <ele>507.08</ele>
 <time>2011-10-31T13:57:26Z</time>
 </trkpt>
 <trkpt lat="47.469364" lon="13.194226">
 <ele>506.27</ele>
 <time>2011-10-31T13:57:37Z</time>
 </trkpt>
 <trkpt lat="47.468838" lon="13.194823">
 <ele>505.76</ele>
 <time>2011-10-31T13:57:47Z</time>
 </trkpt>
 <trkpt lat="47.468475" lon="13.195287">
 <ele>505.68</ele>
 <time>2011-10-31T13:57:54Z</time>
 </trkpt>
 <trkpt lat="47.468033" lon="13.195992">
 <ele>504.23</ele>
 <time>2011-10-31T13:58:03Z</time>
 </trkpt>
 <trkpt lat="47.467560" lon="13.196650">
 <ele>503.42</ele>
 <time>2011-10-31T13:58:12Z</time>
 </trkpt>
 <trkpt lat="47.467113" lon="13.197093">
 <ele>503.65</ele>
 <time>2011-10-31T13:58:20Z</time>
 </trkpt>
 <trkpt lat="47.466717" lon="13.197346">
 <ele>504.23</ele>
 <time>2011-10-31T13:58:27Z</time>
 </trkpt>
 <trkpt lat="47.466320" lon="13.197533">
 <ele>504.45</ele>
 <time>2011-10-31T13:58:34Z</time>
 </trkpt>
 <trkpt lat="47.465752" lon="13.197615">
 <ele>503.65</ele>
 <time>2011-10-31T13:58:43Z</time>
 </trkpt>
 <trkpt lat="47.465202" lon="13.197657">
 <ele>502.85</ele>
 <time>2011-10-31T13:58:51Z</time>
 </trkpt>
 <trkpt lat="47.464714" lon="13.197590">
 <ele>502.70</ele>
 <time>2011-10-31T13:58:58Z</time>
 </trkpt>
 <trkpt lat="47.464252" lon="13.197605">
 <ele>502.86</ele>
 <time>2011-10-31T13:59:05Z</time>
 </trkpt>
 <trkpt lat="47.463840" lon="13.197738">
 <ele>503.11</ele>
 <time>2011-10-31T13:59:12Z</time>
 </trkpt>
 <trkpt lat="47.463276" lon="13.197924">
 <ele>503.62</ele>
 <time>2011-10-31T13:59:22Z</time>
 </trkpt>
 <trkpt lat="47.462795" lon="13.198078">
 <ele>504.97</ele>
 <time>2011-10-31T13:59:31Z</time>
 </trkpt>
 <trkpt lat="47.462318" lon="13.198098">
 <ele>505.85</ele>
 <time>2011-10-31T13:59:40Z</time>
 </trkpt>
 <trkpt lat="47.461834" lon="13.198188">
 <ele>505.82</ele>
 <time>2011-10-31T13:59:49Z</time>
 </trkpt>
 <trkpt lat="47.461472" lon="13.198425">
 <ele>505.43</ele>
 <time>2011-10-31T13:59:56Z</time>
 </trkpt>
 <trkpt lat="47.461075" lon="13.198705">
 <ele>504.84</ele>
 <time>2011-10-31T14:00:03Z</time>
 </trkpt>
 <trkpt lat="47.460606" lon="13.198849">
 <ele>503.73</ele>
 <time>2011-10-31T14:00:11Z</time>
 </trkpt>
 <trkpt lat="47.460136" lon="13.198962">
 <ele>503.98</ele>
 <time>2011-10-31T14:00:19Z</time>
 </trkpt>
 <trkpt lat="47.459625" lon="13.198987">
 <ele>504.54</ele>
 <time>2011-10-31T14:00:28Z</time>
 </trkpt>
 <trkpt lat="47.459061" lon="13.199071">
 <ele>505.18</ele>
 <time>2011-10-31T14:00:38Z</time>
 </trkpt>
 <trkpt lat="47.458504" lon="13.199206">
 <ele>505.59</ele>
 <time>2011-10-31T14:00:48Z</time>
 </trkpt>
 <trkpt lat="47.457958" lon="13.199345">
 <ele>506.20</ele>
 <time>2011-10-31T14:00:58Z</time>
 </trkpt>
 <trkpt lat="47.457535" lon="13.199497">
 <ele>506.44</ele>
 <time>2011-10-31T14:01:06Z</time>
 </trkpt>
 <trkpt lat="47.457153" lon="13.199633">
 <ele>507.55</ele>
 <time>2011-10-31T14:01:14Z</time>
 </trkpt>
 <trkpt lat="47.456718" lon="13.199860">
 <ele>509.18</ele>
 <time>2011-10-31T14:01:25Z</time>
 </trkpt>
 <trkpt lat="47.456348" lon="13.200154">
 <ele>510.75</ele>
 <time>2011-10-31T14:01:36Z</time>
 </trkpt>
 <trkpt lat="47.455978" lon="13.200448">
 <ele>512.37</ele>
 <time>2011-10-31T14:01:47Z</time>
 </trkpt>
 <trkpt lat="47.455647" lon="13.200760">
 <ele>513.74</ele>
 <time>2011-10-31T14:01:57Z</time>
 </trkpt>
 <trkpt lat="47.455345" lon="13.201047">
 <ele>515.24</ele>
 <time>2011-10-31T14:02:06Z</time>
 </trkpt>
 <trkpt lat="47.455048" lon="13.201332">
 <ele>515.93</ele>
 <time>2011-10-31T14:02:15Z</time>
 </trkpt>
 <trkpt lat="47.454727" lon="13.201731">
 <ele>516.45</ele>
 <time>2011-10-31T14:02:25Z</time>
 </trkpt>
 <trkpt lat="47.454494" lon="13.202048">
 <ele>516.96</ele>
 <time>2011-10-31T14:02:32Z</time>
 </trkpt>
 <trkpt lat="47.454178" lon="13.202476">
 <ele>517.35</ele>
 <time>2011-10-31T14:02:40Z</time>
 </trkpt>
 <trkpt lat="47.453876" lon="13.203116">
 <ele>516.98</ele>
 <time>2011-10-31T14:02:49Z</time>
 </trkpt>
 <trkpt lat="47.453568" lon="13.203829">
 <ele>516.37</ele>
 <time>2011-10-31T14:02:58Z</time>
 </trkpt>
 <trkpt lat="47.453262" lon="13.204673">
 <ele>515.94</ele>
 <time>2011-10-31T14:03:08Z</time>
 </trkpt>
 <trkpt lat="47.452934" lon="13.205644">
 <ele>515.11</ele>
 <time>2011-10-31T14:03:19Z</time>
 </trkpt>
 <trkpt lat="47.452576" lon="13.206590">
 <ele>514.34</ele>
 <time>2011-10-31T14:03:30Z</time>
 </trkpt>
 <trkpt lat="47.452141" lon="13.207382">
 <ele>513.75</ele>
 <time>2011-10-31T14:03:40Z</time>
 </trkpt>
 <trkpt lat="47.451714" lon="13.208019">
 <ele>513.25</ele>
 <time>2011-10-31T14:03:49Z</time>
 </trkpt>
 <trkpt lat="47.451256" lon="13.208608">
 <ele>512.86</ele>
 <time>2011-10-31T14:03:58Z</time>
 </trkpt>
 <trkpt lat="47.450676" lon="13.209124">
 <ele>512.31</ele>
 <time>2011-10-31T14:04:08Z</time>
 </trkpt>
 <trkpt lat="47.450134" lon="13.209487">
 <ele>511.79</ele>
 <time>2011-10-31T14:04:17Z</time>
 </trkpt>
 <trkpt lat="47.449493" lon="13.209700">
 <ele>511.62</ele>
 <time>2011-10-31T14:04:27Z</time>
 </trkpt>
 <trkpt lat="47.448994" lon="13.209822">
 <ele>511.28</ele>
 <time>2011-10-31T14:04:35Z</time>
 </trkpt>
 <trkpt lat="47.448395" lon="13.209942">
 <ele>511.76</ele>
 <time>2011-10-31T14:04:45Z</time>
 </trkpt>
 <trkpt lat="47.447842" lon="13.210113">
 <ele>513.38</ele>
 <time>2011-10-31T14:04:55Z</time>
 </trkpt>
 <trkpt lat="47.447361" lon="13.210299">
 <ele>514.56</ele>
 <time>2011-10-31T14:05:04Z</time>
 </trkpt>
 <trkpt lat="47.446941" lon="13.210462">
 <ele>515.77</ele>
 <time>2011-10-31T14:05:12Z</time>
 </trkpt>
 <trkpt lat="47.446537" lon="13.210630">
 <ele>517.26</ele>
 <time>2011-10-31T14:05:21Z</time>
 </trkpt>
 <trkpt lat="47.446163" lon="13.210785">
 <ele>518.65</ele>
 <time>2011-10-31T14:05:30Z</time>
 </trkpt>
 <trkpt lat="47.445797" lon="13.210852">
 <ele>519.77</ele>
 <time>2011-10-31T14:05:39Z</time>
 </trkpt>
 <trkpt lat="47.445400" lon="13.210805">
 <ele>521.58</ele>
 <time>2011-10-31T14:05:49Z</time>
 </trkpt>
 <trkpt lat="47.445011" lon="13.210713">
 <ele>522.93</ele>
 <time>2011-10-31T14:05:59Z</time>
 </trkpt>
 <trkpt lat="47.444668" lon="13.210565">
 <ele>524.12</ele>
 <time>2011-10-31T14:06:08Z</time>
 </trkpt>
 <trkpt lat="47.444324" lon="13.210357">
 <ele>525.41</ele>
 <time>2011-10-31T14:06:17Z</time>
 </trkpt>
 <trkpt lat="47.443905" lon="13.210102">
 <ele>527.11</ele>
 <time>2011-10-31T14:06:28Z</time>
 </trkpt>
 <trkpt lat="47.443584" lon="13.209961">
 <ele>527.84</ele>
 <time>2011-10-31T14:06:36Z</time>
 </trkpt>
 <trkpt lat="47.443176" lon="13.209844">
 <ele>528.79</ele>
 <time>2011-10-31T14:06:46Z</time>
 </trkpt>
 <trkpt lat="47.442722" lon="13.209713">
 <ele>529.36</ele>
 <time>2011-10-31T14:06:57Z</time>
 </trkpt>
 <trkpt lat="47.442318" lon="13.209597">
 <ele>530.21</ele>
 <time>2011-10-31T14:07:07Z</time>
 </trkpt>
 <trkpt lat="47.441998" lon="13.209505">
 <ele>530.65</ele>
 <time>2011-10-31T14:07:15Z</time>
 </trkpt>
 <trkpt lat="47.441586" lon="13.209388">
 <ele>531.56</ele>
 <time>2011-10-31T14:07:25Z</time>
 </trkpt>
 <trkpt lat="47.441181" lon="13.209272">
 <ele>532.30</ele>
 <time>2011-10-31T14:07:35Z</time>
 </trkpt>
 <trkpt lat="47.440796" lon="13.209094">
 <ele>533.03</ele>
 <time>2011-10-31T14:07:45Z</time>
 </trkpt>
 <trkpt lat="47.440369" lon="13.208876">
 <ele>533.92</ele>
 <time>2011-10-31T14:07:56Z</time>
 </trkpt>
 <trkpt lat="47.439949" lon="13.208621">
 <ele>534.35</ele>
 <time>2011-10-31T14:08:07Z</time>
 </trkpt>
 <trkpt lat="47.439541" lon="13.208374">
 <ele>534.67</ele>
 <time>2011-10-31T14:08:17Z</time>
 </trkpt>
 <trkpt lat="47.439068" lon="13.208090">
 <ele>534.68</ele>
 <time>2011-10-31T14:08:28Z</time>
 </trkpt>
 <trkpt lat="47.438606" lon="13.207814">
 <ele>534.55</ele>
 <time>2011-10-31T14:08:38Z</time>
 </trkpt>
 <trkpt lat="47.438225" lon="13.207744">
 <ele>533.95</ele>
 <time>2011-10-31T14:08:45Z</time>
 </trkpt>
 <trkpt lat="47.437748" lon="13.207715">
 <ele>532.89</ele>
 <time>2011-10-31T14:08:53Z</time>
 </trkpt>
 <trkpt lat="47.437328" lon="13.207822">
 <ele>532.09</ele>
 <time>2011-10-31T14:09:00Z</time>
 </trkpt>
 <trkpt lat="47.436871" lon="13.208014">
 <ele>530.78</ele>
 <time>2011-10-31T14:09:07Z</time>
 </trkpt>
 <trkpt lat="47.436436" lon="13.208374">
 <ele>529.39</ele>
 <time>2011-10-31T14:09:14Z</time>
 </trkpt>
 <trkpt lat="47.435997" lon="13.208894">
 <ele>527.50</ele>
 <time>2011-10-31T14:09:21Z</time>
 </trkpt>
 <trkpt lat="47.435650" lon="13.209300">
 <ele>525.68</ele>
 <time>2011-10-31T14:09:26Z</time>
 </trkpt>
 <trkpt lat="47.435184" lon="13.209712">
 <ele>523.55</ele>
 <time>2011-10-31T14:09:32Z</time>
 </trkpt>
 <trkpt lat="47.434566" lon="13.209952">
 <ele>521.46</ele>
 <time>2011-10-31T14:09:39Z</time>
 </trkpt>
 <trkpt lat="47.433853" lon="13.210231">
 <ele>519.33</ele>
 <time>2011-10-31T14:09:47Z</time>
 </trkpt>
 <trkpt lat="47.433155" lon="13.210503">
 <ele>516.90</ele>
 <time>2011-10-31T14:09:55Z</time>
 </trkpt>
 <trkpt lat="47.432526" lon="13.210864">
 <ele>515.26</ele>
 <time>2011-10-31T14:10:03Z</time>
 </trkpt>
 <trkpt lat="47.431969" lon="13.211294">
 <ele>515.58</ele>
 <time>2011-10-31T14:10:11Z</time>
 </trkpt>
 <trkpt lat="47.431339" lon="13.211779">
 <ele>515.86</ele>
 <time>2011-10-31T14:10:21Z</time>
 </trkpt>
 <trkpt lat="47.430683" lon="13.212285">
 <ele>515.70</ele>
 <time>2011-10-31T14:10:32Z</time>
 </trkpt>
 <trkpt lat="47.430153" lon="13.212692">
 <ele>515.75</ele>
 <time>2011-10-31T14:10:41Z</time>
 </trkpt>
 <trkpt lat="47.429752" lon="13.213002">
 <ele>515.48</ele>
 <time>2011-10-31T14:10:48Z</time>
 </trkpt>
 <trkpt lat="47.429298" lon="13.213353">
 <ele>514.96</ele>
 <time>2011-10-31T14:10:56Z</time>
 </trkpt>
 <trkpt lat="47.428989" lon="13.213592">
 <ele>514.80</ele>
 <time>2011-10-31T14:11:03Z</time>
 </trkpt>
 <trkpt lat="47.428989" lon="13.213592">
 <ele>516.03</ele>
 <time>2011-10-31T14:11:08Z</time>
 </trkpt>
 <trkpt lat="47.428692" lon="13.213761">
 <ele>516.06</ele>
 <time>2011-10-31T14:11:09Z</time>
 </trkpt>
 <trkpt lat="47.428566" lon="13.213833">
 <ele>516.14</ele>
 <time>2011-10-31T14:11:13Z</time>
 </trkpt>
 <trkpt lat="47.428566" lon="13.213971">
 <ele>516.14</ele>
 <time>2011-10-31T14:11:14Z</time>
 </trkpt>
 <trkpt lat="47.428600" lon="13.214098">
 <ele>515.64</ele>
 <time>2011-10-31T14:11:16Z</time>
 </trkpt>
 <trkpt lat="47.428802" lon="13.214854">
 <ele>513.06</ele>
 <time>2011-10-31T14:11:25Z</time>
 </trkpt>
 <trkpt lat="47.428883" lon="13.215123">
 <ele>513.24</ele>
 <time>2011-10-31T14:11:29Z</time>
 </trkpt>
 <trkpt lat="47.428844" lon="13.215239">
 <ele>513.29</ele>
 <time>2011-10-31T14:11:30Z</time>
 </trkpt>
 <trkpt lat="47.428474" lon="13.215609">
 <ele>513.41</ele>
 <time>2011-10-31T14:11:39Z</time>
 </trkpt>
 <trkpt lat="47.428177" lon="13.215925">
 <ele>513.97</ele>
 <time>2011-10-31T14:11:47Z</time>
 </trkpt>
 <trkpt lat="47.427937" lon="13.216259">
 <ele>514.32</ele>
 <time>2011-10-31T14:11:54Z</time>
 </trkpt>
 <trkpt lat="47.427696" lon="13.216757">
 <ele>514.60</ele>
 <time>2011-10-31T14:12:03Z</time>
 </trkpt>
 <trkpt lat="47.427658" lon="13.216832">
 <ele>514.67</ele>
 <time>2011-10-31T14:12:07Z</time>
 </trkpt>
 <trkpt lat="47.427406" lon="13.217094">
 <ele>514.92</ele>
 <time>2011-10-31T14:12:11Z</time>
 </trkpt>
 <trkpt lat="47.427307" lon="13.217099">
 <ele>514.99</ele>
 <time>2011-10-31T14:12:13Z</time>
 </trkpt>
 <trkpt lat="47.426971" lon="13.217046">
 <ele>514.84</ele>
 <time>2011-10-31T14:12:21Z</time>
 </trkpt>
 <trkpt lat="47.426548" lon="13.216994">
 <ele>514.74</ele>
 <time>2011-10-31T14:12:29Z</time>
 </trkpt>
 <trkpt lat="47.425999" lon="13.217103">
 <ele>514.41</ele>
 <time>2011-10-31T14:12:40Z</time>
 </trkpt>
 <trkpt lat="47.425610" lon="13.217269">
 <ele>514.73</ele>
 <time>2011-10-31T14:12:49Z</time>
 </trkpt>
 <trkpt lat="47.425400" lon="13.217427">
 <ele>514.70</ele>
 <time>2011-10-31T14:12:54Z</time>
 </trkpt>
 <trkpt lat="47.425362" lon="13.217454">
 <ele>514.98</ele>
 <time>2011-10-31T14:12:59Z</time>
 </trkpt>
 <trkpt lat="47.424988" lon="13.217920">
 <ele>515.42</ele>
 <time>2011-10-31T14:13:07Z</time>
 </trkpt>
 <trkpt lat="47.424797" lon="13.218313">
 <ele>515.34</ele>
 <time>2011-10-31T14:13:15Z</time>
 </trkpt>
 <trkpt lat="47.424541" lon="13.218731">
 <ele>515.52</ele>
 <time>2011-10-31T14:13:23Z</time>
 </trkpt>
 <trkpt lat="47.424416" lon="13.218911">
 <ele>515.74</ele>
 <time>2011-10-31T14:13:27Z</time>
 </trkpt>
 <trkpt lat="47.424320" lon="13.219109">
 <ele>515.84</ele>
 <time>2011-10-31T14:13:32Z</time>
 </trkpt>
 <trkpt lat="47.424259" lon="13.219313">
 <ele>515.97</ele>
 <time>2011-10-31T14:13:37Z</time>
 </trkpt>
 <trkpt lat="47.424068" lon="13.219427">
 <ele>515.82</ele>
 <time>2011-10-31T14:13:41Z</time>
 </trkpt>
 <trkpt lat="47.423756" lon="13.219365">
 <ele>515.84</ele>
 <time>2011-10-31T14:13:47Z</time>
 </trkpt>
 <trkpt lat="47.423393" lon="13.219372">
 <ele>516.46</ele>
 <time>2011-10-31T14:13:55Z</time>
 </trkpt>
 <trkpt lat="47.423191" lon="13.219377">
 <ele>516.95</ele>
 <time>2011-10-31T14:14:01Z</time>
 </trkpt>
 <trkpt lat="47.423130" lon="13.219378">
 <ele>517.13</ele>
 <time>2011-10-31T14:14:05Z</time>
 </trkpt>
 <trkpt lat="47.423130" lon="13.219378">
 <ele>517.15</ele>
 <time>2011-10-31T14:14:06Z</time>
 </trkpt>
 <trkpt lat="47.422958" lon="13.219382">
 <ele>516.75</ele>
 <time>2011-10-31T14:14:41Z</time>
 </trkpt>
 <trkpt lat="47.422714" lon="13.219395">
 <ele>516.55</ele>
 <time>2011-10-31T14:14:47Z</time>
 </trkpt>
 <trkpt lat="47.422348" lon="13.219427">
 <ele>516.70</ele>
 <time>2011-10-31T14:14:56Z</time>
 </trkpt>
 <trkpt lat="47.422134" lon="13.219446">
 <ele>517.01</ele>
 <time>2011-10-31T14:15:02Z</time>
 </trkpt>
 <trkpt lat="47.421986" lon="13.219459">
 <ele>517.22</ele>
 <time>2011-10-31T14:15:07Z</time>
 </trkpt>
 <trkpt lat="47.422058" lon="13.218270">
 <ele>517.68</ele>
 <time>2011-10-31T14:15:14Z</time>
 </trkpt>
 <trkpt lat="47.421932" lon="13.219464">
 <ele>517.95</ele>
 <time>2011-10-31T14:15:17Z</time>
 </trkpt>
 <trkpt lat="47.421932" lon="13.219464">
 <ele>517.85</ele>
 <time>2011-10-31T14:15:24Z</time>
 </trkpt>
 </trkseg>
 </trk>
</gpx>
